Date StartTime U_cm/s V_cm/s W_cm/s Ustd_cm/s Vstd_cm/s Wstd_cm/s Uvar_(cm/s)^2 Vvar_(cm/s)^2 Wvar_(cm/s)^2 KE_(m/s)^2 TurbulentKE_(m/s)^2 HorizWindSpeed_cm/s FrictionSpeec_cm/s DragCoef SpeedOfSound_m/s SonicTemperature_C Pressure_mb 
06/29/2013  00:00:00     -300.089      -11.653      -21.412      106.808      114.420       57.414    11407.854    13091.914     3296.393        5.922        1.390      300.315       47.463        0.025      348.245       27.797      863.805
06/29/2013  00:01:00     -294.905      -81.043       -0.835      142.508      107.579       73.477    20308.547    11573.326     5398.840        6.540        1.864      305.838       77.220        0.064      348.228       27.768      863.800
06/29/2013  00:02:00     -246.044      -69.160      -13.752      114.371      108.074       59.117    13080.828    11680.094     3494.861        4.688        1.413      255.579       62.923        0.061      348.203       27.724      863.795
06/29/2013  00:03:00     -292.002      -80.359       -8.348      123.270      102.145       58.641    15195.549    10433.602     3438.800        6.042        1.453      302.858       57.821        0.036      348.200       27.719      863.795
06/29/2013  00:04:00     -203.081      -65.259       -5.097      119.981      104.699       56.600    14395.321    10961.863     3203.513        3.704        1.428      213.309       56.421        0.070      348.158       27.647      863.789
06/29/2013  00:05:00     -296.024      -13.284      -22.130      116.027       94.407       61.645    13462.293     8912.601     3800.123        5.723        1.309      296.322       65.067        0.048      348.221       27.755      863.784
06/29/2013  00:06:00     -364.829      -32.534      -25.659      135.818      110.931       65.273    18446.556    12305.584     4260.553        8.491        1.751      366.277       65.793        0.032      348.231       27.773      863.784
06/29/2013  00:07:00     -332.740      -89.541        2.195      130.312       90.411       59.264    16981.268     8174.137     3512.227        7.370        1.433      344.577       63.357        0.034      348.251       27.807      863.788
06/29/2013  00:08:00     -286.769      -84.217        3.655      132.939      107.856       59.403    17672.733    11632.969     3528.762        6.108        1.642      298.880       58.401        0.038      348.183       27.690      863.788
06/29/2013  00:09:00     -302.023      -40.609       -2.447      153.247      109.166       59.898    23484.540    11917.235     3587.753        6.592        1.949      304.741       69.364        0.052      348.172       27.671      863.786
06/29/2013  00:10:00     -291.455      -48.120      -24.713      121.682       83.916       60.375    14806.463     7041.817     3645.123        5.668        1.275      295.401       62.500        0.045      348.172       27.670      863.783
06/29/2013  00:11:00     -280.210      -89.007       -4.635      154.523       99.395       61.760    23877.352     9879.336     3814.287        6.201        1.879      294.007       75.052        0.065      348.116       27.573      863.791
06/29/2013  00:12:00     -208.380      -49.089       -7.722      106.574       97.559       58.615    11357.956     9517.853     3435.759        3.510        1.216      214.084       49.465        0.053      348.055       27.467      863.789
06/29/2013  00:13:00     -354.217      -68.714      -11.712      154.209      102.113       65.666    23780.336    10427.081     4312.003        8.442        1.926      360.820       73.926        0.042      348.260       27.824      863.782
06/29/2013  00:14:00     -387.408      -69.517      -13.933      147.033       91.024       63.072    21618.755     8285.313     3978.111        9.449        1.694      393.596       69.075        0.031      348.171       27.668      863.792
06/29/2013  00:15:00     -245.770      -45.841       -2.238       99.620       92.971       53.343     9924.237     8643.633     2845.431        4.196        1.071      250.008       56.764        0.052      348.165       27.659      863.811
06/29/2013  00:16:00     -304.738      -27.637      -15.755      156.801       98.301       58.909    24586.618     9663.106     3470.237        6.579        1.886      305.988       73.647        0.058      348.162       27.653      863.815
06/29/2013  00:17:00     -243.433      -41.799       -9.420       98.963       77.604       53.231     9793.654     6022.429     2833.559        3.987        0.932      246.996       50.407        0.042      348.131       27.599      863.827
06/29/2013  00:18:00     -235.398      -77.178      -17.794       90.773       99.725       50.888     8239.782     9945.018     2589.619        4.123        1.039      247.727       42.942        0.030      348.089       27.526      863.836
06/29/2013  00:19:00     -328.656      -47.797      -17.127      101.477       85.475       52.029    10297.597     7306.054     2706.985        6.545        1.016      332.113       52.848        0.025      348.179       27.683      863.850
06/29/2013  00:20:00     -329.735      -55.013      -24.512       88.103       98.124       39.723     7762.136     9628.228     1577.925        6.566        0.948      334.293       29.438        0.008      348.115       27.572      863.854
06/29/2013  00:21:00     -254.365      -32.622      -11.062       99.596       86.565       47.548     9919.420     7493.582     2260.827        4.278        0.984      256.448       46.395        0.033      348.082       27.514      863.857
06/29/2013  00:22:00     -261.260      -82.475      -17.151       85.483       70.530       39.779     7307.306     4974.437     1582.367        4.461        0.693      273.969       46.200        0.028      348.097       27.541      863.856
06/29/2013  00:23:00     -267.044      -83.242      -12.214      128.852       90.640       59.915    16602.743     8215.566     3589.805        5.339        1.420      279.717       68.162        0.059      348.021       27.409      863.861
06/29/2013  00:24:00     -281.912      -11.137      -22.989       95.181       74.707       50.632     9059.408     5581.194     2563.606        4.866        0.860      282.132       47.545        0.028      348.053       27.465      863.866
06/29/2013  00:25:00     -220.577      -47.173      -12.069       90.019       84.639       46.059     8103.339     7163.688     2121.414        3.420        0.869      225.564       34.137        0.023      348.028       27.421      863.863
06/29/2013  00:26:00     -258.569      -71.194      -11.780       99.844       93.972       46.480     9968.865     8830.669     2160.368        4.651        1.048      268.191       46.682        0.030      348.013       27.395      863.860
06/29/2013  00:27:00     -309.671      -45.209      -25.437      107.424       79.986       49.554    11539.887     6397.770     2455.597        5.949        1.020      312.953       50.103        0.026      348.104       27.552      863.864
06/29/2013  00:28:00     -273.279      -98.447      -16.766       92.295       79.558       41.574     8518.327     6329.431     1728.404        5.061        0.829      290.471       36.815        0.016      348.018       27.405      863.866
06/29/2013  00:29:00     -323.123      -54.818      -25.446       82.365      115.857       55.310     6783.979    13422.781     3059.204        6.566        1.163      327.740       49.465        0.023      348.031       27.426      863.858
06/29/2013  00:30:00     -375.470       20.213      -25.743      119.424      118.072       56.143    14262.149    13941.070     3152.050        8.670        1.568      376.014       58.224        0.024      348.030       27.424      863.860
06/29/2013  00:31:00     -253.273      -31.408      -18.400      101.694       81.905       43.882    10341.765     6708.450     1925.660        4.222        0.949      255.213       43.107        0.029      347.939       27.269      863.855
06/29/2013  00:32:00     -193.959      -42.889      -13.435      102.653       82.073       44.042    10537.692     6735.942     1939.691        2.942        0.961      198.644       41.999        0.045      347.900       27.202      863.855
06/29/2013  00:33:00     -260.519      -61.290       -8.023       97.806       77.850       52.364     9566.087     6060.663     2741.974        4.503        0.918      267.631       53.342        0.040      347.885       27.174      863.848
06/29/2013  00:34:00     -169.235      -43.885       -3.313       91.649       69.040       41.529     8399.611     4766.533     1724.638        2.273        0.745      174.833       36.778        0.044      347.901       27.203      863.842
06/29/2013  00:35:00     -297.270      -67.407      -13.602      128.468       86.196       56.803    16504.103     7429.805     3226.620        6.012        1.358      304.817       47.280        0.024      347.958       27.302      863.832
06/29/2013  00:36:00     -230.657      -42.144       -3.608      114.349       83.603       49.356    13075.738     6989.503     2436.026        3.874        1.125      234.475       49.658        0.045      347.919       27.234      863.834
06/29/2013  00:37:00     -246.469      -41.560        3.386      125.424      105.745       52.880    15731.268    11181.909     2796.323        4.609        1.485      249.948       52.363        0.044      347.904       27.208      863.841
06/29/2013  00:38:00     -291.247      -60.818      -11.309      114.055       98.654       61.061    13008.609     9732.590     3728.468        5.756        1.323      297.529       60.717        0.042      347.927       27.246      863.857
06/29/2013  00:39:00     -299.857      -51.468      -28.445      138.651       82.902       60.647    19223.986     6872.732     3678.053        6.157        1.489      304.242       66.600        0.048      348.041       27.443      863.862
06/29/2013  00:40:00     -270.263      -87.184       -8.449      109.407      118.891       56.451    11969.903    14135.165     3186.723        5.500        1.465      283.977       49.244        0.030      348.012       27.394      863.856
06/29/2013  00:41:00     -225.495      -72.281        0.678      121.563      111.307       60.525    14777.574    12389.322     3663.279        4.345        1.542      236.796       63.338        0.072      347.955       27.297      863.848
06/29/2013  00:42:00     -203.686     -109.985       -1.857      120.049      105.711       50.422    14411.860    11174.720     2542.411        4.085        1.406      231.484       61.717        0.071      347.949       27.285      863.845
06/29/2013  00:43:00     -244.281      -22.593      -17.233       97.029       87.441       51.486     9414.716     7645.997     2650.805        4.009        0.986      245.324       42.736        0.030      347.909       27.217      863.845
06/29/2013  00:44:00     -281.822     -144.887      -15.368      100.440       69.648       46.961    10088.161     4850.843     2205.300        5.889        0.857      316.885       43.855        0.019      347.981       27.339      863.843
06/29/2013  00:45:00     -215.860      -49.096      -13.321       85.152       70.000       47.621     7250.900     4900.026     2267.728        3.180        0.721      221.373       46.497        0.044      347.992       27.360      863.835
06/29/2013  00:46:00     -131.951        4.008      -11.608       80.391       55.961       40.200     6462.750     3131.604     1616.023        1.438        0.561      132.012       32.337        0.060      347.909       27.218      863.829
06/29/2013  00:47:00     -132.474      -23.421       -4.428       71.987       67.305       37.204     5182.133     4530.011     1384.158        1.460        0.555      134.528       30.454        0.051      347.814       27.054      863.827
06/29/2013  00:48:00     -157.269      -52.785       -7.975       72.900       65.410       38.102     5314.350     4278.524     1451.757        1.931        0.552      165.890       28.706        0.030      347.840       27.099      863.823
06/29/2013  00:49:00     -125.782      -39.447       -8.914       81.531       68.486       39.344     6647.368     4690.388     1547.980        1.517        0.644      131.823       41.918        0.101      347.763       26.966      863.822
06/29/2013  00:50:00      -67.874       37.086      -11.608       42.413       36.021       25.934     1798.903     1297.522      672.586        0.494        0.188       77.345       16.808        0.047      347.671       26.809      863.819
06/29/2013  00:51:00     -108.612      119.594      -21.046       47.976       64.915       38.449     2301.681     4213.937     1478.353        1.727        0.400      161.553       30.300        0.035      347.716       26.886      863.807
06/29/2013  00:52:00     -126.283       98.057      -27.644       64.075       56.623       35.499     4105.631     3206.189     1260.148        1.745        0.429      159.883       38.662        0.058      347.710       26.875      863.796
06/29/2013  00:53:00     -118.031      101.490      -21.980       48.339       54.989       28.877     2336.662     3023.819      833.858        1.545        0.310      155.665       29.927        0.037      347.724       26.900      863.781
06/29/2013  00:54:00     -112.028      108.292      -15.284       51.106       48.711       32.073     2611.811     2372.720     1028.670        1.526        0.301      155.813       25.777        0.027      347.707       26.870      863.790
06/29/2013  00:55:00     -140.901       86.519      -23.840       54.004       47.414       28.815     2916.429     2248.073      830.312        1.695        0.300      165.344       24.762        0.022      347.704       26.865      863.793
06/29/2013  00:56:00     -109.908      144.280      -20.560       63.666       58.159       39.071     4053.373     3382.484     1526.554        2.114        0.448      181.373       38.088        0.044      347.669       26.803      863.780
06/29/2013  00:57:00     -115.203      107.266      -20.281       31.613       42.413       24.258      999.382     1798.886      588.439        1.429        0.169      157.409       18.131        0.013      347.646       26.766      863.777
06/29/2013  00:58:00     -106.065       35.939      -15.399       44.267       35.981       31.300     1959.554     1294.628      979.719        0.851        0.212      111.989       30.235        0.073      347.604       26.692      863.792
06/29/2013  00:59:00      -92.028       69.121       -6.029       34.068       44.143       26.382     1160.636     1948.629      696.026        0.854        0.190      115.095       21.207        0.034      347.564       26.623      863.783
06/29/2013  01:00:00     -104.649       55.568      -24.957       37.847       65.117       22.133     1432.390     4240.276      489.887        1.041        0.308      118.487       17.492        0.022      347.553       26.606      863.791
06/29/2013  01:01:00      -95.479      -42.759      -12.902       46.625       31.711       25.025     2173.928     1005.598      626.260        0.746        0.190      104.616       22.414        0.046      347.345       26.247      863.809
06/29/2013  01:02:00      -98.621      -49.579      -14.453       50.564       44.183       25.908     2556.748     1952.158      671.215        0.879        0.259      110.382       21.524        0.038      347.321       26.204      863.815
06/29/2013  01:03:00      -82.571       -1.860       -8.301       33.350       46.197       20.412     1112.211     2134.123      416.658        0.528        0.183       82.592       14.571        0.031      347.325       26.214      863.819
06/29/2013  01:04:00      -89.059      -16.602       -2.019       31.657       44.014       22.588     1002.149     1937.245      510.230        0.583        0.172       90.593       12.819        0.020      347.341       26.240      863.824
06/29/2013  01:05:00     -121.318       29.178       -4.039       75.032       54.143       32.991     5629.808     2931.511     1088.381        1.262        0.482      124.777       39.492        0.100      347.329       26.218      863.820
06/29/2013  01:06:00     -172.945       36.277      -11.311       53.430       50.140       43.290     2854.787     2514.058     1874.046        1.930        0.362      176.709       38.860        0.048      347.377       26.301      863.816
06/29/2013  01:07:00     -108.831      -38.542       -0.291       41.304       55.542       33.307     1706.028     3084.967     1109.359        0.961        0.295      115.454       28.475        0.061      347.258       26.096      863.803
06/29/2013  01:08:00     -122.124      -27.898       -9.095       52.739       41.477       28.556     2781.416     1720.363      815.466        1.055        0.266      125.270       24.613        0.039      347.222       26.037      863.800
06/29/2013  01:09:00     -155.333      -32.830      -17.909       62.082       39.228       37.310     3854.182     1538.861     1392.027        1.615        0.339      158.765       38.238        0.058      347.279       26.131      863.789
06/29/2013  01:10:00     -186.574      -34.321       -6.268       88.242       75.170       44.409     7786.701     5650.581     1972.197        2.572        0.770      189.705       46.555        0.060      347.294       26.156      863.798
06/29/2013  01:11:00     -235.689      -48.803      -12.211       78.440       60.631       42.057     6152.884     3676.098     1768.821        3.484        0.580      240.688       40.284        0.028      347.334       26.224      863.804
06/29/2013  01:12:00     -132.086      -56.514        3.627       63.739       70.733       34.084     4062.668     5003.213     1161.718        1.544        0.511      143.668       30.977        0.046      347.261       26.103      863.800
06/29/2013  01:13:00     -190.489      -41.935       -8.704       61.184       47.184       31.026     3743.523     2226.294      962.620        2.253        0.347      195.051       29.842        0.023      347.412       26.361      863.794
06/29/2013  01:14:00     -179.025      -44.948       -1.901       78.983       57.947       39.584     6238.301     3357.844     1566.917        2.262        0.558      184.581       35.323        0.037      347.439       26.406      863.792
06/29/2013  01:15:00     -123.776      -40.357        0.926       67.797       61.086       30.899     4596.446     3731.526      954.779        1.311        0.464      130.189       30.145        0.054      347.384       26.313      863.803
06/29/2013  01:16:00     -135.665      -37.363        3.297       64.247       47.765       32.423     4127.715     2281.492     1051.251        1.363        0.373      140.716       30.338        0.046      347.408       26.354      863.798
06/29/2013  01:17:00     -208.464        3.150      -10.823       84.113       58.015       35.224     7075.008     3365.750     1240.712        2.763        0.584      208.488       37.401        0.032      347.427       26.385      863.802
06/29/2013  01:18:00     -172.808      -29.116      -10.209       57.985       73.128       36.387     3362.274     5347.671     1324.047        2.042        0.502      175.243       30.151        0.030      347.468       26.457      863.791
06/29/2013  01:19:00     -164.117      -22.625       -2.430       66.353       57.653       28.916     4402.746     3323.917      836.120        1.801        0.428      165.670       30.421        0.034      347.415       26.365      863.778
06/29/2013  01:20:00     -210.110      -36.624        1.335       89.848       72.114       47.384     8072.603     5200.375     2245.274        3.050        0.776      213.279       50.093        0.055      347.527       26.558      863.796
06/29/2013  01:21:00     -178.629      -42.848       -3.258      103.206       61.540       42.053    10651.411     3787.141     1768.489        2.498        0.810      183.696       49.271        0.072      347.478       26.473      863.803
06/29/2013  01:22:00     -178.429      -13.233       -9.956       63.908       64.034       37.216     4084.291     4100.298     1385.036        2.084        0.478      178.919       34.881        0.038      347.539       26.578      863.806
06/29/2013  01:23:00     -179.487      -21.589      -19.271       70.781       68.183       28.767     5009.896     4648.950      827.547        2.177        0.524      180.780       26.736        0.022      347.547       26.593      863.807
06/29/2013  01:24:00     -155.951      -67.572       -6.859       83.198       74.224       43.970     6921.942     5509.193     1933.338        2.165        0.718      169.960       40.968        0.058      347.472       26.464      863.834
06/29/2013  01:25:00     -243.634      -13.951      -31.142       38.934       47.830       22.462     1515.873     2287.694      504.559        3.241        0.215      244.033       17.773        0.005      347.491       26.494      863.853
06/29/2013  01:26:00     -137.305      -29.263       -0.496       44.829       48.231       30.408     2009.668     2326.252      924.637        1.248        0.263      140.389       25.616        0.033      347.385       26.316      863.847
06/29/2013  01:27:00     -115.158      -43.216       -5.891       47.319       45.919       29.170     2239.065     2108.523      850.896        1.018        0.260      123.000       16.861        0.019      347.401       26.343      863.856
06/29/2013  01:28:00      -71.925      -24.206       -0.260       58.880       38.374       27.983     3466.802     1472.546      783.056        0.574        0.286       75.889       29.201        0.148      347.377       26.301      863.870
06/29/2013  01:29:00     -135.348      -47.249      -17.915       39.362       35.136       28.061     1549.389     1234.523      787.417        1.222        0.179      143.358       18.176        0.016      347.400       26.341      863.873
06/29/2013  01:30:00     -173.645      -30.723      -17.879       34.670       36.052       22.778     1201.985     1299.761      518.826        1.722        0.151      176.342       18.525        0.011      347.404       26.346      863.881
06/29/2013  01:31:00     -164.716      -33.560      -11.184       45.668       42.463       24.205     2085.574     1803.071      585.884        1.643        0.224      168.100       19.257        0.013      347.442       26.413      863.883
06/29/2013  01:32:00     -117.664        4.252       -6.166       71.636       43.159       31.454     5131.671     1862.723      989.338        1.094        0.399      117.741       40.068        0.116      347.378       26.304      863.878
06/29/2013  01:33:00     -130.446       58.027      -16.997       47.129       34.634       23.317     2221.113     1199.490      543.691        1.232        0.198      142.770       16.479        0.013      347.519       26.547      863.885
06/29/2013  01:34:00      -46.346        6.571       -4.127       38.346       34.310       14.664     1470.398     1177.144      215.045        0.253        0.143       46.809       19.357        0.171      347.351       26.255      863.896
06/29/2013  01:35:00      -57.325       22.000        2.774       31.576       26.170       19.015      997.044      684.881      361.571        0.291        0.102       61.402       21.448        0.122      347.236       26.059      863.904
06/29/2013  01:36:00     -119.722       -0.611       -3.127       28.309       46.416       22.505      801.416     2154.477      506.483        0.890        0.173      119.723       10.946        0.008      347.332       26.224      863.898
06/29/2013  01:37:00     -101.715      -37.123      -12.281       38.015       42.471       20.833     1445.107     1803.763      434.001        0.778        0.184      108.277       18.387        0.029      347.311       26.189      863.906
06/29/2013  01:38:00      -92.171       33.311       -3.433       39.569       30.183       18.234     1565.743      911.017      332.497        0.621        0.140       98.006       17.363        0.031      347.246       26.076      863.918
06/29/2013  01:39:00     -176.537        6.365      -22.998       58.112       39.961       22.088     3377.002     1596.845      487.901        1.860        0.273      176.652       22.208        0.016      347.366       26.282      863.934
06/29/2013  01:40:00     -130.695        3.519       -9.359       70.874       51.145       30.526     5023.134     2615.801      931.847        1.287        0.429      130.742       36.082        0.076      347.427       26.389      863.937
06/29/2013  01:41:00      -95.992       11.588       -5.146       34.933       31.250       16.575     1220.304      976.561      274.735        0.592        0.124       96.689       17.094        0.031      347.269       26.115      863.936
06/29/2013  01:42:00     -111.623       22.533      -11.291       41.571       57.604       25.781     1728.166     3318.189      664.665        0.940        0.286      113.874       20.566        0.033      347.313       26.191      863.929
06/29/2013  01:43:00      -83.196      -14.699       -7.416       46.281       28.148       26.284     2141.965      792.316      690.834        0.541        0.181       84.485       24.159        0.082      347.293       26.157      863.928
06/29/2013  01:44:00     -101.994      -11.514       -1.060       44.435       36.111       32.716     1974.457     1303.970     1070.328        0.744        0.217      102.642       29.714        0.084      347.298       26.165      863.925
06/29/2013  01:45:00     -134.334        1.718      -20.675       44.646       53.605       21.853     1993.221     2873.498      477.554        1.191        0.267      134.345       22.105        0.027      347.284       26.141      863.924
06/29/2013  01:46:00      -65.090      -36.729       -5.115       41.264       26.515       21.864     1702.709      703.025      478.040        0.425        0.144       74.737       23.600        0.100      347.195       25.988      863.927
06/29/2013  01:47:00      -92.346      -26.466       -2.852       38.735       30.054       20.717     1500.436      903.218      429.187        0.603        0.142       96.063       21.400        0.050      347.190       25.981      863.935
06/29/2013  01:48:00     -134.220      -26.487       -2.591       45.947       47.161       28.315     2111.134     2224.171      801.744        1.193        0.257      136.808       18.919        0.019      347.206       26.007      863.942
06/29/2013  01:49:00     -155.178      -20.417      -15.844       40.662       37.525       22.670     1653.371     1408.118      513.928        1.416        0.179      156.516       22.232        0.020      347.200       25.998      863.940
06/29/2013  01:50:00     -169.007       22.196      -19.458       30.631       25.877       15.887      938.276      669.602      252.382        1.565        0.093      170.458       14.875        0.008      347.272       26.118      863.946
06/29/2013  01:51:00     -134.460      -42.073      -15.157       29.035       29.838       14.573      843.023      890.278      212.378        1.101        0.097      140.889       11.280        0.006      347.164       25.933      863.959
06/29/2013  01:52:00     -157.122      -21.327       -5.315       51.373       47.931       27.603     2639.148     2297.382      761.928        1.543        0.285      158.563       30.535        0.037      347.130       25.877      863.965
06/29/2013  01:53:00     -133.949      -24.536       -6.540       42.406       59.877       30.109     1798.307     3585.202      906.557        1.244        0.315      136.178       27.462        0.041      347.173       25.949      863.957
06/29/2013  01:54:00     -134.306      -33.614      -16.175       57.060       49.277       25.888     3255.880     2428.231      670.172        1.289        0.318      138.449       27.814        0.040      347.086       25.800      863.960
06/29/2013  01:55:00     -129.386      -48.629       -4.787       34.859       41.027       28.423     1215.146     1683.179      807.858        1.142        0.185      138.223       25.842        0.035      347.008       25.665      863.980
06/29/2013  01:56:00     -124.085       26.931      -24.469       56.690       64.923       30.265     3213.754     4214.986      915.994        1.253        0.417      126.974       22.613        0.032      346.938       25.545      864.003
06/29/2013  01:57:00     -150.450       67.409      -17.179       60.988       75.203       39.032     3719.498     5655.457     1523.472        1.918        0.545      164.862       39.791        0.058      347.026       25.696      863.998
06/29/2013  01:58:00     -100.718       21.253        0.963       36.881       43.519       21.245     1360.195     1893.881      451.348        0.715        0.185      102.936       12.469        0.015      346.852       25.396      863.988
06/29/2013  01:59:00      -82.273       11.080      -11.360       59.695       39.410       27.622     3563.485     1553.133      762.986        0.645        0.294       83.016       32.543        0.154      346.850       25.394      863.972
06/29/2013  02:00:00      -24.729       -2.828       -4.600       23.168       23.527       23.363      536.765      553.543      545.810        0.114        0.082       24.890       17.426        0.490      346.807       25.321      863.962
06/29/2013  02:01:00     -123.673      -46.775      -10.953       23.789       22.421       14.718      565.893      502.688      216.612        0.944        0.064      132.223        8.936        0.005      346.681       25.103      863.959
06/29/2013  02:02:00     -100.427      -29.797       -5.434       33.677       27.596       16.422     1134.107      761.552      269.686        0.658        0.108      104.754       16.760        0.026      346.677       25.096      863.965
06/29/2013  02:03:00      -87.440      -24.115        3.518       47.573       37.051       20.681     2263.152     1372.812      427.684        0.615        0.203       90.704       22.901        0.064      346.653       25.055      863.946
06/29/2013  02:04:00      -81.191       -4.906       -9.044       27.107       28.893       15.779      734.798      834.832      248.982        0.426        0.091       81.339       11.368        0.020      346.701       25.138      863.933
06/29/2013  02:05:00      -99.173        1.927       -9.054       32.929       28.114       25.430     1084.349      790.406      646.660        0.622        0.126       99.192       21.345        0.046      346.751       25.223      863.920
06/29/2013  02:06:00     -103.660       -0.599       -7.642       38.110       29.785       21.296     1452.368      887.135      453.499        0.680        0.140      103.662       19.220        0.034      346.810       25.327      863.926
06/29/2013  02:07:00      -77.651      -31.226       -0.511       22.907       28.703       17.757      524.711      823.891      315.316        0.433        0.083       83.694       14.005        0.028      346.681       25.104      863.936
06/29/2013  02:08:00     -108.925        7.328      -12.220       30.015       30.311       16.690      900.916      918.779      278.560        0.708        0.105      109.172       14.126        0.017      346.733       25.193      863.949
06/29/2013  02:09:00      -72.156       38.701      -11.158       32.780       28.890       16.924     1074.506      834.645      286.433        0.451        0.110       81.879        8.390        0.010      346.729       25.186      863.955
06/29/2013  02:10:00      -15.768       21.736       -9.574       17.691       17.439       15.199      312.971      304.114      231.011        0.083        0.042       26.853        9.609        0.128      346.714       25.161      863.945
06/29/2013  02:11:00      -57.307       13.463       -8.630       22.785       38.119       18.887      519.144     1453.093      356.737        0.293        0.116       58.867        7.572        0.017      346.860       25.411      863.948
06/29/2013  02:12:00     -115.268      -43.793      -10.705       36.750       31.477       16.797     1350.558      990.804      282.138        0.897        0.131      123.306       16.925        0.019      346.698       25.132      863.969
06/29/2013  02:13:00       -6.937      -15.165        8.210       24.657       20.105       15.896      607.977      404.209      252.672        0.080        0.063       16.677       13.149        0.622      346.511       24.812      863.977
06/29/2013  02:14:00      -12.511       -4.010       -3.736       14.874       19.442        9.099      221.232      378.009       82.796        0.043        0.034       13.138       11.261        0.735      346.552       24.884      863.961
06/29/2013  02:15:00      -45.980       -4.965       -7.827       23.616       14.867       13.634      557.734      221.031      185.893        0.158        0.048       46.247       10.630        0.053      346.661       25.068      863.963
06/29/2013  02:16:00      -23.967       16.461        2.358       17.330       19.174       12.557      300.336      367.626      157.688        0.084        0.041       29.076       13.423        0.213      346.654       25.055      863.950
06/29/2013  02:17:00      -48.292       18.256       -6.696       16.926       23.105        9.695      286.486      533.849       93.997        0.181        0.046       51.627        8.371        0.026      346.646       25.043      863.958
06/29/2013  02:18:00      -26.083      -11.999       -6.533       17.072       11.200        8.820      291.446      125.448       77.784        0.068        0.025       28.711        4.910        0.029      346.588       24.944      863.975
06/29/2013  02:19:00      -12.841      -16.466       -1.628       15.146       14.288       12.299      229.410      204.156      151.276        0.051        0.029       20.881        8.917        0.182      346.496       24.785      863.979
06/29/2013  02:20:00      -10.820      -17.249       -7.476       15.798       10.504        7.649      249.581      110.335       58.509        0.044        0.021       20.362        6.859        0.113      346.437       24.683      863.979
06/29/2013  02:21:00        5.816       -8.112        6.480       14.722       22.606       14.358      216.740      511.054      206.155        0.054        0.047        9.981       15.009        2.261      346.515       24.818      863.977
06/29/2013  02:22:00        8.372      -47.519        0.650       25.308       47.802       15.759      640.473     2284.986      248.332        0.275        0.159       48.250       19.241        0.159      346.551       24.878      863.970
06/29/2013  02:23:00        3.446      -54.056       -4.950       28.924       23.768       15.851      836.579      564.894      251.253        0.231        0.083       54.166       13.697        0.064      346.704       25.143      863.990
06/29/2013  02:24:00       12.004      -28.815       -2.805       17.468       14.905       13.484      305.131      222.173      181.820        0.085        0.035       31.215        4.207        0.018      346.427       24.667      864.012
06/29/2013  02:25:00       13.010       -9.315       10.340       11.081       13.043       10.712      122.787      170.119      114.744        0.039        0.020       16.001        9.300        0.338      346.379       24.584      864.025
06/29/2013  02:26:00       33.761      -60.987      -15.444       25.379       28.920       22.184      644.084      836.389      492.116        0.353        0.099       69.708       21.260        0.093      346.340       24.516      864.023
06/29/2013  02:27:00       -4.195      -29.673        0.214       24.078       18.242       12.168      579.770      332.781      148.071        0.098        0.053       29.968        8.068        0.072      346.404       24.626      864.034
06/29/2013  02:28:00       17.805      -27.927        3.033       25.377       11.400       10.532      643.967      129.957      110.925        0.100        0.044       33.120        9.743        0.087      346.543       24.865      864.028
06/29/2013  02:29:00      -78.319      -33.599       -8.419       31.372       18.078       10.278      984.215      326.809      105.641        0.437        0.071       85.222        6.185        0.005      346.483       24.762      864.042
06/29/2013  02:30:00      -47.696      -41.267       -0.748       38.096       34.559       16.148     1451.275     1194.322      260.763        0.344        0.145       63.070       19.493        0.096      346.061       24.039      864.055
06/29/2013  02:31:00       -0.340      -17.662        3.670       21.332       13.624       15.945      455.058      185.618      254.240        0.061        0.045       17.665       13.404        0.576      346.344       24.524      864.041
06/29/2013  02:32:00       -5.422      -11.473        1.452       12.347       13.841       11.663      152.460      191.578      136.025        0.032        0.024       12.690        6.595        0.270      346.500       24.792      864.032
06/29/2013  02:33:00       12.129       14.364        8.896       19.398        9.528        7.995      376.298       90.787       63.920        0.048        0.027       18.800        5.014        0.071      346.266       24.390      864.028
06/29/2013  02:34:00       19.248        6.371        9.568        8.983        8.678        6.947       80.687       75.304       48.261        0.035        0.010       20.275        4.857        0.057      346.319       24.482      864.025
06/29/2013  02:35:00       58.185       42.337        7.764       26.640       30.637       10.342      709.688      938.621      106.951        0.350        0.088       71.958       14.874        0.043      346.192       24.264      864.031
06/29/2013  02:36:00      131.262      108.117       55.283       60.635       39.319       51.426     3676.596     1545.968     2644.600        1.992        0.393      170.056       49.959        0.086      346.197       24.271      863.980
06/29/2013  02:37:00      -25.998       33.315       71.538       34.474       52.541       37.945     1188.469     2760.544     1439.856        0.615        0.269       42.258       37.523        0.788      346.219       24.310      863.993
06/29/2013  02:38:00      -32.709      -26.021        7.884       52.587       49.472       34.921     2765.409     2447.468     1219.470        0.412        0.322       41.797       33.813        0.654      345.964       23.870      864.043
06/29/2013  02:39:00      -61.705        6.277       -3.135       41.285       29.137       21.865     1704.434      848.963      478.072        0.344        0.152       62.023       20.200        0.106      345.833       23.647      864.052
06/29/2013  02:40:00       28.502       28.092        3.430       49.440       36.519       20.695     2444.300     1333.630      428.290        0.291        0.210       40.019       20.573        0.264      346.165       24.215      864.050
06/29/2013  02:41:00       50.023       29.112       54.634       36.680       47.763       36.533     1345.446     2281.284     1334.658        0.565        0.248       57.878       28.016        0.234      346.300       24.449      864.022
06/29/2013  02:42:00       53.166       28.482       56.414       35.834       54.089       30.302     1284.066     2925.576      918.204        0.597        0.256       60.315       28.044        0.216      346.232       24.333      864.040
06/29/2013  02:43:00        6.393       28.603       66.923       34.694       53.243       35.790     1203.683     2834.811     1280.947        0.533        0.266       29.308       35.444        1.463      346.243       24.351      864.058
06/29/2013  02:44:00        0.382      -45.130      -21.862       31.559       43.061       20.705      995.999     1854.211      428.714        0.290        0.164       45.132       12.421        0.076      346.295       24.440      864.090
06/29/2013  02:45:00       -4.162        1.707      -15.205       27.669       14.189       17.056      765.569      201.317      290.894        0.075        0.063        4.499       19.167       18.152      346.288       24.425      864.126
06/29/2013  02:46:00       45.008       39.015        8.804       19.978       24.967       14.322      399.126      623.347      205.124        0.243        0.061       59.564        7.694        0.017      346.358       24.549      864.125
06/29/2013  02:47:00       53.783       32.726       -0.232       39.091       30.468       23.802     1528.110      928.322      566.554        0.349        0.151       62.957       20.021        0.101      346.078       24.066      864.119
06/29/2013  02:48:00       60.775       22.175       10.328       31.002       20.954       21.121      961.148      439.053      446.106        0.307        0.092       64.694       16.459        0.065      346.009       23.949      864.122
06/29/2013  02:49:00       45.547       16.575       29.214       23.227       22.133       16.161      539.478      489.867      261.163        0.225        0.065       48.469       12.314        0.065      345.954       23.854      864.120
06/29/2013  02:50:00        9.820        8.333       12.340       15.048       12.183       13.153      226.441      148.431      173.011        0.043        0.027       12.880        9.984        0.601      345.975       23.891      864.126
06/29/2013  02:51:00       29.942       28.913        7.641       18.208       15.748       10.005      331.516      248.012      100.106        0.124        0.034       41.623       10.419        0.063      345.953       23.852      864.132
06/29/2013  02:52:00       -3.453       18.042       -0.576       11.422       20.387        8.359      130.459      415.622       69.881        0.048        0.031       18.369       11.474        0.390      345.882       23.730      864.163
06/29/2013  02:53:00       24.455       42.452       -1.334       20.895       11.270       11.528      436.610      127.015      132.891        0.155        0.035       48.992        9.618        0.039      346.154       24.197      864.166
06/29/2013  02:54:00       19.875       48.607        5.751       22.512       24.480       17.845      506.768      599.279      318.441        0.211        0.071       52.513       18.381        0.123      346.101       24.105      864.149
06/29/2013  02:55:00      -12.350       84.891      -10.285       21.855       19.010       11.521      477.640      361.395      132.744        0.422        0.049       85.784        5.281        0.004      346.279       24.412      864.166
06/29/2013  02:56:00      -34.752       35.413       -9.959       21.168       19.901       11.072      448.088      396.064      122.584        0.176        0.048       49.616        9.891        0.040      345.922       23.799      864.181
06/29/2013  02:57:00      -16.466       12.907        4.313       26.731       16.694       14.599      714.569      278.702      213.144        0.083        0.060       20.922       13.262        0.402      345.958       23.860      864.174
06/29/2013  02:58:00        1.372       20.868        0.653       11.669       15.516       10.239      136.176      240.745      104.847        0.046        0.024       20.913        8.404        0.161      346.128       24.153      864.159
06/29/2013  02:59:00      -32.980       -8.061       -4.609       14.706       13.132        6.294      216.277      172.454       39.619        0.080        0.021       33.951        6.068        0.032      346.087       24.081      864.170
06/29/2013  03:00:00      -32.998      -23.798      -10.040        6.533        6.765        6.534       42.680       45.771       42.691        0.094        0.007       40.685        4.693        0.013      345.936       23.825      864.185
06/29/2013  03:01:00      -35.496      -30.444       -6.161        6.151        7.352        6.224       37.831       54.047       38.738        0.118        0.007       46.763        3.838        0.007      345.970       23.881      864.204
06/29/2013  03:02:00      -86.879      -41.491       -4.425       26.662       17.355       12.872      710.868      301.198      165.693        0.523        0.059       96.278        7.413        0.006      345.835       23.649      864.214
06/29/2013  03:03:00      -86.209      -18.400       -8.572       21.840       16.128       12.311      476.990      260.111      151.561        0.437        0.044       88.151        7.584        0.007      345.746       23.498      864.206
06/29/2013  03:04:00      -73.078      -14.619       -4.521       20.143       13.486       11.422      405.725      181.867      130.468        0.315        0.036       74.526       10.428        0.020      345.816       23.617      864.191
06/29/2013  03:05:00      -61.262       -8.504       -8.004        7.427       13.500        5.163       55.158      182.247       26.653        0.208        0.013       61.850        3.100        0.003      345.978       23.894      864.197
06/29/2013  03:06:00      -38.392      -11.667       -8.215       22.540       13.861        7.502      508.038      192.134       56.281        0.122        0.038       40.126       11.234        0.078      345.997       23.929      864.206
06/29/2013  03:07:00      -17.442      -48.328       -3.472       47.221       18.390       17.829     2229.780      338.190      317.857        0.277        0.144       51.379        3.562        0.005      346.350       24.533      864.221
06/29/2013  03:08:00      -97.647      -76.069       -5.332       57.351       47.644       36.057     3289.102     2269.911     1300.104        1.110        0.343      123.780       23.234        0.035      345.800       23.591      864.243
06/29/2013  03:09:00      -87.484      -65.356        4.434       59.089       40.783       25.246     3491.513     1663.231      637.352        0.887        0.290      109.201       27.546        0.064      346.144       24.180      864.260
06/29/2013  03:10:00      -45.647       -5.702        6.546       44.300       29.577       20.158     1962.497      874.798      406.347        0.270        0.162       46.002       21.191        0.212      345.952       23.850      864.250
06/29/2013  03:11:00        2.794      -48.821       -2.683       19.219       31.640       10.628      369.358     1001.086      112.953        0.194        0.074       48.901       12.703        0.067      346.078       24.065      864.229
06/29/2013  03:12:00       18.638       24.269        8.079       12.523       12.020        8.898      156.838      144.469       79.174        0.069        0.019       30.600        9.491        0.096      345.939       23.829      864.216
06/29/2013  03:13:00       22.797       50.072       -1.406        7.846       11.356        7.276       61.563      128.953       52.945        0.164        0.012       55.018        4.180        0.006      346.038       23.999      864.210
06/29/2013  03:14:00       47.688       33.382        5.754       21.957       27.077       20.175      482.106      733.162      407.011        0.252        0.081       58.210       13.531        0.054      346.443       24.692      864.197
06/29/2013  03:15:00      -28.974        4.610        0.050       28.728       25.018       11.247      825.276      625.885      126.506        0.122        0.079       29.339       11.795        0.162      346.185       24.250      864.192
06/29/2013  03:16:00      -62.243       -8.873       -8.121       17.181       16.691       10.494      295.187      278.579      110.125        0.235        0.034       62.873        9.081        0.021      345.758       23.519      864.195
06/29/2013  03:17:00      -50.478       -1.803      -11.239       12.412        7.239        5.543      154.067       52.407       30.728        0.146        0.012       50.511        4.599        0.008      345.878       23.723      864.196
06/29/2013  03:18:00      -40.802       16.677        1.437        7.739       10.549       10.934       59.891      111.285      119.547        0.112        0.015       44.078        5.279        0.014      346.249       24.360      864.191
06/29/2013  03:19:00      -13.316        6.255       -0.083        7.728       10.211        6.674       59.720      104.269       44.538        0.021        0.010       14.712        4.488        0.093      346.368       24.564      864.190
06/29/2013  03:20:00      -51.061      -19.474       -5.845       20.816       10.586       11.999      433.310      112.056      143.970        0.185        0.034       54.649        4.698        0.007      345.733       23.475      864.184
06/29/2013  03:21:00      -58.098      -22.414       -8.092       19.547       13.801       12.003      382.078      190.455      144.063        0.233        0.036       62.272        7.548        0.015      345.406       22.913      864.180
06/29/2013  03:22:00      -51.604        1.466       -8.886       12.718       15.453        9.770      161.755      238.801       95.443        0.162        0.025       51.625        7.283        0.020      345.430       22.955      864.170
06/29/2013  03:23:00      -12.575       56.625       -4.389       21.725       29.471       10.522      471.972      868.524      110.721        0.242        0.073       58.005        8.857        0.023      345.816       23.614      864.154
06/29/2013  03:24:00      -10.925       72.290       -7.012       12.447       19.413       10.193      154.930      376.865      103.896        0.301        0.032       73.111        5.782        0.006      346.206       24.284      864.126
06/29/2013  03:25:00      -54.508       21.252      -11.538       15.787       22.467       10.335      249.223      504.751      106.816        0.221        0.043       58.505        2.775        0.002      345.843       23.665      864.109
06/29/2013  03:26:00     -100.323      -42.625       -9.022       23.680       27.088       13.349      560.731      733.761      178.187        0.672        0.074      109.003        9.470        0.008      345.311       22.751      864.108
06/29/2013  03:27:00      -56.753      -10.876       -7.812       28.732       17.593        9.364      825.543      309.516       87.691        0.231        0.061       57.786        6.743        0.014      345.463       23.011      864.101
06/29/2013  03:28:00       18.052       46.311       -1.636       17.050       16.322        9.820      290.703      266.405       96.429        0.156        0.033       49.705       10.626        0.046      345.986       23.909      864.082
06/29/2013  03:29:00        4.501       13.868        4.591       24.507       20.902        7.529      600.611      436.911       56.692        0.066        0.055       14.580        6.685        0.210      345.663       23.354      864.070
06/29/2013  03:30:00      -91.150      -23.069       -8.538       36.799       18.445       10.546     1354.196      340.232      111.208        0.536        0.090       94.024        6.485        0.005      345.258       22.659      864.076
06/29/2013  03:31:00      -92.470      -24.428       -4.437       31.833       21.487       18.381     1013.339      461.674      337.844        0.549        0.091       95.642       18.326        0.037      345.158       22.489      864.091
06/29/2013  03:32:00      -19.168        6.566      -11.061       28.821       17.295        6.328      830.659      299.116       40.041        0.085        0.058       20.262        6.841        0.114      345.281       22.700      864.077
06/29/2013  03:33:00       37.932       30.459        2.273       14.187       18.759       17.279      201.276      351.911      298.575        0.161        0.043       48.648       11.669        0.058      345.973       23.887      864.066
06/29/2013  03:34:00      -11.976        0.159       -1.880       22.960       18.123        7.233      527.140      328.449       52.309        0.053        0.045       11.977        3.491        0.085      345.880       23.727      864.086
06/29/2013  03:35:00      -92.062      -46.291       -9.121       23.875       14.531       11.692      570.039      211.147      136.691        0.581        0.046      103.045        9.859        0.009      345.310       22.749      864.111
06/29/2013  03:36:00      -76.834      -41.813       -7.259       16.588       19.136        8.834      275.155      366.176       78.034        0.421        0.036       87.475        7.064        0.007      345.287       22.709      864.108
06/29/2013  03:37:00      -31.474      -11.743       -0.958       12.155       10.583        5.903      147.739      112.009       34.849        0.071        0.015       33.593        7.981        0.056      345.318       22.761      864.095
06/29/2013  03:38:00      -20.730        5.996        2.185       12.657        4.409        5.544      160.192       19.437       30.739        0.034        0.011       21.580        3.860        0.032      345.297       22.727      864.086
06/29/2013  03:39:00      -59.741        9.985       -8.529        6.765        9.260        6.932       45.764       85.751       48.057        0.196        0.009       60.570        6.003        0.010      345.438       22.969      864.085
06/29/2013  03:40:00      -56.819        7.214       -9.201        9.076        5.694        5.054       82.374       32.426       25.542        0.175        0.007       57.275        1.126        0.000      345.437       22.966      864.087
06/29/2013  03:41:00      -18.087       49.109      -10.144       12.253       17.659        5.814      150.125      311.838       33.799        0.167        0.025       52.334        5.129        0.010      345.509       23.090      864.077
06/29/2013  03:42:00       -0.242       65.722       -9.122       10.868        9.685        7.240      118.105       93.808       52.417        0.233        0.013       65.723        3.647        0.003      345.681       23.385      864.068
06/29/2013  03:43:00      -13.736       84.272       -7.623       11.554       17.915       11.026      133.494      320.953      121.574        0.396        0.029       85.384       10.197        0.014      345.688       23.397      864.081
06/29/2013  03:44:00      -20.922       99.422       -6.149       11.481       12.760        7.894      131.812      162.822       62.315        0.536        0.018      101.599        4.313        0.002      345.725       23.461      864.082
06/29/2013  03:45:00      -22.770      103.554       -6.985       17.413       22.377       11.299      303.230      500.748      127.660        0.611        0.047      106.028        6.852        0.004      345.679       23.382      864.095
06/29/2013  03:46:00      -19.386       96.075       -9.566       16.200       18.244        9.672      262.441      332.830       93.548        0.519        0.034       98.011        6.003        0.004      345.685       23.392      864.101
06/29/2013  03:47:00       -8.190      105.406      -12.100       14.776       20.115        9.840      218.343      404.615       96.830        0.602        0.036      105.724        7.677        0.005      345.778       23.552      864.108
06/29/2013  03:48:00      -32.171       43.405       -2.804       23.895       50.436       11.041      570.971     2543.760      121.912        0.308        0.162       54.028       16.007        0.088      345.528       23.124      864.111
06/29/2013  03:49:00      -77.069      -29.130       -9.242       15.678        9.277        9.536      245.786       86.060       90.944        0.365        0.021       82.391        8.475        0.011      345.151       22.478      864.107
06/29/2013  03:50:00     -119.818      -16.326      -16.559       18.726       18.074       12.714      350.681      326.654      161.648        0.787        0.042      120.926       10.312        0.007      345.034       22.276      864.103
06/29/2013  03:51:00      -77.380       18.246      -16.464       23.124       12.273        8.456      534.710      150.625       71.500        0.367        0.038       79.502        6.433        0.007      345.341       22.801      864.112
06/29/2013  03:52:00       -9.210       44.630       -8.237       26.722       30.821        9.753      714.041      949.963       95.130        0.195        0.088       45.570       10.590        0.054      345.728       23.467      864.112
06/29/2013  03:53:00      -12.098       80.655      -11.069       19.148       24.598       10.859      366.660      605.041      117.912        0.393        0.054       81.557        7.972        0.010      345.727       23.464      864.108
06/29/2013  03:54:00      -62.969       13.494      -13.036       32.150       41.255        8.916     1033.629     1702.009       79.495        0.357        0.141       64.399       10.064        0.024      345.357       22.829      864.110
06/29/2013  03:55:00      -89.526      -27.138       -7.580       25.883       20.009       13.085      669.905      400.354      171.208        0.502        0.062       93.549       10.331        0.012      344.947       22.128      864.115
06/29/2013  03:56:00      -17.643       -5.938       -2.410       28.112       18.664       15.430      790.287      348.363      238.095        0.086        0.069       18.615       16.785        0.813      345.080       22.354      864.100
06/29/2013  03:57:00       48.682       43.951        3.781       17.153       21.525       13.640      294.217      463.322      186.048        0.263        0.047       65.586       11.913        0.033      345.876       23.719      864.066
06/29/2013  03:58:00       26.891       23.031       -0.936       15.764        9.416        8.038      248.505       88.658       64.602        0.083        0.020       35.406        7.649        0.047      345.670       23.367      864.056
06/29/2013  03:59:00        4.061       53.828       -5.578       12.989       19.041        7.979      168.715      362.574       63.660        0.177        0.030       53.981        7.849        0.021      346.001       23.935      864.074
06/29/2013  04:00:00      -28.804       45.742      -10.355       23.647       18.459        9.127      559.170      340.732       83.310        0.201        0.049       54.056       11.194        0.043      345.953       23.853      864.084
06/29/2013  04:01:00      -55.317       -8.962       -7.195        7.545       16.479        4.690       56.926      271.567       21.998        0.177        0.018       56.038        3.704        0.004      345.528       23.124      864.074
06/29/2013  04:02:00      -39.408      -40.514       -6.609       20.667       22.966       16.708      427.118      527.418      279.172        0.224        0.062       56.519       18.110        0.103      345.286       22.706      864.059
06/29/2013  04:03:00      -30.440      -39.383        2.976       32.823       26.079       19.735     1077.337      680.096      389.458        0.232        0.107       49.776       20.498        0.170      345.151       22.477      864.046
06/29/2013  04:04:00      -16.911      -58.471      -11.141       12.881       15.751       10.065      165.922      248.084      101.304        0.217        0.026       60.867        3.399        0.003      345.471       23.024      864.048
06/29/2013  04:05:00       -9.785      -24.032        3.579       10.304       10.490        6.766      106.183      110.031       45.782        0.047        0.013       25.947        4.468        0.030      345.487       23.052      864.037
06/29/2013  04:06:00      -19.322       -5.684        2.260       15.472       12.919       10.208      239.370      166.903      104.209        0.046        0.026       20.141        5.727        0.081      345.224       22.602      864.026
06/29/2013  04:07:00      -37.562        1.269       -5.260        8.459        8.227        5.767       71.560       67.683       33.262        0.081        0.009       37.584        5.637        0.022      345.271       22.681      864.018
06/29/2013  04:08:00        4.429       -6.493        5.514       16.299        9.907        8.231      265.668       98.147       67.745        0.026        0.022        7.860        7.136        0.824      345.526       23.118      864.013
06/29/2013  04:09:00       20.726       20.281       13.474       10.239       11.296        8.005      104.831      127.597       64.076        0.066        0.015       28.998        6.617        0.052      345.351       22.820      864.004
06/29/2013  04:10:00       -9.589        1.455        2.052       19.850       13.112       10.446      394.012      171.926      109.112        0.039        0.034        9.699       12.331        1.617      345.665       23.358      863.999
06/29/2013  04:11:00      -78.242      -13.682      -11.885       18.308       17.848       10.008      335.193      318.563      100.155        0.360        0.038       79.429        6.659        0.007      345.198       22.557      863.996
06/29/2013  04:12:00     -114.187      -35.512      -10.719       18.297       21.356       11.383      334.771      456.067      129.584        0.767        0.046      119.581        8.336        0.005      344.990       22.202      863.992
06/29/2013  04:13:00     -111.348      -28.549       -8.901       22.855       21.058       14.694      522.333      443.459      215.900        0.724        0.059      114.949       13.005        0.013      344.939       22.114      863.992
06/29/2013  04:14:00      -99.473      -45.286       -7.944       25.754       24.244       17.512      663.289      587.752      306.670        0.678        0.078      109.297       12.163        0.012      344.813       21.896      863.998
06/29/2013  04:15:00      -87.847      -48.638      -21.496       25.241       25.730       18.959      637.116      662.046      359.454        0.610        0.083      100.413       14.664        0.021      344.926       22.090      863.996
06/29/2013  04:16:00      -92.723      -40.423       -1.029       18.177       27.811       17.565      330.398      773.466      308.534        0.582        0.071      101.152       11.405        0.013      344.941       22.116      863.981
06/29/2013  04:17:00      -99.401      -46.250       -2.355       23.998       18.266       13.771      575.918      333.631      189.641        0.656        0.055      109.634       13.074        0.014      344.953       22.137      863.977
06/29/2013  04:18:00      -76.205      -41.319       -2.597       14.010       18.127       11.636      196.289      328.604      135.390        0.409        0.033       86.686       10.349        0.014      344.947       22.127      863.961
06/29/2013  04:19:00      -54.272      -32.533        3.895       26.694       19.929       14.566      712.593      397.180      212.155        0.267        0.066       63.276       13.748        0.047      344.972       22.172      863.951
06/29/2013  04:20:00      -44.773      -51.593        3.221       28.751       28.859       16.278      826.593      832.867      264.979        0.330        0.096       68.311       17.285        0.064      345.134       22.448      863.944
06/29/2013  04:21:00      -95.887      -55.411        1.201       49.847       30.196       22.409     2484.685      911.792      502.163        0.808        0.195      110.746       25.116        0.051      345.014       22.243      863.947
06/29/2013  04:22:00     -175.095      -71.448       -5.469       28.425       23.182       16.823      807.964      537.397      283.026        1.871        0.081      189.111       14.218        0.006      345.024       22.260      863.957
06/29/2013  04:23:00     -129.774      -48.114        7.978       44.159       27.360       22.226     1950.014      748.553      493.981        1.121        0.160      138.406       23.850        0.030      344.891       22.031      863.965
06/29/2013  04:24:00     -130.609      -55.698        3.888       47.092       34.907       19.872     2217.669     1218.504      394.888        1.200        0.192      141.990       18.807        0.018      344.904       22.055      863.974
06/29/2013  04:25:00     -157.567      -56.334       -0.962       35.307       29.923       16.849     1246.564      895.384      283.904        1.521        0.121      167.335       15.848        0.009      344.891       22.032      863.972
06/29/2013  04:26:00     -142.661      -41.844       -7.347       32.010       25.081       18.512     1024.611      629.052      342.687        1.208        0.100      148.671       17.476        0.014      344.810       21.891      863.971
06/29/2013  04:27:00     -145.745      -14.300       -9.089       37.202       22.099       19.074     1383.971      488.385      363.829        1.188        0.112      146.445       20.449        0.019      344.705       21.712      863.970
06/29/2013  04:28:00     -114.894      -17.963      -14.293       35.702       26.322       18.258     1274.648      692.834      333.349        0.801        0.115      116.290       17.963        0.024      344.691       21.690      863.960
06/29/2013  04:29:00      -93.281      -41.352       -2.566       29.832       28.895       17.979      889.954      834.942      323.228        0.623        0.102      102.035       14.756        0.021      344.762       21.813      863.940
06/29/2013  04:30:00      -29.756       -6.330        5.961       31.945       22.030       16.291     1020.496      485.321      265.390        0.137        0.089       30.422       11.931        0.154      344.744       21.780      863.933
06/29/2013  04:31:00      -46.394      -40.488        1.338       41.493       29.771       21.555     1721.705      886.299      464.611        0.343        0.154       61.576       17.034        0.077      344.734       21.763      863.944
06/29/2013  04:32:00      -56.983      -45.688        1.893       36.640       30.137       23.190     1342.475      908.235      537.778        0.406        0.139       73.038       25.639        0.123      344.800       21.874      863.944
06/29/2013  04:33:00      -69.874      -52.473        3.098       47.367       32.711       25.610     2243.667     1069.985      655.848        0.581        0.198       87.383       28.954        0.110      344.836       21.938      863.942
06/29/2013  04:34:00      -91.523      -69.383       -4.417       16.991       21.334       14.562      288.695      455.147      212.049        0.708        0.048      114.849        9.106        0.006      344.827       21.923      863.944
06/29/2013  04:35:00      -54.353      -33.866        0.572       25.904       17.295       12.069      671.032      299.123      145.661        0.261        0.056       64.040       14.547        0.052      344.859       21.977      863.952
06/29/2013  04:36:00      -43.226      -26.699        3.866       26.078       15.835       13.347      680.043      250.734      178.145        0.185        0.055       50.807       10.979        0.047      344.800       21.875      863.948
06/29/2013  04:37:00      -62.884      -34.280       -3.065       22.236        9.449       12.196      494.447       89.281      148.739        0.294        0.037       71.620       10.296        0.021      344.790       21.858      863.946
06/29/2013  04:38:00      -68.140      -39.079       -3.831       20.449       16.867       14.545      418.149      284.499      211.546        0.355        0.046       78.551       13.851        0.031      344.805       21.884      863.947
06/29/2013  04:39:00      -77.571      -32.502       -3.294       13.202       15.443       10.798      174.284      238.498      116.587        0.381        0.026       84.105        5.553        0.004      344.769       21.822      863.938
06/29/2013  04:40:00      -57.636      -33.083        6.127       28.902       22.132       18.130      835.340      489.844      328.701        0.305        0.083       66.456       20.016        0.091      344.755       21.798      863.935
06/29/2013  04:41:00      -65.793      -39.832        2.471       43.765       28.961       19.529     1915.398      838.713      381.395        0.453        0.157       76.911       22.740        0.087      344.771       21.825      863.947
06/29/2013  04:42:00     -110.289      -47.923       -4.053       23.417       18.998       15.133      548.365      360.906      229.016        0.781        0.057      120.251       16.211        0.018      344.790       21.858      863.942
06/29/2013  04:43:00      -96.994      -24.810       -6.516       26.158       19.305       16.128      684.226      372.691      260.097        0.569        0.066      100.116       15.407        0.024      344.679       21.668      863.930
06/29/2013  04:44:00      -86.262      -22.394        4.767       36.491       22.028       19.048     1331.585      485.225      362.832        0.507        0.109       89.122       18.093        0.041      344.520       21.398      863.932
06/29/2013  04:45:00      -99.078       -8.848       -1.612       39.841       27.252       18.637     1587.321      742.683      347.328        0.629        0.134       99.473       19.582        0.039      344.455       21.286      863.940
06/29/2013  04:46:00     -111.221        9.530       -2.025       28.209       27.901       18.100      795.746      778.449      327.610        0.718        0.095      111.629       15.056        0.018      344.512       21.384      863.946
06/29/2013  04:47:00      -63.548      -16.553       -1.959       39.657       27.707       15.846     1572.710      767.687      251.084        0.345        0.130       65.668       14.470        0.049      344.502       21.366      863.960
06/29/2013  04:48:00      -47.669        2.442       -6.339       35.691       27.122       10.474     1273.825      735.619      109.706        0.222        0.106       47.731       13.400        0.079      344.506       21.372      863.972
06/29/2013  04:49:00      -58.166       31.910       -4.533       23.589       20.982       14.505      556.455      440.246      210.401        0.281        0.060       66.344       14.610        0.048      344.527       21.409      863.988
06/29/2013  04:50:00      -90.109       32.920       -9.800       32.847       17.885       15.138     1078.925      319.886      229.147        0.546        0.081       95.934       12.678        0.017      344.601       21.537      864.005
06/29/2013  04:51:00      -58.493       27.668       -5.140       23.029       15.008       14.148      530.347      225.252      200.175        0.258        0.048       64.707        8.432        0.017      344.639       21.601      864.012
06/29/2013  04:52:00      -61.272       26.594       -5.286       20.345       16.957       10.274      413.923      287.548      105.549        0.265        0.040       66.794        6.334        0.009      344.776       21.835      864.013
06/29/2013  04:53:00      -64.564        7.181       -7.509       17.502       24.949       12.068      306.334      622.458      145.635        0.268        0.054       64.962       11.121        0.029      344.786       21.851      864.025
06/29/2013  04:54:00      -42.198       -3.121       -1.574       16.610       15.708        8.978      275.889      246.744       80.613        0.120        0.030       42.314        5.993        0.020      344.678       21.666      864.029
06/29/2013  04:55:00      -51.363        8.858       -3.074       14.533       14.823       11.018      211.214      219.719      121.406        0.164        0.028       52.121        8.471        0.026      344.656       21.630      864.038
06/29/2013  04:56:00      -50.907      -21.398       -3.578        9.212       10.211        9.720       84.859      104.259       94.478        0.167        0.014       55.221        6.176        0.013      344.544       21.441      864.034
06/29/2013  04:57:00      -60.578      -13.884       -4.008       16.080       12.087       11.047      258.551      146.106      122.042        0.220        0.026       62.149        8.834        0.020      344.648       21.616      864.051
06/29/2013  04:58:00      -48.072       -1.673       -0.965       14.392        9.765        8.719      207.139       95.362       76.029        0.135        0.019       48.101        4.506        0.009      344.711       21.724      864.079
06/29/2013  04:59:00      -44.325       32.049       -6.084       14.942       39.201       12.809      223.267     1536.688      164.072        0.248        0.096       54.698       16.185        0.088      344.788       21.853      864.089
06/29/2013  05:00:00      -28.134        8.900        1.335       14.760       34.459        9.014      217.865     1187.421       81.246        0.118        0.074       29.508        8.688        0.087      344.741       21.774      864.102
06/29/2013  05:01:00       -8.398      -39.881       -6.572       11.366       10.480        7.848      129.185      109.828       61.591        0.100        0.015       40.756        3.607        0.008      344.646       21.611      864.120
06/29/2013  05:02:00       -4.629      -41.843       -6.433       11.274        8.859        9.862      127.108       78.479       97.251        0.106        0.015       42.098        7.176        0.029      344.864       21.985      864.134
06/29/2013  05:03:00      -33.489      -25.782        0.375       12.316       11.854        7.508      151.681      140.520       56.376        0.107        0.017       42.264        5.996        0.020      344.591       21.519      864.139
06/29/2013  05:04:00      -21.460      -46.553       -6.569       10.418        4.077        4.762      108.527       16.622       22.679        0.141        0.007       51.261        5.425        0.011      344.650       21.619      864.136
06/29/2013  05:05:00       -8.865      -30.875       -2.823        7.015       11.629        7.893       49.209      135.238       62.301        0.064        0.012       32.123        5.886        0.034      344.777       21.836      864.136
06/29/2013  05:06:00      -22.921      -20.570       -1.446        8.719        6.392        4.747       76.018       40.860       22.535        0.054        0.007       30.798        3.750        0.015      344.663       21.640      864.146
06/29/2013  05:07:00      -26.088      -18.213       -1.392       10.154        7.934        6.816      103.110       62.955       46.457        0.061        0.011       31.817        7.088        0.050      344.681       21.672      864.156
06/29/2013  05:08:00      -31.584      -16.635       -7.599        7.125        5.397        4.207       50.765       29.128       17.697        0.071        0.005       35.696        1.700        0.002      344.744       21.781      864.153
06/29/2013  05:09:00      -28.524      -30.432       -8.076        5.819        9.361        4.630       33.864       87.632       21.434        0.097        0.007       41.710        2.773        0.004      344.774       21.830      864.161
06/29/2013  05:10:00      -20.916      -33.358       -1.744       13.938        9.822       11.375      194.271       96.474      129.383        0.099        0.021       39.373        5.120        0.017      344.717       21.733      864.152
06/29/2013  05:11:00       -1.998      -15.388       11.965       21.162       14.824       16.129      447.816      219.750      260.144        0.066        0.046       15.517       12.499        0.649      344.647       21.612      864.150
06/29/2013  05:12:00        7.931       -0.879       12.238        8.786        7.076        7.622       77.195       50.068       58.098        0.020        0.009        7.980        2.613        0.107      344.596       21.528      864.157
06/29/2013  05:13:00      -47.286       -8.946       -4.196       38.214       12.633        9.333     1460.336      159.602       87.110        0.202        0.085       48.125       11.560        0.058      344.565       21.472      864.163
06/29/2013  05:14:00     -122.206       10.749       -4.501       64.605       42.018       30.542     4173.760     1765.545      932.837        1.097        0.344      122.678       30.198        0.061      344.202       20.854      864.185
06/29/2013  05:15:00     -101.404       34.538      -10.429       52.579       33.417       27.987     2764.550     1116.694      783.248        0.812        0.233      107.125       25.703        0.058      344.134       20.737      864.189
06/29/2013  05:16:00      -71.374       32.516       -6.198       29.062       21.532       14.832      844.584      463.642      219.991        0.386        0.076       78.432        7.766        0.010      344.317       21.050      864.185
06/29/2013  05:17:00      -45.622       31.900       -5.535       30.130       22.911       16.852      907.800      524.896      284.000        0.242        0.086       55.669       12.523        0.051      344.326       21.066      864.203
06/29/2013  05:18:00      -10.742        7.151       -0.676       15.138       17.863        9.387      229.163      319.073       88.124        0.040        0.032       12.905        7.487        0.337      344.359       21.120      864.197
06/29/2013  05:19:00      -36.896       -5.981       -3.870       20.859       13.451        6.992      435.104      180.933       48.891        0.104        0.033       37.378        9.174        0.060      344.410       21.208      864.193
06/29/2013  05:20:00      -46.749      -27.616       -5.440       14.535       11.641        7.575      211.275      135.503       57.386        0.169        0.020       54.296        4.679        0.007      344.312       21.041      864.195
06/29/2013  05:21:00      -21.327       -9.053       -0.137       10.740        9.307        8.043      115.356       86.626       64.693        0.040        0.013       23.169        5.611        0.059      344.387       21.172      864.197
06/29/2013  05:22:00      -29.784       -7.260       -3.427        8.669       15.755        8.870       75.147      248.228       78.671        0.068        0.020       30.656        8.557        0.078      344.521       21.399      864.207
06/29/2013  05:23:00      -86.298      -49.567      -15.522       15.491       10.653        9.530      239.962      113.489       90.813        0.529        0.022       99.520        7.315        0.005      344.334       21.079      864.208
06/29/2013  05:24:00      -91.776      -55.718       -6.325       28.199       19.523       18.330      795.166      381.161      335.971        0.654        0.076      107.366       11.205        0.011      344.296       21.015      864.214
06/29/2013  05:25:00      -46.940      -40.987        3.538       26.182       24.695       19.052      685.474      609.864      362.979        0.278        0.083       62.316        9.989        0.026      344.218       20.881      864.221
06/29/2013  05:26:00      -67.060      -46.082        2.681       27.225       20.807       15.212      741.193      432.943      231.395        0.402        0.070       81.367       13.030        0.026      344.342       21.092      864.235
06/29/2013  05:27:00      -46.547      -33.986        4.669       37.053       27.779       19.873     1372.961      771.677      394.922        0.294        0.127       57.633       18.290        0.101      344.338       21.086      864.251
06/29/2013  05:28:00      -65.817      -57.650       -1.032       32.217       29.748       18.251     1037.967      884.973      333.099        0.496        0.113       87.495       12.901        0.022      344.481       21.329      864.248
06/29/2013  05:29:00      -47.457      -56.094        5.901       29.459       23.748       14.305      867.854      563.951      204.642        0.353        0.082       73.476       12.136        0.027      344.495       21.355      864.243
06/29/2013  05:30:00      -58.273      -30.329        9.952       33.022       25.157       18.567     1090.472      632.853      344.721        0.324        0.103       65.693       16.972        0.067      344.461       21.296      864.246
06/29/2013  05:31:00      -81.367      -54.761       -0.966       39.130       30.778       19.167     1531.195      947.262      367.383        0.623        0.142       98.078       10.981        0.013      344.671       21.655      864.262
06/29/2013  05:32:00     -113.983      -35.656       -8.548       26.921       23.830       13.576      724.743      567.890      184.312        0.791        0.074      119.430       11.999        0.010      344.663       21.641      864.275
06/29/2013  05:33:00     -127.667      -51.733       -6.203       21.200       19.051       11.091      449.433      362.929      123.016        0.997        0.047      137.750        7.252        0.003      344.744       21.780      864.273
06/29/2013  05:34:00     -105.667      -23.337      -13.600       21.845       33.743       15.325      477.185     1138.568      234.870        0.687        0.093      108.213       13.178        0.015      344.610       21.550      864.271
06/29/2013  05:35:00     -103.813      -17.735      -17.134       12.635       17.842        9.723      159.637      318.336       94.543        0.598        0.029      105.317        5.358        0.003      344.689       21.687      864.280
06/29/2013  05:36:00     -129.108      -51.762      -14.021       21.575       28.282       13.922      465.471      799.877      193.810        1.050        0.073      139.098        9.690        0.005      344.660       21.636      864.292
06/29/2013  05:37:00     -121.165      -35.370       -5.710       30.572       24.580       17.782      934.629      604.185      316.214        0.891        0.093      126.221       13.053        0.011      344.623       21.574      864.292
06/29/2013  05:38:00     -134.330      -45.022       -6.104       28.669       29.751       17.591      821.916      885.123      309.452        1.106        0.101      141.674       14.284        0.010      344.751       21.792      864.297
06/29/2013  05:39:00     -100.962      -20.608       -1.601       32.736       29.638       17.757     1071.642      878.397      315.305        0.644        0.113      103.043       13.468        0.017      344.742       21.778      864.309
06/29/2013  05:40:00     -149.815       31.988      -15.572       30.431       29.054       15.506      926.023      844.107      240.438        1.286        0.101      153.192       11.066        0.005      344.843       21.950      864.314
06/29/2013  05:41:00     -109.732       31.559      -10.451       28.752       23.082       12.539      826.690      532.799      157.229        0.733        0.076      114.180        5.005        0.002      345.066       22.331      864.306
06/29/2013  05:42:00     -104.505       23.700       -6.933       26.016       22.169       15.502      676.840      491.469      240.326        0.647        0.070      107.159       12.302        0.013      344.956       22.142      864.300
06/29/2013  05:43:00      -79.466       36.865      -16.480       35.403       34.119       19.553     1253.362     1164.092      382.322        0.537        0.140       87.601       21.562        0.061      344.869       21.995      864.315
06/29/2013  05:44:00      -55.765       11.562       -3.012       27.261       17.428       15.512      743.152      303.750      240.632        0.227        0.064       56.951       14.062        0.061      344.964       22.156      864.318
06/29/2013  05:45:00      -50.826       35.367       -6.206       25.511       32.688       14.672      650.809     1068.501      215.277        0.290        0.097       61.920       15.442        0.062      345.025       22.262      864.318
06/29/2013  05:46:00      -14.370       67.170       -4.118       34.939       24.589       14.124     1220.708      604.639      199.485        0.338        0.101       68.690        9.833        0.020      345.083       22.359      864.313
06/29/2013  05:47:00        2.640        7.318        7.847       17.495       22.944        8.468      306.080      526.448       71.701        0.051        0.045        7.780        9.823        1.594      344.950       22.133      864.306
06/29/2013  05:48:00      -52.278      -14.865       -5.045       32.584       18.101        8.785     1061.693      327.643       77.169        0.222        0.073       54.351        8.356        0.024      344.653       21.622      864.304
06/29/2013  05:49:00      -66.562      -36.069       -0.043       29.727       18.860       12.590      883.700      355.701      158.511        0.356        0.070       75.706       13.563        0.032      344.462       21.299      864.302
06/29/2013  05:50:00      -62.588      -32.839        1.013       24.655       19.716       14.374      607.878      388.738      206.615        0.310        0.060       70.680       13.259        0.035      344.515       21.389      864.297
06/29/2013  05:51:00      -63.881      -32.983       -6.630       12.185       10.381        6.068      148.466      107.755       36.816        0.275        0.015       71.894        4.427        0.004      344.630       21.585      864.290
06/29/2013  05:52:00      -64.219      -23.001       -8.635       18.232       17.641       14.502      332.403      311.198      210.302        0.279        0.043       68.214       15.771        0.053      344.641       21.603      864.290
06/29/2013  05:53:00      -31.830      -11.534       -9.455       12.593        8.975        7.719      158.584       80.551       59.587        0.077        0.015       33.855        7.905        0.055      344.708       21.717      864.297
06/29/2013  05:54:00      -31.762       -5.971        0.087       24.031       20.185       10.790      577.495      407.418      116.425        0.107        0.055       32.318       11.510        0.127      344.886       22.024      864.308
06/29/2013  05:55:00      -94.944      -42.056       -9.141       18.925       15.036        9.196      358.140      226.075       84.570        0.577        0.033      103.841        7.636        0.005      344.479       21.327      864.325
06/29/2013  05:56:00      -35.996      -62.592        0.373       27.500       33.939       16.240      756.241     1151.846      263.722        0.369        0.109       72.204       15.282        0.045      344.411       21.210      864.336
06/29/2013  05:57:00      -81.986      -76.050       -8.600       22.861       16.640       14.422      522.647      276.897      208.007        0.679        0.050      111.827       11.888        0.011      344.569       21.481      864.344
06/29/2013  05:58:00      -56.420      -36.808       -0.830       14.800       15.228        9.395      219.041      231.893       88.265        0.254        0.027       67.365        3.600        0.003      344.636       21.596      864.347
06/29/2013  05:59:00      -35.939      -14.790       -2.768       15.395        7.856        5.084      236.999       61.721       25.843        0.092        0.016       38.863        6.762        0.030      344.813       21.901      864.337
06/29/2013  06:00:00      -36.937      -31.042        5.545       51.195       28.191       29.618     2620.910      794.731      877.237        0.332        0.215       48.249       29.286        0.368      344.588       21.514      864.344
06/29/2013  06:01:00      -25.780      -45.082        8.801       31.196       37.635       24.404      973.164     1416.377      595.545        0.288        0.149       51.933       19.671        0.143      344.543       21.436      864.335
06/29/2013  06:02:00      -57.569      -64.671       -6.950       14.342       17.219        9.747      205.680      296.481       95.008        0.407        0.030       86.583        6.305        0.005      345.044       22.294      864.318
06/29/2013  06:03:00      -78.189      -51.219        0.368       58.150       37.475       24.638     3381.470     1404.396      607.045        0.706        0.270       93.471       20.509        0.048      344.737       21.768      864.317
06/29/2013  06:04:00     -101.333      -66.971        1.511       47.961       29.304       24.382     2300.270      858.745      594.483        0.925        0.188      121.464       23.802        0.038      344.507       21.375      864.315
06/29/2013  06:05:00      -23.425      -45.387        7.590       19.484       23.022        9.658      379.611      529.997       93.278        0.183        0.050       51.076        7.367        0.021      344.751       21.791      864.299
06/29/2013  06:06:00      -12.132      -10.890        1.050       18.129        9.910        6.727      328.644       98.213       45.249        0.037        0.024       16.302        7.305        0.201      344.863       21.984      864.293
06/29/2013  06:07:00      -67.390      -27.537       -5.250       14.599       14.703        7.999      213.128      216.175       63.977        0.291        0.025       72.799        4.260        0.003      344.563       21.470      864.297
06/29/2013  06:08:00      -48.174      -19.638       -5.159       11.524        8.919        6.681      132.810       79.553       44.639        0.149        0.013       52.023        5.227        0.010      344.499       21.362      864.308
06/29/2013  06:09:00      -27.414      -10.667       -3.002       15.542       10.988        6.395      241.546      120.729       40.898        0.064        0.020       29.416        8.505        0.084      344.501       21.363      864.305
06/29/2013  06:10:00       -3.377       -7.743       -0.926        7.167        6.441        4.490       51.369       41.482       20.156        0.009        0.006        8.448        4.488        0.282      344.672       21.656      864.298
06/29/2013  06:11:00       45.279       37.308        6.885       16.180       15.969       15.437      261.777      255.001      238.315        0.212        0.038       58.669       10.790        0.034      344.629       21.584      864.285
06/29/2013  06:12:00       -5.783       30.032      -17.415       23.762       22.595       13.099      564.656      510.533      171.590        0.124        0.062       30.584       12.500        0.167      344.693       21.691      864.285
06/29/2013  06:13:00      -36.932       34.934       -9.915       21.635       22.516        7.727      468.054      506.982       59.711        0.186        0.052       50.837       10.600        0.043      344.559       21.463      864.295
06/29/2013  06:14:00      -71.447       39.576       -8.816       17.873       22.323       10.097      319.439      498.299      101.958        0.383        0.046       81.676        9.628        0.014      344.197       20.846      864.302
06/29/2013  06:15:00      -20.028      -19.528       -6.148       14.761       20.198       14.630      217.881      407.957      214.034        0.083        0.042       27.973        9.355        0.112      344.154       20.772      864.300
06/29/2013  06:16:00      -40.476      -24.641       -6.049       16.062       11.268        8.887      257.972      126.978       78.986        0.137        0.023       47.386        8.770        0.034      344.350       21.107      864.296
06/29/2013  06:17:00      -42.293       -1.771       -4.415       10.896        5.713        6.334      118.723       32.639       40.123        0.100        0.010       42.330        6.378        0.023      344.668       21.650      864.290
06/29/2013  06:18:00      -42.238       -0.659       -3.435        5.169        4.654        4.609       26.715       21.655       21.241        0.093        0.003       42.244        2.005        0.002      344.665       21.647      864.290
06/29/2013  06:19:00      -31.433        3.060       -2.521        8.121        7.644        4.082       65.957       58.434       16.667        0.057        0.007       31.581        3.914        0.015      344.625       21.578      864.303
06/29/2013  06:20:00      -20.351        4.863       -2.755        8.412        9.079        5.666       70.755       82.426       32.107        0.032        0.009       20.924        6.260        0.090      344.737       21.769      864.315
06/29/2013  06:21:00       -6.327        3.337        5.346        6.759        6.253        5.810       45.687       39.095       33.757        0.010        0.006        7.153        2.074        0.084      344.766       21.819      864.325
06/29/2013  06:22:00      -15.746      -15.802       -2.729       21.374       15.631        8.403      456.854      244.337       70.607        0.064        0.039       22.308        8.727        0.153      344.775       21.832      864.329
06/29/2013  06:23:00      -32.532      -31.008       -4.973       16.421       13.430       10.149      269.639      180.353      103.002        0.130        0.028       44.942        6.551        0.021      344.296       21.015      864.337
06/29/2013  06:24:00      -23.791      -39.113      -10.451       14.220       13.415        7.931      202.202      179.952       62.904        0.132        0.022       45.780        5.240        0.013      344.435       21.251      864.336
06/29/2013  06:25:00       18.656      -18.649       23.234       31.334       25.542       18.141      981.841      652.405      329.111        0.160        0.098       26.379       15.469        0.344      344.803       21.880      864.336
06/29/2013  06:26:00       11.904      -38.417       12.830       22.737       25.460       18.220      516.978      648.235      331.964        0.164        0.075       40.219       13.581        0.114      344.788       21.857      864.344
06/29/2013  06:27:00      -18.914      -58.850        2.876       17.299       23.154       16.766      299.260      536.126      281.096        0.247        0.056       61.814        7.214        0.014      344.720       21.739      864.347
06/29/2013  06:28:00      -19.408      -72.233        8.252       20.915       24.892       15.780      437.453      619.610      248.996        0.348        0.065       74.795       10.885        0.021      344.812       21.896      864.350
06/29/2013  06:29:00      -27.631      -65.772        1.592       31.100       30.895       20.563      967.233      954.513      422.834        0.372        0.117       71.340       18.731        0.069      344.868       21.994      864.349
06/29/2013  06:30:00      -29.513      -73.214       -0.083       19.969       32.802       20.924      398.761     1075.968      437.828        0.407        0.096       78.939       18.178        0.053      344.936       22.108      864.354
06/29/2013  06:31:00      -16.583      -66.916       -3.741       37.329       33.735       20.979     1393.449     1138.042      440.115        0.387        0.149       68.941       18.495        0.072      345.078       22.353      864.366
06/29/2013  06:32:00        8.574      -43.699        3.080       21.070       24.354       23.558      443.962      593.104      554.967        0.179        0.080       44.533       21.164        0.226      345.030       22.269      864.371
06/29/2013  06:33:00       12.588      -37.497      -11.223       15.128       20.304       10.399      228.865      412.266      108.136        0.122        0.037       39.554        4.977        0.016      344.876       22.006      864.383
06/29/2013  06:34:00      -39.235      -10.390       -3.527       18.146       21.521       12.996      329.277      463.159      168.887        0.131        0.048       40.588       12.093        0.089      344.386       21.167      864.401
06/29/2013  06:35:00      -59.839        8.683       -8.636       15.489       16.118        8.460      239.921      259.778       71.570        0.215        0.029       60.466        6.118        0.010      344.200       20.851      864.411
06/29/2013  06:36:00      -54.630       24.695       -6.765       21.236       19.613       14.443      450.953      384.682      208.610        0.234        0.052       59.952       12.543        0.044      344.125       20.722      864.426
06/29/2013  06:37:00      -69.304       24.665      -10.849       24.794       29.999       14.523      614.735      899.937      210.906        0.363        0.086       73.562       14.384        0.038      344.099       20.679      864.428
06/29/2013  06:38:00      -34.491        2.110      -14.474       16.793       27.637       13.808      281.992      763.790      190.668        0.132        0.062       34.556       13.000        0.142      344.158       20.779      864.433
06/29/2013  06:39:00      -22.530       -9.918        0.447        8.801       12.311        7.860       77.456      151.554       61.780        0.045        0.015       24.616        7.975        0.105      344.211       20.866      864.429
06/29/2013  06:40:00      -23.139       -4.431       -6.572        9.959        7.990        4.487       99.190       63.846       20.134        0.039        0.009       23.559        4.382        0.035      344.343       21.094      864.436
06/29/2013  06:41:00      -46.760      -16.155       -3.471       12.641       11.593        8.385      159.785      134.405       70.311        0.141        0.018       49.472        7.125        0.021      344.189       20.831      864.436
06/29/2013  06:42:00      -97.063      -23.955       -7.443       21.369       10.202        9.458      456.613      104.075       89.454        0.535        0.033       99.975        4.330        0.002      344.075       20.637      864.433
06/29/2013  06:43:00      -89.238      -28.088       -3.722       24.099       15.691       12.023      580.755      246.203      144.552        0.487        0.049       93.554        6.860        0.005      344.066       20.620      864.433
06/29/2013  06:44:00      -76.076      -22.882       -3.391       14.908       13.848        9.242      222.244      191.773       85.412        0.341        0.025       79.442        5.502        0.005      344.105       20.687      864.434
06/29/2013  06:45:00      -55.527      -12.945       -1.280       24.542       11.954        9.524      602.321      142.899       90.715        0.204        0.042       57.016       10.429        0.033      344.166       20.793      864.413
06/29/2013  06:46:00      -62.809      -33.362       -2.760       16.352       13.453        7.013      267.384      180.972       49.184        0.278        0.025       71.119        6.535        0.008      344.297       21.019      864.403
06/29/2013  06:47:00      -37.965      -36.845       -4.466       23.939       16.830       10.114      573.079      283.261      102.292        0.189        0.048       52.905       10.963        0.043      344.317       21.047      864.403
06/29/2013  06:48:00      -30.548      -63.056        4.180       44.452       35.838       23.560     1976.022     1284.383      555.072        0.437        0.191       70.067       22.737        0.105      344.289       21.002      864.402
06/29/2013  06:49:00      -73.435      -68.091       -5.609       30.723       45.248       23.963      943.894     2047.339      574.230        0.681        0.178      100.145       25.277        0.064      344.322       21.057      864.404
06/29/2013  06:50:00      -63.875      -15.789       -1.353       34.434       29.902       16.171     1185.724      894.122      261.487        0.334        0.117       65.797       13.246        0.041      344.359       21.122      864.410
06/29/2013  06:51:00      -90.658       -8.048       -7.516       26.907       18.075       16.024      723.995      326.714      256.754        0.482        0.065       91.014       15.843        0.030      344.240       20.918      864.399
06/29/2013  06:52:00      -82.090       -3.571       -6.469       36.729       26.473       19.374     1348.995      700.820      375.371        0.461        0.121       82.168       18.382        0.050      344.194       20.840      864.403
06/29/2013  06:53:00     -117.002      -31.844       -9.882       35.053       36.224       15.556     1228.746     1312.168      241.975        0.879        0.139      121.258       11.265        0.009      344.202       20.854      864.408
06/29/2013  06:54:00     -154.109      -44.597       -5.288       34.626       30.083       19.369     1198.930      904.982      375.163        1.412        0.124      160.432       17.463        0.012      344.168       20.795      864.409
06/29/2013  06:55:00     -135.259      -55.649       -7.960       32.332       33.199       20.723     1045.333     1102.183      429.444        1.202        0.129      146.260       12.659        0.007      344.292       21.008      864.417
06/29/2013  06:56:00     -129.338      -62.243       -4.719       47.488       48.838       27.080     2255.086     2385.114      733.348        1.300        0.269      143.536       32.711        0.052      344.456       21.288      864.413
06/29/2013  06:57:00     -126.080      -51.605        0.328       39.204       35.711       16.371     1536.922     1275.267      268.025        1.082        0.154      136.232       15.424        0.013      344.419       21.223      864.399
06/29/2013  06:58:00      -91.499       16.713       -2.322       38.447       25.928       18.085     1478.193      672.265      327.080        0.557        0.124       93.013       17.274        0.034      344.481       21.331      864.388
06/29/2013  06:59:00      -69.033      -11.294       -2.189       30.586       20.094       14.885      935.491      403.761      221.562        0.323        0.078       69.950       14.905        0.045      344.504       21.370      864.391
06/29/2013  07:00:00      -62.022      -16.400        5.695       25.943       23.106       13.900      673.022      533.908      193.199        0.277        0.070       64.154       13.789        0.046      344.550       21.448      864.385
06/29/2013  07:01:00      -53.404       -7.536        1.399       26.917       30.380       15.683      724.544      922.921      245.953        0.240        0.095       53.933       12.248        0.052      344.638       21.601      864.391
06/29/2013  07:02:00      -52.795       -0.648       -1.294       23.671       17.102       12.625      560.295      292.462      159.397        0.190        0.051       52.799       12.572        0.057      344.629       21.583      864.406
06/29/2013  07:03:00      -15.433       -2.987        3.985        8.321       16.138       11.227       69.239      260.428      126.052        0.036        0.023       15.720       10.861        0.477      344.780       21.843      864.411
06/29/2013  07:04:00      -14.642      -21.582        1.790       15.375       10.846       13.392      236.403      117.626      179.355        0.061        0.027       26.080       11.556        0.196      344.825       21.919      864.424
06/29/2013  07:05:00       -8.231      -16.043       -9.579       14.087       19.590       10.484      198.433      383.785      109.923        0.055        0.035       18.032       10.917        0.367      344.920       22.081      864.420
06/29/2013  07:06:00       -5.164        5.904      -18.747       22.414       35.468       14.297      502.392     1258.008      204.391        0.119        0.098        7.843       12.848        2.683      344.937       22.110      864.395
06/29/2013  07:07:00       -6.200       23.720       12.865       10.380       29.931       16.444      107.738      895.888      270.415        0.102        0.064       24.517       14.609        0.355      345.420       22.937      864.374
06/29/2013  07:08:00      -34.517       84.856       -8.807       20.188       22.103       11.699      407.559      488.537      136.860        0.475        0.052       91.608        9.978        0.012      345.130       22.442      864.354
06/29/2013  07:09:00      -64.828       51.393      -10.019       19.371       26.267       16.097      375.249      689.949      259.105        0.413        0.066       82.728       12.142        0.022      345.048       22.301      864.347
06/29/2013  07:10:00      -48.984      -12.921        1.496       19.781       28.048       12.964      391.290      786.691      168.063        0.196        0.067       50.659        9.559        0.036      344.988       22.198      864.359
06/29/2013  07:11:00      -28.186       -9.368       18.384       27.501       16.184       19.399      756.283      261.912      376.313        0.131        0.070       29.702       22.018        0.550      345.411       22.926      864.361
06/29/2013  07:12:00      -21.524        3.864       11.629       21.291       19.752       17.887      453.310      390.161      319.928        0.089        0.058       21.868       15.326        0.491      345.150       22.475      864.382
06/29/2013  07:13:00      -59.983       -0.265        3.182       23.095       19.553       16.861      533.367      382.321      284.293        0.240        0.060       59.984       15.989        0.071      345.038       22.282      864.386
06/29/2013  07:14:00      -52.852      -21.625        5.802       35.287       20.577       16.866     1245.161      423.405      284.474        0.262        0.098       57.105       20.414        0.128      345.166       22.503      864.391
06/29/2013  07:15:00      -85.234      -10.526       -6.009       28.304       17.369        7.833      801.118      301.670       61.356        0.429        0.058       85.882        9.330        0.012      345.161       22.494      864.388
06/29/2013  07:16:00      -31.461       -2.386       -0.373       17.593       21.251        9.453      309.520      451.613       89.368        0.092        0.043       31.552        8.679        0.076      345.249       22.645      864.396
06/29/2013  07:17:00      -54.463        8.248       -3.814       16.157       17.040        9.241      261.044      290.376       85.401        0.184        0.032       55.084        4.768        0.007      345.099       22.389      864.398
06/29/2013  07:18:00      -34.557        2.433        2.207       21.356       17.335       14.738      456.092      300.488      217.206        0.109        0.049       34.643       15.013        0.188      345.312       22.753      864.389
06/29/2013  07:19:00      -36.799      -12.525        4.671       14.978       11.357       13.515      224.353      128.984      182.657        0.103        0.027       38.872        8.524        0.048      345.361       22.836      864.375
06/29/2013  07:20:00       -5.878       -5.624       11.861       13.740       11.426       12.907      188.792      130.542      166.594        0.035        0.024        8.135        5.122        0.396      345.701       23.419      864.357
06/29/2013  07:21:00        6.824       10.180       21.559       11.680       11.158        9.269      136.413      124.501       85.906        0.048        0.017       12.256        5.772        0.222      345.810       23.607      864.353
06/29/2013  07:22:00       -0.753       -3.428        9.945       11.562        9.370       11.527      133.683       87.799      132.871        0.023        0.018        3.510        7.357        4.394      345.653       23.337      864.362
06/29/2013  07:23:00       -3.119       -9.842       13.487       11.007       11.856       12.459      121.164      140.558      155.218        0.035        0.021       10.325        9.154        0.786      345.737       23.481      864.375
06/29/2013  07:24:00       17.286       -1.885       16.271       24.106       11.028       18.560      581.085      121.615      344.467        0.081        0.052       17.388       14.762        0.721      345.773       23.544      864.393
06/29/2013  07:25:00       19.693       -0.829       25.920       22.214       25.229       19.374      493.463      636.481      375.339        0.128        0.075       19.711        8.103        0.169      345.427       22.950      864.387
06/29/2013  07:26:00       21.044       -2.692       -3.597       27.872       30.199       20.779      776.871      911.953      431.754        0.129        0.106       21.215        8.692        0.168      345.019       22.250      864.380
06/29/2013  07:27:00       18.168        5.954        4.807       15.699       15.813       15.805      246.447      250.066      249.788        0.057        0.037       19.118       11.224        0.345      345.441       22.974      864.384
06/29/2013  07:28:00       30.157       20.317       11.215       35.710       14.523       15.558     1275.199      210.907      242.053        0.159        0.086       36.362       11.656        0.103      345.353       22.822      864.405
06/29/2013  07:29:00      -22.344       17.911        3.850        7.250        8.987        8.661       52.562       80.764       75.020        0.052        0.010       28.637        1.320        0.002      345.241       22.630      864.416
06/29/2013  07:30:00       -8.461       38.274        6.392       14.335       22.396       13.831      205.485      501.570      191.309        0.124        0.045       39.198       12.738        0.106      345.495       23.067      864.430
06/29/2013  07:31:00      -50.984       -7.557       -4.607       16.811       20.826        7.192      282.617      433.711       51.720        0.172        0.038       51.541        4.115        0.006      345.241       22.631      864.447
06/29/2013  07:32:00      -53.310      -13.254       -4.524       17.061       14.283       10.412      291.074      203.999      108.408        0.182        0.030       54.933        5.519        0.010      345.271       22.683      864.447
06/29/2013  07:33:00      -74.525      -32.169       -7.812       16.477       22.411       12.683      271.491      502.235      160.867        0.379        0.047       81.171        6.470        0.006      345.233       22.617      864.450
06/29/2013  07:34:00      -86.384      -54.091       -0.227       21.095       20.595       15.025      444.991      424.165      225.758        0.574        0.055      101.921        8.783        0.007      345.232       22.612      864.447
06/29/2013  07:35:00      -67.821      -30.913       -0.552       37.306       25.634       15.437     1391.760      657.093      238.295        0.392        0.114       74.534       17.433        0.055      345.262       22.666      864.448
06/29/2013  07:36:00      -68.217      -16.311       -0.324       25.527       15.175       12.443      651.609      230.289      154.824        0.298        0.052       70.140        8.080        0.013      345.310       22.748      864.449
06/29/2013  07:37:00      -55.639        2.529       -4.533       21.257       24.292       13.285      451.842      590.102      176.480        0.217        0.061       55.696        6.931        0.015      345.286       22.707      864.458
06/29/2013  07:38:00      -36.404       -4.899       -8.385       16.139       17.661        9.432      260.483      311.900       88.962        0.104        0.033       36.732        7.466        0.041      345.280       22.695      864.459
06/29/2013  07:39:00       -0.731      -32.619        4.061        7.213       22.113        9.727       52.032      488.964       94.615        0.086        0.032       32.627        6.035        0.034      345.393       22.891      864.455
06/29/2013  07:40:00      -30.761      -98.563        1.536        8.990       10.082        7.667       80.815      101.638       58.778        0.545        0.012      103.251        3.490        0.001      345.447       22.983      864.456
06/29/2013  07:41:00      -41.680      -89.409       -2.273       19.946       18.429       12.020      397.848      339.618      144.476        0.531        0.044       98.647       10.270        0.011      345.349       22.815      864.452
06/29/2013  07:42:00      -47.200      -96.957        3.584       17.327       14.272       14.337      300.213      203.703      205.552        0.618        0.035      107.835       11.426        0.011      345.464       23.013      864.449
06/29/2013  07:43:00      -18.378      -23.256        8.917       25.957       27.722       17.682      673.781      768.531      312.645        0.136        0.088       29.641       11.392        0.148      345.693       23.406      864.436
06/29/2013  07:44:00      -28.053      -42.414       28.969       20.694       33.022       21.309      428.255     1090.434      454.093        0.270        0.099       50.852       14.541        0.082      345.633       23.303      864.438
06/29/2013  07:45:00       -9.766      -26.049       19.977       20.221       31.573       22.345      408.904      996.865      499.319        0.154        0.095       27.819       18.422        0.439      345.764       23.527      864.446
06/29/2013  07:46:00       -8.935        5.490       22.020       22.418       25.445       18.543      502.547      647.459      343.848        0.104        0.075       10.486        7.910        0.569      345.755       23.512      864.449
06/29/2013  07:47:00       61.079      -35.346        8.805       35.357       30.197       34.178     1250.146      911.847     1168.159        0.419        0.167       70.569       28.040        0.158      345.638       23.313      864.463
06/29/2013  07:48:00        8.899      -18.872       18.583       22.656       25.143       17.692      513.286      632.195      313.003        0.112        0.073       20.864       15.508        0.552      345.827       23.637      864.479
06/29/2013  07:49:00       12.331       12.925       26.469       22.573       18.224       17.907      509.559      332.109      320.659        0.109        0.058       17.864       10.630        0.354      345.918       23.792      864.487
06/29/2013  07:50:00       14.401       11.599       19.999       16.016       18.234       15.503      256.526      332.478      240.351        0.079        0.041       18.491       13.997        0.573      345.963       23.869      864.497
06/29/2013  07:51:00       -7.903       -0.618       16.840       18.526       11.594        9.950      343.202      134.430       99.001        0.046        0.029        7.927        6.053        0.583      345.974       23.888      864.488
06/29/2013  07:52:00      -25.501       -4.195        4.559       12.921       14.254        8.886      166.942      203.176       78.963        0.057        0.022       25.844        3.210        0.015      345.599       23.244      864.482
06/29/2013  07:53:00      -36.687      -11.022       -6.036       14.505       12.091       12.971      210.386      146.204      168.237        0.101        0.026       38.307        8.634        0.051      345.525       23.118      864.470
06/29/2013  07:54:00      -55.661      -17.425       -4.246        9.286        8.623        5.532       86.228       74.356       30.600        0.181        0.010       58.325        3.279        0.003      345.485       23.051      864.463
06/29/2013  07:55:00      -48.945       -8.827       -7.368       15.149       11.760        8.146      229.478      138.287       66.351        0.148        0.022       49.735        7.023        0.020      345.583       23.215      864.461
06/29/2013  07:56:00      -39.386      -10.345        1.513       22.190       22.673       11.017      492.416      514.062      121.385        0.139        0.056       40.721       10.272        0.064      345.708       23.431      864.464
06/29/2013  07:57:00      -29.846      -26.522        8.975       25.751       27.434       16.639      663.102      752.597      276.863        0.168        0.085       39.927       18.122        0.206      346.008       23.947      864.446
06/29/2013  07:58:00      -56.265      -52.914        2.956       42.017       34.125       21.546     1765.432     1164.503      464.241        0.468        0.170       77.238       27.029        0.122      345.866       23.702      864.452
06/29/2013  07:59:00      -13.606       -6.800       12.940       17.758       17.704       16.783      315.343      313.429      281.667        0.065        0.046       15.210       13.594        0.799      346.458       24.720      864.456
06/29/2013  08:00:00      -14.519      -14.357       14.305       20.427       21.320       20.348      417.271      454.562      414.043        0.095        0.064       20.419       17.272        0.716      346.574       24.921      864.452
06/29/2013  08:01:00      -10.588       -4.100       13.434       11.921        9.936       14.623      142.116       98.723      213.827        0.038        0.023       11.354       10.181        0.804      346.574       24.920      864.461
06/29/2013  08:02:00      -19.184       -6.544       11.117       20.047       13.741       14.728      401.873      188.824      216.919        0.067        0.040       20.269        9.489        0.219      346.246       24.356      864.468
06/29/2013  08:03:00       -4.328        0.326        9.060       13.304        7.298       12.318      176.989       53.258      151.728        0.024        0.019        4.340        9.718        5.014      346.411       24.638      864.486
06/29/2013  08:04:00      -30.328       13.340        3.116       13.524       10.743        7.787      182.908      115.421       60.632        0.073        0.018       33.132        6.492        0.038      345.879       23.727      864.502
06/29/2013  08:05:00      -35.866       11.670        2.498       12.531       11.577       12.869      157.023      134.018      165.607        0.094        0.023       37.717        8.706        0.053      345.914       23.785      864.517
06/29/2013  08:06:00      -21.935       10.762       12.715       19.653       13.309       18.940      386.231      177.142      358.725        0.084        0.046       24.433       12.936        0.280      346.490       24.776      864.516
06/29/2013  08:07:00      -43.215       -0.339       -4.621       21.592        9.846        8.131      466.194       96.938       66.114        0.126        0.031       43.216        5.859        0.018      345.939       23.828      864.505
06/29/2013  08:08:00      -23.264       -4.806       -1.077       19.710       14.457       10.586      388.497      208.991      112.063        0.064        0.035       23.755        8.007        0.114      346.235       24.339      864.485
06/29/2013  08:09:00      -37.359       -2.054        3.116       20.999       19.395        9.358      440.979      376.168       87.577        0.116        0.045       37.415       10.351        0.077      345.888       23.741      864.485
06/29/2013  08:10:00      -78.086      -45.032       -5.524       29.964       19.141       14.135      897.821      366.384      199.804        0.481        0.073       90.140        9.770        0.012      345.882       23.730      864.477
06/29/2013  08:11:00      -67.518      -33.009       -3.266       21.973       24.360       11.906      482.797      593.427      141.757        0.344        0.061       75.155        9.694        0.017      345.899       23.759      864.483
06/29/2013  08:12:00      -46.400      -51.458        2.693       19.586       50.115       18.640      383.613     2511.562      347.450        0.402        0.162       69.288       23.477        0.115      346.007       23.944      864.484
06/29/2013  08:13:00      -56.319      -74.517        1.827       18.756       22.231       15.196      351.804      494.215      230.904        0.490        0.054       93.406       11.110        0.014      345.941       23.831      864.484
06/29/2013  08:14:00      -46.748      -78.556        9.103       32.269       39.886       18.750     1041.318     1590.890      351.555        0.571        0.149       91.414       21.420        0.055      346.017       23.962      864.488
06/29/2013  08:15:00      -73.138      -86.080       -4.253       34.274       36.714       21.060     1174.732     1347.911      443.515        0.787        0.148      112.955       13.211        0.014      346.066       24.044      864.486
06/29/2013  08:16:00      -57.405     -110.001        3.125       28.516       30.744       20.346      813.141      945.200      413.955        0.879        0.109      124.079       19.291        0.024      346.061       24.037      864.492
06/29/2013  08:17:00      -50.734     -139.064        1.832       31.927       15.878       12.834     1019.316      252.106      164.717        1.168        0.072      148.029       14.722        0.010      346.117       24.133      864.502
06/29/2013  08:18:00      -72.625      -91.927        0.743       37.203       38.364       21.377     1384.068     1471.785      456.963        0.852        0.166      117.153       21.315        0.033      346.157       24.202      864.506
06/29/2013  08:19:00      -63.583      -84.011        4.020       31.504       28.977       16.372      992.501      839.673      268.056        0.661        0.105      105.359       15.590        0.022      346.184       24.249      864.511
06/29/2013  08:20:00      -58.269      -92.459       -1.702       25.543       31.153       18.470      652.420      970.530      341.141        0.696        0.098      109.289       15.500        0.020      346.205       24.285      864.521
06/29/2013  08:21:00      -81.923      -82.244       -0.749       39.420       26.898       20.838     1553.921      723.498      434.240        0.809        0.136      116.083       18.808        0.026      346.222       24.314      864.534
06/29/2013  08:22:00      -80.071      -79.099       -3.048       32.902       32.462       19.400     1082.531     1053.796      376.351        0.759        0.126      112.552       20.719        0.034      346.363       24.556      864.543
06/29/2013  08:23:00      -64.528      -60.144       -1.471       38.968       28.675       17.006     1518.536      822.262      289.193        0.521        0.131       88.211       16.646        0.036      346.401       24.624      864.548
06/29/2013  08:24:00      -63.647     -116.166       -1.279       29.881       27.679       21.413      892.899      766.117      458.516        0.983        0.106      132.459       21.614        0.027      346.298       24.446      864.539
06/29/2013  08:25:00      -49.772     -100.867       -2.717       16.329       28.699       15.167      266.627      823.632      230.040        0.699        0.066      112.478       10.412        0.009      346.324       24.488      864.535
06/29/2013  08:26:00      -45.563      -99.220        2.934       33.048       21.635       14.524     1092.148      468.079      210.942        0.685        0.089      109.181       14.981        0.019      346.337       24.513      864.527
06/29/2013  08:27:00      -60.118      -93.350       -0.848       24.753       26.314       14.893      612.723      692.407      221.814        0.693        0.076      111.034       14.258        0.016      346.357       24.546      864.520
06/29/2013  08:28:00      -77.497      -77.367        0.963       34.504       27.547       24.093     1190.555      758.816      580.482        0.726        0.126      109.505       21.287        0.038      346.412       24.641      864.507
06/29/2013  08:29:00      -77.111     -103.275       -4.829       29.345       23.549       22.300      861.116      554.555      497.277        0.927        0.096      128.888       16.295        0.016      346.433       24.676      864.503
06/29/2013  08:30:00      -56.080      -96.630        3.644       22.912       25.287       18.152      524.959      639.433      329.501        0.699        0.075      111.725       13.134        0.014      346.487       24.769      864.502
06/29/2013  08:31:00      -67.022      -97.194        7.346       42.145       47.319       23.660     1776.232     2239.058      559.811        0.928        0.229      118.062       28.323        0.058      346.513       24.815      864.502
06/29/2013  08:32:00      -84.504      -53.603       -2.789       36.883       40.217       19.578     1360.367     1617.402      383.307        0.669        0.168      100.071       15.280        0.023      346.566       24.905      864.506
06/29/2013  08:33:00      -33.704        0.900       20.536       37.076       26.598       22.384     1374.648      707.446      501.036        0.207        0.129       33.716       23.365        0.480      347.191       25.982      864.507
06/29/2013  08:34:00      -72.173      -31.851        7.245       37.487       45.824       27.590     1405.265     2099.811      761.200        0.527        0.213       78.889       22.996        0.085      346.902       25.483      864.512
06/29/2013  08:35:00      -50.605      -92.417        4.778       22.228       24.897       18.156      494.097      619.882      329.655        0.628        0.072      105.365       13.900        0.017      346.633       25.021      864.514
06/29/2013  08:36:00      -42.160      -66.062       -3.373       13.870       16.489        7.056      192.379      271.879       49.781        0.333        0.026       78.368        3.316        0.002      346.645       25.043      864.508
06/29/2013  08:37:00      -39.827      -64.677       -2.233       18.006       23.486       12.064      324.220      551.580      145.536        0.340        0.051       75.956        9.651        0.016      346.799       25.304      864.505
06/29/2013  08:38:00      -19.908      -13.108        3.298       13.341       13.740       13.636      177.970      188.787      185.949        0.057        0.028       23.836        7.228        0.092      347.180       25.962      864.498
06/29/2013  08:39:00      -15.735      -14.658       19.292       15.297       22.548       18.695      233.996      508.426      349.490        0.096        0.055       21.505       15.006        0.487      347.356       26.267      864.496
06/29/2013  08:40:00      -16.620        1.521       24.024       15.261       35.276       21.486      232.887     1244.410      461.654        0.140        0.097       16.690       19.023        1.299      347.498       26.512      864.495
06/29/2013  08:41:00      -27.068      -55.501       -5.020       25.475       16.389       16.506      648.976      268.607      272.445        0.251        0.060       61.750       13.494        0.048      346.835       25.368      864.505
06/29/2013  08:42:00      -10.031       -8.908       -3.447       17.146       28.856       17.966      293.995      832.657      322.779        0.082        0.072       13.415       10.053        0.562      347.260       26.101      864.498
06/29/2013  08:43:00        4.401        7.167       14.582       14.313       18.017       16.278      204.867      324.601      264.969        0.054        0.040        8.410        8.599        1.045      347.770       26.981      864.493
06/29/2013  08:44:00        5.812       22.507       25.981       14.676       18.672       11.548      215.379      348.658      133.351        0.096        0.035       23.246        8.138        0.123      347.890       27.187      864.491
06/29/2013  08:45:00       21.722       13.890       21.913       22.987       18.927       27.431      528.405      358.243      752.445        0.139        0.082       25.784       15.221        0.348      347.847       27.114      864.488
06/29/2013  08:46:00       26.895      -23.126        5.392       24.909       36.647       17.368      620.453     1343.036      301.649        0.178        0.113       35.470       10.715        0.091      347.226       26.042      864.487
06/29/2013  08:47:00       33.000      -13.201       21.197       23.808       21.865       25.415      566.821      478.068      645.931        0.170        0.085       35.542       16.530        0.216      347.133       25.883      864.489
06/29/2013  08:48:00      -34.305       -7.827       17.211       44.186       20.709       23.954     1952.428      428.868      573.791        0.224        0.148       35.186       26.288        0.558      347.571       26.639      864.484
06/29/2013  08:49:00      -78.684      -63.822       -0.601       42.312       30.230       20.253     1790.332      913.837      410.193        0.669        0.156      101.314       19.044        0.035      346.967       25.596      864.477
06/29/2013  08:50:00      -53.194      -53.005        4.141       29.523       33.063       21.612      871.599     1093.153      467.084        0.404        0.122       75.094       18.617        0.061      347.073       25.779      864.470
06/29/2013  08:51:00       -7.593      -25.590        9.145       19.075       27.870       27.389      363.840      776.712      750.161        0.134        0.095       26.692       23.194        0.755      347.580       26.654      864.465
06/29/2013  08:52:00        1.528       11.585       15.640       21.874       18.612       26.473      478.468      346.394      700.838        0.095        0.076       11.685       16.007        1.877      347.790       27.015      864.446
06/29/2013  08:53:00      -37.669      -38.699        9.377       33.247       39.800       24.227     1105.338     1584.022      586.946        0.314        0.164       54.005       24.065        0.199      347.389       26.323      864.433
06/29/2013  08:54:00      -42.946      -56.457       -0.717       29.454       21.277       17.487      867.542      452.696      305.796        0.333        0.081       70.935       12.033        0.029      347.040       25.721      864.419
06/29/2013  08:55:00      -21.783      -36.430        8.737       21.144       37.277       18.910      447.075     1389.606      357.584        0.204        0.110       42.446       14.884        0.123      347.419       26.375      864.406
06/29/2013  08:56:00      -38.081      -58.240        2.614       29.595       35.088       21.991      875.853     1231.180      483.621        0.372        0.130       69.585       12.741        0.034      347.063       25.761      864.403
06/29/2013  08:57:00      -20.660      -69.622       -2.587       26.873       26.758       17.476      722.145      716.017      305.425        0.351        0.087       72.623       12.081        0.028      346.972       25.604      864.396
06/29/2013  08:58:00      -37.252      -53.245        8.013       12.977       23.397       12.064      168.408      547.402      145.537        0.257        0.043       64.982        6.775        0.011      347.058       25.753      864.387
06/29/2013  08:59:00      -39.420       -5.508       -0.275       16.536       25.748       16.852      273.455      662.956      283.991        0.140        0.061       39.803        8.767        0.049      347.266       26.112      864.378
06/29/2013  09:00:00      -15.832       -7.325        4.108       31.656       17.083       20.320     1002.074      291.834      412.918        0.101        0.085       17.445        9.371        0.289      347.544       26.591      864.386
06/29/2013  09:01:00       34.897      -16.758       17.085       38.508       30.224       35.870     1482.887      913.478     1286.656        0.274        0.184       38.712       30.680        0.628      347.492       26.503      864.389
06/29/2013  09:02:00       18.079      -37.658       18.942       23.739       45.677       29.201      563.550     2086.422      852.703        0.280        0.175       41.773       24.059        0.332      347.584       26.659      864.383
06/29/2013  09:03:00       26.716        3.038       33.081       35.462       47.807       29.008     1257.566     2285.534      841.479        0.310        0.219       26.888       26.898        1.001      347.463       26.452      864.389
06/29/2013  09:04:00       -9.316        4.381       22.365       22.163       17.143       20.905      491.185      293.866      437.015        0.091        0.061       10.295       12.719        1.526      348.248       27.806      864.381
06/29/2013  09:05:00        4.389        8.660       13.964       39.103       30.346       26.421     1529.044      920.854      698.047        0.172        0.157        9.709       19.959        4.226      347.613       26.711      864.372
06/29/2013  09:06:00      -12.800      -37.404       22.697       28.021       27.672       20.560      785.155      765.714      422.721        0.203        0.099       39.534       10.505        0.071      347.333       26.225      864.373
06/29/2013  09:07:00      -22.457      -29.553       -2.529       29.979       25.781       18.101      898.716      664.673      327.630        0.164        0.095       37.117       11.806        0.101      347.237       26.062      864.373
06/29/2013  09:08:00      -22.542       -5.087        6.490       25.296       13.716       24.476      639.892      188.127      599.066        0.100        0.071       23.109       18.442        0.637      348.086       27.530      864.370
06/29/2013  09:09:00      -36.586      -10.842       -9.543       13.547       25.959       16.625      183.516      673.878      276.398        0.134        0.057       38.159       16.150        0.179      347.267       26.113      864.368
06/29/2013  09:10:00      -32.611      -57.988       -4.033       22.020       15.054       13.821      484.898      226.629      191.008        0.267        0.045       66.529        8.503        0.016      347.380       26.306      864.357
06/29/2013  09:11:00      -44.967      -15.893        1.433       27.008       18.985       17.378      729.451      360.436      302.003        0.183        0.070       47.693       14.904        0.098      347.567       26.630      864.351
06/29/2013  09:12:00      -49.066      -35.960        7.620       39.836       44.060       25.655     1586.882     1941.280      658.185        0.397        0.209       60.833       22.255        0.134      347.730       26.912      864.357
06/29/2013  09:13:00      -38.090      -12.441       11.331       35.028       19.756       19.255     1226.993      390.313      370.769        0.186        0.099       40.070       23.168        0.334      348.106       27.561      864.362
06/29/2013  09:14:00      -32.832       -8.250       19.332       37.940       22.219       22.924     1439.448      493.680      525.519        0.199        0.123       33.853       24.327        0.516      348.457       28.170      864.357
06/29/2013  09:15:00      -23.882      -23.937        1.828       32.396       24.135       15.747     1049.516      582.521      247.978        0.151        0.094       33.813       14.723        0.190      347.767       26.975      864.355
06/29/2013  09:16:00     -107.057      -11.543       -4.411       24.510       35.781       18.667      600.719     1280.294      348.468        0.692        0.111      107.678       15.606        0.021      347.345       26.247      864.343
06/29/2013  09:17:00      -12.169       -7.025       23.103       21.442       16.529       24.570      459.746      273.206      603.669        0.103        0.067       14.051       16.926        1.451      348.645       28.494      864.337
06/29/2013  09:18:00      -55.743      -16.229        7.912       33.734       41.806       26.764     1137.951     1747.769      716.317        0.352        0.180       58.057       22.954        0.156      347.883       27.175      864.324
06/29/2013  09:19:00      -22.694        4.882       22.104       34.714       27.506       28.303     1205.053      756.570      801.032        0.189        0.138       23.214       24.507        1.115      348.245       27.802      864.319
06/29/2013  09:20:00      -28.751      -40.596        8.976       36.151       39.633       23.887     1306.897     1570.741      570.580        0.300        0.172       49.746       26.019        0.274      348.075       27.509      864.310
06/29/2013  09:21:00      -40.765      -78.260       -7.034       29.922       26.325       16.854      895.341      693.003      284.074        0.485        0.094       88.240       16.890        0.037      347.363       26.278      864.302
06/29/2013  09:22:00      -36.167      -17.248      -14.281       27.980       30.018       31.167      782.884      901.072      971.410        0.223        0.133       40.069       24.022        0.359      347.792       27.019      864.291
06/29/2013  09:23:00      -34.198      -19.197       14.099       33.443       26.662       18.777     1118.416      710.860      352.571        0.196        0.109       39.218       18.271        0.217      348.067       27.494      864.285
06/29/2013  09:24:00      -50.276       -1.903       -3.067       21.677       24.969       13.539      469.889      623.432      183.292        0.191        0.064       50.312       14.327        0.081      347.684       26.832      864.275
06/29/2013  09:25:00      -16.111       -2.342        4.253       17.921       14.500       15.856      321.166      210.251      251.408        0.053        0.039       16.280       10.535        0.419      348.236       27.786      864.272
06/29/2013  09:26:00       -6.957      -18.007        8.412       30.686       20.283       22.076      941.610      411.395      487.365        0.114        0.092       19.304       13.744        0.507      347.898       27.201      864.262
06/29/2013  09:27:00       -6.243       -4.064        0.404       19.860       15.824       21.893      394.407      250.388      479.323        0.059        0.056        7.450       14.528        3.803      348.197       27.718      864.252
06/29/2013  09:28:00       34.030       15.117       21.349       21.769       18.811       29.163      473.875      353.860      850.455        0.176        0.084       37.237       13.918        0.140      348.388       28.049      864.241
06/29/2013  09:29:00       21.262       24.140       33.468       24.115       28.126       22.700      581.531      791.099      515.299        0.202        0.094       32.168       15.637        0.236      348.537       28.306      864.227
06/29/2013  09:30:00       19.086       42.311       50.306       36.739       36.673       29.685     1349.738     1344.903      881.195        0.413        0.179       46.417       25.940        0.312      348.274       27.852      864.222
06/29/2013  09:31:00        8.451      -23.018       25.948       36.168       45.223       27.232     1308.108     2045.137      741.581        0.268        0.205       24.520       17.651        0.518      348.189       27.703      864.214
06/29/2013  09:32:00      -35.112      -24.308       -2.680       21.250       26.535       19.095      451.546      704.099      364.622        0.168        0.076       42.706       10.043        0.055      347.876       27.164      864.206
06/29/2013  09:33:00      -22.650      -38.926        3.545       23.098       22.493       20.308      533.523      505.933      412.399        0.175        0.073       45.036       14.489        0.104      347.972       27.328      864.211
06/29/2013  09:34:00        8.884      -50.439       -1.432       29.256       23.015       19.291      855.941      529.710      372.146        0.219        0.088       51.216       15.665        0.094      347.955       27.299      864.213
06/29/2013  09:35:00        8.819      -49.587        6.083       40.200       53.836       43.985     1616.056     2898.341     1934.680        0.451        0.322       50.366       29.426        0.341      348.127       27.597      864.200
06/29/2013  09:36:00       25.851       -8.614       21.264       30.828       29.989       37.062      950.370      899.347     1373.565        0.221        0.161       27.249       21.592        0.628      348.324       27.938      864.207
06/29/2013  09:37:00       25.090      -27.223       18.418       34.648       45.583       32.116     1200.510     2077.786     1031.461        0.301        0.215       37.022       27.901        0.568      348.054       27.472      864.206
06/29/2013  09:38:00       12.557       -7.285       19.629       17.922       26.247       32.373      321.205      688.888     1048.026        0.133        0.103       14.517       11.127        0.587      348.344       27.973      864.210
06/29/2013  09:39:00        7.285       11.219       25.588       24.448       30.734       23.024      597.711      944.590      530.126        0.145        0.104       13.377       17.771        1.765      349.008       29.122      864.218
06/29/2013  09:40:00       29.623      -33.446       30.645       36.443       40.464       29.690     1328.086     1637.358      881.508        0.339        0.192       44.679       30.178        0.456      348.564       28.353      864.225
06/29/2013  09:41:00       29.593      -36.561        7.005       38.619       27.360       29.564     1491.413      748.569      874.055        0.269        0.156       47.037       20.749        0.195      347.885       27.179      864.221
06/29/2013  09:42:00       23.579        9.952       14.212       26.123       26.059       28.927      682.417      679.054      836.749        0.153        0.110       25.593       14.483        0.320      348.414       28.094      864.220
06/29/2013  09:43:00      -19.303        8.135        7.752       21.435       21.433       22.903      459.478      459.392      524.550        0.097        0.072       20.947        6.531        0.097      348.410       28.087      864.217
06/29/2013  09:44:00       16.181      -10.155       18.295       27.697       31.525       31.998      767.143      993.841     1023.871        0.174        0.139       19.104       22.727        1.415      348.672       28.540      864.218
06/29/2013  09:45:00      -59.771      -40.120       -4.304       30.866       22.325       14.919      952.740      498.388      222.590        0.344        0.084       71.987        9.247        0.016      348.138       27.616      864.224
06/29/2013  09:46:00       -4.927      -31.877       33.398       35.557       45.526       23.600     1264.287     2072.600      556.944        0.302        0.195       32.255       22.211        0.474      348.676       28.548      864.224
06/29/2013  09:47:00      -80.627      -54.566       13.022       50.649       45.281       26.443     2565.313     2050.393      699.220        0.748        0.266       97.356       22.011        0.051      348.037       27.441      864.217
06/29/2013  09:48:00      -64.085      -26.690       -6.418       39.283       32.074       12.706     1543.173     1028.722      161.445        0.380        0.137       69.421       14.878        0.046      347.944       27.279      864.223
06/29/2013  09:49:00      -58.556      -52.810        4.225       35.277       31.356       19.707     1244.464      983.206      388.351        0.443        0.131       78.852       18.887        0.057      348.018       27.408      864.212
06/29/2013  09:50:00      -71.854      -84.525       -7.764       33.840       19.537       14.480     1145.141      381.702      209.672        0.705        0.087      110.940        6.905        0.004      347.952       27.295      864.206
06/29/2013  09:51:00        3.600      -26.112       23.950       15.452       36.851       16.213      238.758     1357.986      262.877        0.156        0.093       26.359       15.805        0.360      348.385       28.041      864.203
06/29/2013  09:52:00      -12.444       33.250       -3.275       45.391       33.654       36.000     2060.341     1132.570     1295.983        0.288        0.224       35.503       29.117        0.673      348.408       28.082      864.183
06/29/2013  09:53:00       33.178       41.130       14.662       34.189       36.965       28.236     1168.874     1366.411      797.265        0.317        0.167       52.844       18.382        0.121      348.710       28.606      864.186
06/29/2013  09:54:00        8.396        5.409       29.131       33.400       26.355       19.520     1115.559      694.567      381.030        0.157        0.110        9.987       18.769        3.532      349.282       29.598      864.177
06/29/2013  09:55:00       17.116       22.993       38.738       29.053       35.696       24.726      844.072     1274.183      611.387        0.253        0.136       28.664       19.131        0.445      349.305       29.637      864.178
06/29/2013  09:56:00      -10.028       42.667       64.867       17.812       42.137       21.724      317.255     1775.564      471.952        0.435        0.128       43.830       16.883        0.148      348.911       28.953      864.169
06/29/2013  09:57:00       23.263      -26.476       15.811       20.797       39.624       39.514      432.527     1570.069     1561.323        0.253        0.178       35.244       33.683        0.913      348.839       28.828      864.172
06/29/2013  09:58:00      -25.077       18.748       11.223       30.196       29.709       35.780      911.814      882.596     1280.242        0.209        0.154       31.310       26.009        0.690      348.902       28.938      864.172
06/29/2013  09:59:00       14.724        9.222       49.711       36.324       54.446       34.730     1319.445     2964.377     1206.160        0.413        0.274       17.374       29.667        2.916      348.881       28.901      864.156
06/29/2013  10:00:00       86.453      -16.298       34.799       59.442       52.312       48.373     3533.303     2736.596     2339.971        0.878        0.430       87.976       45.896        0.272      348.187       27.701      864.153
06/29/2013  10:01:00       42.783      -29.695       -2.222       40.845       25.034       28.792     1668.280      626.707      828.962        0.292        0.156       52.078       23.282        0.200      348.152       27.640      864.137
06/29/2013  10:02:00        5.880       -3.953       32.713       23.036       23.883       18.486      530.655      570.409      341.743        0.128        0.072        7.085       10.893        2.364      349.072       29.232      864.124
06/29/2013  10:03:00       29.434      -26.544       22.747       31.673       40.002       30.385     1003.172     1600.196      923.241        0.281        0.176       39.636       23.962        0.365      348.491       28.225      864.117
06/29/2013  10:04:00       39.517       23.194       49.044       33.506       32.742       23.648     1122.624     1072.032      559.249        0.363        0.138       45.821       16.891        0.136      348.813       28.782      864.101
06/29/2013  10:05:00       58.951       38.764       39.186       56.171       38.913       33.404     3155.134     1514.204     1115.802        0.615        0.289       70.554       11.874        0.028      348.850       28.847      864.096
06/29/2013  10:06:00       14.991       37.035       38.532       44.851       44.460       36.242     2011.626     1976.730     1313.454        0.419        0.265       39.954       22.258        0.310      349.013       29.130      864.092
06/29/2013  10:07:00       24.376        9.225       34.713       46.246       40.086       31.926     2138.663     1606.861     1019.251        0.332        0.238       26.063       23.038        0.781      349.157       29.380      864.089
06/29/2013  10:08:00       25.855        4.728       32.571       49.851       43.123       40.232     2485.120     1859.560     1618.631        0.386        0.298       26.284       33.382        1.613      349.054       29.200      864.101
06/29/2013  10:09:00       41.777      -19.771       20.832       47.787       57.431       35.721     2283.590     3298.336     1276.003        0.471        0.343       46.219       42.194        0.833      348.523       28.280      864.112
06/29/2013  10:10:00       26.502       17.104       45.647       34.121       23.564       25.377     1164.240      555.264      644.008        0.272        0.118       31.542       15.774        0.250      349.029       29.157      864.121
06/29/2013  10:11:00       48.589      -43.655       17.563       31.996       45.523       27.940     1023.728     2072.307      780.642        0.423        0.194       65.320       26.033        0.159      348.857       28.860      864.115
06/29/2013  10:12:00       10.205       14.153        0.026       22.849       31.697       29.755      522.084     1004.718      885.354        0.136        0.121       17.448       19.668        1.271      348.896       28.928      864.117
06/29/2013  10:13:00      -41.745      -74.365        3.252       38.972       44.284       31.753     1518.849     1961.078     1008.249        0.588        0.224       85.281       26.023        0.093      348.693       28.576      864.104
06/29/2013  10:14:00     -107.593      -59.063       -8.589       45.468       34.680       24.657     2067.352     1202.736      607.959        0.951        0.194      122.739       23.006        0.035      348.597       28.409      864.097
06/29/2013  10:15:00      -35.523      -63.357       -7.587       57.352       23.675       17.663     3289.220      560.512      311.986        0.475        0.208       72.636       11.245        0.024      348.769       28.706      864.099
06/29/2013  10:16:00      -22.229      -66.755      -13.873       32.568       35.463       22.441     1060.702     1257.609      503.619        0.398        0.141       70.359       14.790        0.044      348.752       28.679      864.094
06/29/2013  10:17:00       -4.072       12.429        2.950       24.929       31.436       25.265      621.442      988.236      638.339        0.121        0.112       13.079       16.837        1.657      349.060       29.212      864.088
06/29/2013  10:18:00      -60.709      -23.254       -4.343       37.555       34.548       22.550     1410.344     1193.572      508.488        0.368        0.156       65.011        5.642        0.008      348.718       28.618      864.073
06/29/2013  10:19:00      -68.289      -38.873       11.871       68.820       44.344       26.476     4736.144     1966.393      700.975        0.686        0.370       78.578       27.932        0.126      348.988       29.085      864.057
06/29/2013  10:20:00      -68.998      -53.372        9.922       52.814       42.224       28.255     2789.269     1782.851      798.364        0.654        0.269       87.231       30.360        0.121      348.916       28.962      864.043
06/29/2013  10:21:00     -104.544      -44.601       10.923       62.673       57.815       37.528     3927.884     3342.529     1408.343        1.086        0.434      113.660       38.316        0.114      349.062       29.215      864.024
06/29/2013  10:22:00       -7.479      -33.263       26.936       39.446       42.430       29.824     1556.021     1800.271      889.443        0.307        0.212       34.094       24.943        0.535      349.508       29.989      864.005
06/29/2013  10:23:00      -57.840      -62.758        3.994       55.937       55.663       25.295     3128.988     3098.406      639.834        0.708        0.343       85.347       32.466        0.145      349.114       29.305      863.999
06/29/2013  10:24:00      -23.140      -53.832       22.767       35.084       59.247       28.633     1230.899     3510.252      819.861        0.476        0.278       58.594       34.112        0.339      349.343       29.702      863.990
06/29/2013  10:25:00      -15.064     -107.747       -4.868       31.525       34.909       29.857      993.828     1218.636      891.420        0.748        0.155      108.795       16.525        0.023      348.772       28.711      863.990
06/29/2013  10:26:00      -21.405       14.949       37.849       21.568       24.853       32.550      465.171      617.664     1059.524        0.213        0.107       26.108       20.919        0.642      349.744       30.398      863.978
06/29/2013  10:27:00        8.371        5.756       47.296       35.396       38.828       28.063     1252.872     1507.596      787.538        0.294        0.177       10.159       12.092        1.417      349.886       30.646      863.975
06/29/2013  10:28:00       65.244      -23.933       21.477       38.107       37.813       36.379     1452.159     1429.842     1323.435        0.475        0.210       69.495       26.337        0.144      349.146       29.361      863.982
06/29/2013  10:29:00       49.644        9.438       27.096       46.480       25.882       25.653     2160.369      669.870      658.095        0.339        0.174       50.533       22.870        0.205      349.399       29.801      863.989
06/29/2013  10:30:00       43.490       27.746       16.913       39.973       30.059       31.017     1597.820      903.564      962.052        0.320        0.173       51.587       18.275        0.125      349.655       30.242      863.996
06/29/2013  10:31:00       30.346       60.373        8.241       44.521       51.752       29.158     1982.120     2678.232      850.202        0.507        0.276       67.571       25.849        0.146      349.763       30.430      864.005
06/29/2013  10:32:00      106.340      136.961       -3.365       46.453       98.160       48.889     2157.855     9635.295     2390.154        2.213        0.709      173.397       53.434        0.095      349.200       29.451      864.002
06/29/2013  10:33:00      113.488       89.679       32.076       59.293       50.776       45.853     3515.632     2578.181     2102.458        1.507        0.410      144.644       31.940        0.049      349.176       29.413      863.980
06/29/2013  10:34:00       45.819       58.872       59.680       39.766       50.430       39.882     1581.355     2543.158     1590.595        0.742        0.286       74.601       32.888        0.194      349.412       29.820      863.956
06/29/2013  10:35:00       61.325       59.831       13.933       56.705       46.578       39.245     3215.430     2169.494     1540.179        0.723        0.346       85.677       29.660        0.120      349.747       30.404      863.968
06/29/2013  10:36:00      -94.530       74.405        3.138       77.978       50.382       38.106     6080.614     2538.328     1452.077        1.227        0.504      120.300       41.628        0.120      349.897       30.662      863.954
06/29/2013  10:37:00     -143.120      104.580       -6.386       87.622       56.112       44.662     7677.659     3148.598     1994.713        2.214        0.641      177.258       46.550        0.069      349.672       30.269      863.950
06/29/2013  10:38:00     -112.346       -4.912       -2.495      114.954       41.202       43.527    13214.433     1697.596     1894.636        1.473        0.840      112.453       62.290        0.307      349.504       29.979      863.960
06/29/2013  10:39:00       -5.574       19.641       25.443       30.737       24.280       29.700      944.788      589.500      882.072        0.174        0.121       20.416       20.475        1.006      350.132       31.071      863.948
06/29/2013  10:40:00        5.157       68.451       11.254       31.445       45.202       34.566      988.802     2043.212     1194.799        0.453        0.211       68.645       27.466        0.160      350.066       30.959      863.956
06/29/2013  10:41:00       12.592      161.114      -14.858       76.561       81.246       39.260     5861.526     6600.909     1541.353        2.017        0.700      161.605       30.397        0.035      349.652       30.236      863.968
06/29/2013  10:42:00      -29.049      265.047      -16.300       41.770       64.677       41.437     1744.738     4183.125     1717.043        3.950        0.382      266.634       33.444        0.016      349.485       29.944      863.954
06/29/2013  10:43:00      -17.943      232.699      -11.654       45.524       82.402       42.094     2072.398     6790.101     1771.945        3.262        0.532      233.390       41.327        0.031      349.732       30.373      863.954
06/29/2013  10:44:00      -18.660      171.714       -1.874       38.763       57.275       41.976     1502.591     3280.458     1762.005        1.819        0.327      172.725       37.641        0.047      349.827       30.541      863.943
06/29/2013  10:45:00      -52.157      156.029        3.877       68.644       77.484       46.823     4711.947     6003.771     2192.351        1.999        0.645      164.515       46.847        0.081      349.953       30.758      863.930
06/29/2013  10:46:00       12.474      146.987       -0.964       72.840       60.945       44.182     5305.617     3714.269     1952.053        1.636        0.549      147.515       37.798        0.066      349.993       30.829      863.923
06/29/2013  10:47:00       -4.055      257.127      -10.094       77.883      149.916       67.174     6065.723    22474.725     4512.301        4.964        1.653      257.159       81.421        0.100      349.883       30.636      863.908
06/29/2013  10:48:00      -27.525      183.137       -6.621       62.199       78.885       47.011     3868.711     6222.884     2210.020        2.332        0.615      185.194       43.547        0.055      350.115       31.040      863.899
06/29/2013  10:49:00       25.632      199.046      -14.225       58.189      128.757       47.768     3385.916    16578.333     2281.760        3.136        1.112      200.690       59.056        0.087      349.961       30.770      863.910
06/29/2013  10:50:00      -15.372      252.545      -19.124       87.644      114.622       68.106     7681.482    13138.206     4638.432        4.491        1.273      253.013       58.452        0.053      349.844       30.568      863.899
06/29/2013  10:51:00      -10.256      304.303      -24.267       62.801      107.869       55.375     3944.018    11635.793     3066.444        5.597        0.932      304.476       53.875        0.031      349.755       30.414      863.912
06/29/2013  10:52:00       -2.489      253.228       -8.001       57.564      100.437       56.975     3313.617    10087.524     3246.188        4.042        0.832      253.241       57.156        0.051      349.852       30.582      863.899
06/29/2013  10:53:00      -31.929      187.229      -11.436       55.601       89.843       49.420     3091.463     8071.788     2442.294        2.490        0.680      189.932       46.638        0.060      350.030       30.892      863.907
06/29/2013  10:54:00       82.769      138.516       15.585       73.943      104.749       63.619     5467.533    10972.341     4047.395        2.338        1.024      161.361       62.173        0.148      350.208       31.201      863.900
06/29/2013  10:55:00      107.490      147.836        2.232      106.380      122.947       89.223    11316.773    15116.031     7960.775        3.390        1.720      182.783       72.469        0.157      349.866       30.606      863.890
06/29/2013  10:56:00       58.077      151.683        7.560       81.302      124.031       63.067     6610.064    15383.708     3977.387        2.620        1.299      162.421       63.870        0.155      350.129       31.063      863.862
06/29/2013  10:57:00       47.958      252.455       -9.968      106.668      134.930       81.475    11378.060    18206.176     6638.113        5.117        1.811      256.970       77.924        0.092      349.825       30.536      863.866
06/29/2013  10:58:00      139.485      138.096       15.204      105.972       96.009       84.763    11230.078     9217.785     7184.729        3.319        1.382      196.282       65.532        0.111      349.947       30.747      863.849
06/29/2013  10:59:00      -33.150      154.633      -22.815       60.620       68.571       40.227     3674.823     4702.032     1618.246        1.776        0.500      158.147       32.318        0.042      349.965       30.778      863.846
06/29/2013  11:00:00      -14.128      298.967      -31.626       61.671      115.914       44.464     3803.276    13435.950     1977.028        5.489        0.961      299.301       51.129        0.029      349.845       30.569      863.860
06/29/2013  11:01:00      -33.380      252.467      -18.887       52.193      103.195       40.163     2724.137    10649.160     1613.098        4.010        0.749      254.664       46.512        0.033      349.876       30.623      863.848
06/29/2013  11:02:00      -17.213      215.645      -17.710       53.359       80.713       53.936     2847.172     6514.648     2909.041        2.969        0.614      216.330       53.355        0.061      349.926       30.712      863.856
06/29/2013  11:03:00      -61.976      168.722      -14.761       44.283       69.600       41.103     1961.015     4844.130     1689.443        2.051        0.425      179.745       39.999        0.050      349.939       30.733      863.849
06/29/2013  11:04:00      -33.345      163.610       -2.774       71.796      160.911       53.701     5154.733    25892.318     2883.815        3.090        1.697      166.974       76.060        0.208      350.300       31.362      863.830
06/29/2013  11:05:00     -128.577      348.053      -38.544       95.887      137.234       55.439     9194.331    18833.220     3073.451        8.512        1.555      371.043       62.670        0.029      349.804       30.498      863.848
06/29/2013  11:06:00     -200.457      262.384      -41.314      110.331      116.558       69.742    12173.003    13585.667     4863.953        7.067        1.531      330.194       59.105        0.032      349.740       30.385      863.841
06/29/2013  11:07:00       55.128      211.568       -6.596       82.094      130.781       69.496     6739.346    17103.650     4829.722        3.825        1.434      218.632       76.168        0.121      350.083       30.984      863.827
06/29/2013  11:08:00       61.094      319.361      -22.545      109.568       98.653       73.474    12005.070     9732.328     5398.360        6.668        1.357      325.152       57.777        0.032      349.854       30.584      863.837
06/29/2013  11:09:00       44.795      131.147        0.305       80.666      100.071       50.312     6506.950    10014.183     2531.320        1.913        0.953      138.586       47.079        0.115      350.060       30.946      863.837
06/29/2013  11:10:00      -12.840      113.790       13.561       92.961       86.518       56.201     8641.686     7485.415     3158.500        1.629        0.964      114.512       65.529        0.327      350.251       31.276      863.829
06/29/2013  11:11:00       40.758      105.667        2.855      124.582       82.992       55.949    15520.561     6887.674     3130.246        1.918        1.277      113.256       57.419        0.257      350.061       30.947      863.818
06/29/2013  11:12:00     -143.718      259.192      -43.824       73.960      103.591       50.484     5470.135    10731.133     2548.619        5.425        0.937      296.370       46.673        0.025      349.762       30.423      863.846
06/29/2013  11:13:00      -91.301      255.624      -26.715       66.121       85.339       54.891     4371.964     7282.675     3013.027        4.453        0.733      271.440       49.891        0.034      349.946       30.745      863.818
06/29/2013  11:14:00      -25.123      141.778       -0.720       64.021       76.533       44.882     4098.690     5857.340     2014.407        1.635        0.599      143.987       36.607        0.065      350.364       31.473      863.802
06/29/2013  11:15:00      104.908      133.902      -17.101       92.760       76.124       67.590     8604.434     5794.809     4568.380        2.409        0.948      170.104       45.150        0.070      350.238       31.252      863.785
06/29/2013  11:16:00      214.221      166.775       25.198      137.350       97.007       70.753    18864.892     9410.317     5006.019        5.380        1.664      271.486       56.660        0.044      349.969       30.786      863.748
06/29/2013  11:17:00      258.685      129.705       19.237      111.459       82.324       61.356    12423.077     6777.177     3764.528        5.353        1.148      289.381       33.911        0.014      350.097       31.007      863.710
06/29/2013  11:18:00       88.764      151.115        2.398       94.485      129.049       62.881     8927.410    16653.742     3954.083        3.012        1.477      175.257       68.450        0.153      350.470       31.655      863.710
06/29/2013  11:19:00       80.622      105.249        0.249       72.543      101.978       59.338     5262.529    10399.417     3521.002        1.838        0.959      132.579       61.359        0.214      350.605       31.891      863.712
06/29/2013  11:20:00       33.300      152.803        8.557       91.037       99.606       56.474     8287.702     9921.321     3189.355        2.296        1.070      156.390       57.421        0.135      350.697       32.051      863.710
06/29/2013  11:21:00      -34.349      240.600      -26.040       83.521      102.924       46.095     6975.783    10593.382     2124.738        3.972        0.985      243.040       35.257        0.021      350.431       31.587      863.714
06/29/2013  11:22:00      -67.011      223.058      -14.150       94.746      116.125       58.585     8976.752    13485.078     3432.226        4.016        1.295      232.906       66.894        0.082      350.457       31.633      863.701
06/29/2013  11:23:00       19.190      158.055      -13.680       85.556      111.995       52.932     7319.808    12542.941     2801.795        2.410        1.133      159.216       54.013        0.115      350.482       31.678      863.687
06/29/2013  11:24:00       -9.179      118.607       -4.224       40.876       84.004       41.903     1670.842     7056.616     1755.878        1.232        0.524      118.962       43.660        0.135      350.802       32.237      863.679
06/29/2013  11:25:00      -17.728       87.798        1.830       40.470       51.853       36.103     1637.801     2688.752     1303.415        0.683        0.281       89.570       26.814        0.090      350.731       32.114      863.679
06/29/2013  11:26:00      -56.962      138.813       -7.249       53.494       79.965       39.907     2861.607     6394.395     1592.589        1.671        0.542      150.046       30.153        0.040      350.622       31.924      863.659
06/29/2013  11:27:00      -11.050       69.684       -4.231      109.626       72.855       49.433    12017.945     5307.805     2443.637        1.238        0.988       70.555       36.261        0.264      350.658       31.985      863.639
06/29/2013  11:28:00      -66.511      177.815       -4.372       52.364      108.664       43.984     2741.947    11807.945     1934.621        2.627        0.824      189.847       52.326        0.076      350.423       31.575      863.661
06/29/2013  11:29:00      -98.104      118.462      -11.208       95.604       92.321       57.703     9140.210     8523.106     3329.647        2.238        1.050      153.810       61.220        0.158      350.475       31.666      863.666
06/29/2013  11:30:00       -7.206      167.750       -2.142       73.945      111.830       60.540     5467.851    12506.028     3665.038        2.491        1.082      167.905       65.407        0.152      350.624       31.924      863.665
06/29/2013  11:31:00       16.948      225.880      -17.703       76.029      116.197       52.622     5780.420    13501.639     2769.088        3.683        1.103      226.515       57.354        0.064      350.436       31.596      863.648
06/29/2013  11:32:00       70.180      150.521       12.615       86.819       82.401       66.295     7537.531     6789.857     4395.072        2.323        0.936      166.078       50.816        0.094      350.503       31.713      863.621
06/29/2013  11:33:00      -34.365      170.139      -13.542       87.126      120.976       57.779     7591.020    14635.259     3338.400        2.793        1.278      173.575       56.743        0.107      350.649       31.966      863.613
06/29/2013  11:34:00     -109.499      229.170      -13.553       91.079      102.032       59.078     8295.354    10410.557     3490.252        4.344        1.110      253.986       55.771        0.048      350.521       31.744      863.618
06/29/2013  11:35:00     -217.192      182.981      -52.290       97.187       90.827       55.225     9445.282     8249.510     3049.836        5.206        1.037      283.998       60.010        0.045      350.197       31.180      863.638
06/29/2013  11:36:00     -120.727       89.085        2.796       84.488       48.822       44.564     7138.151     2383.578     1985.922        1.701        0.575      150.037       43.247        0.083      350.506       31.721      863.611
06/29/2013  11:37:00     -149.870      275.949      -28.380       83.129       90.604       57.343     6910.388     8209.051     3288.177        5.891        0.920      314.021       56.565        0.032      350.254       31.279      863.613
06/29/2013  11:38:00     -131.990      250.959      -27.438       95.500       82.713       55.987     9120.171     6841.374     3134.588        5.012        0.955      283.552       60.170        0.045      350.220       31.223      863.625
06/29/2013  11:39:00      -94.787      273.152      -22.551       65.468       71.620       49.420     4286.062     5129.355     2442.354        4.798        0.593      289.131       40.028        0.019      350.311       31.378      863.618
06/29/2013  11:40:00        7.048      174.892       -8.127       75.975      101.368       48.715     5772.187    10275.563     2373.185        2.456        0.921      175.034       48.768        0.078      350.571       31.832      863.604
06/29/2013  11:41:00     -163.393       15.355      -13.008      114.586       78.376       43.870    13130.053     6142.742     1924.536        2.415        1.060      164.113       44.888        0.075      350.355       31.457      863.592
06/29/2013  11:42:00      -96.210       -7.184        2.708       89.540       48.152       42.817     8017.391     2318.659     1833.289        1.074        0.608       96.478       41.199        0.182      350.426       31.582      863.569
06/29/2013  11:43:00       10.405       47.600       25.614       58.782       75.996       43.420     3455.280     5775.355     1885.288        0.707        0.556       48.724       40.600        0.694      350.902       32.411      863.577
06/29/2013  11:44:00      -16.506      130.835       -5.194       49.304       94.087       47.185     2430.907     8852.452     2226.437        1.546        0.675      131.872       54.036        0.168      350.815       32.258      863.589
06/29/2013  11:45:00      -38.605       60.039        6.668       64.082       52.841       42.213     4106.447     2792.178     1781.899        0.691        0.434       71.380       40.917        0.329      350.701       32.060      863.569
06/29/2013  11:46:00      100.329      187.548      -12.664       76.567      119.464       64.268     5862.485    14271.625     4130.337        3.483        1.213      212.697       74.771        0.124      350.509       31.725      863.557
06/29/2013  11:47:00       83.921       96.692        4.251       85.293       89.570       58.755     7274.965     8022.720     3452.098        1.758        0.937      128.031       56.977        0.198      350.867       32.349      863.541
06/29/2013  11:48:00       26.957      243.339      -12.421       68.940      137.484       70.107     4752.733    18901.731     4915.002        4.433        1.428      244.828       83.970        0.118      350.510       31.725      863.552
06/29/2013  11:49:00       57.507      143.297       -0.837       66.573       83.179       50.314     4431.947     6918.811     2531.474        1.886        0.694      154.406       47.749        0.096      350.713       32.080      863.541
06/29/2013  11:50:00       50.283      139.425       -3.345       56.355       92.692       47.601     3175.849     8591.891     2265.822        1.800        0.702      148.216       45.272        0.093      350.523       31.749      863.535
06/29/2013  11:51:00       72.983       59.614       21.438       54.877       36.840       34.435     3011.497     1357.193     1185.765        0.745        0.278       94.235       22.850        0.059      350.638       31.951      863.505
06/29/2013  11:52:00      135.337      120.850       -0.406       61.566      100.970       50.182     3790.431    10194.922     2518.186        2.471        0.825      181.441       53.488        0.087      350.499       31.707      863.494
06/29/2013  11:53:00      -18.467      182.183      -17.271       74.505      109.326       44.653     5551.038    11952.176     1993.856        2.666        0.975      183.116       54.917        0.090      350.504       31.716      863.504
06/29/2013  11:54:00      -30.308       72.881        2.764       52.800       95.614       37.296     2787.848     9142.107     1390.998        0.978        0.666       78.931       40.197        0.259      350.938       32.473      863.498
06/29/2013  11:55:00      -36.195      189.776       -9.416       42.771       66.616       40.327     1829.353     4437.700     1626.295        2.265        0.395      193.197       36.848        0.036      350.624       31.925      863.508
06/29/2013  11:56:00       -9.469      184.267      -11.540       62.520       95.738       44.205     3908.769     9165.859     1954.098        2.460        0.751      184.510       49.487        0.072      350.780       32.195      863.493
06/29/2013  11:57:00      101.766      127.705       -3.438       66.392       88.168       42.049     4407.833     7773.590     1768.085        2.031        0.697      163.294       39.562        0.059      350.411       31.555      863.473
06/29/2013  11:58:00       84.934       86.430       17.871       79.924       68.166       53.298     6387.835     4646.631     2840.669        1.444        0.694      121.178       41.364        0.117      350.597       31.879      863.454
06/29/2013  11:59:00      159.652      119.945       -2.968       71.825       64.464       48.296     5158.864     4155.636     2332.510        2.576        0.582      199.689       34.194        0.029      350.805       32.238      863.441
06/29/2013  12:00:00       87.082      113.904       -1.108      109.740       79.406       53.497    12042.903     6305.278     2861.883        2.088        1.061      143.379       49.399        0.119      350.805       32.240      863.438
06/29/2013  12:01:00      180.995      115.167        9.441      105.462       71.443       62.384    11122.284     5104.040     3891.773        3.311        1.006      214.529       36.409        0.029      350.903       32.411      863.437
06/29/2013  12:02:00      129.881      107.971       27.300       72.245       52.133       51.435     5219.347     2717.844     2645.523        1.993        0.529      168.899       29.119        0.030      350.483       31.680      863.444
06/29/2013  12:03:00      230.139      163.232       17.738       72.091       58.991       55.859     5197.167     3479.895     3120.264        4.586        0.590      282.150       27.428        0.009      350.265       31.297      863.438
06/29/2013  12:04:00      136.739      100.446       33.645       72.697       48.430       46.663     5284.845     2345.467     2177.405        1.986        0.490      169.667       37.430        0.049      350.338       31.428      863.430
06/29/2013  12:05:00      132.184       96.510       66.920      109.548       55.385       69.272    12000.676     3067.457     4798.652        2.556        0.993      163.667       52.828        0.104      350.596       31.874      863.395
06/29/2013  12:06:00      108.980      115.885       83.154       87.225       93.929       96.653     7608.160     8822.683     9341.809        2.899        1.289      159.079       87.845        0.305      350.348       31.444      863.408
06/29/2013  12:07:00      212.822       90.601       12.065       56.667       53.201       49.432     3211.158     2830.299     2443.551        3.106        0.424      231.305       26.676        0.013      350.275       31.316      863.394
06/29/2013  12:08:00      180.226       55.897       10.450       90.045       77.675       53.863     8108.153     6033.340     2901.268        2.638        0.852      188.695       46.571        0.061      350.514       31.732      863.382
06/29/2013  12:09:00      208.612      129.014       44.559       96.979       55.932       54.394     9404.895     3128.440     2958.685        3.882        0.775      245.283       46.272        0.036      350.311       31.379      863.382
06/29/2013  12:10:00       66.095       95.765       91.361       76.070       64.124       56.336     5786.664     4111.884     3173.775        1.748        0.654      116.359       43.536        0.140      350.261       31.293      863.385
06/29/2013  12:11:00       66.296      -14.202       42.503       68.831       88.232       57.831     4737.655     7784.945     3344.397        1.113        0.793       67.800       50.452        0.554      350.388       31.516      863.358
06/29/2013  12:12:00       39.253      -11.557       67.306       65.460       92.522       56.486     4284.994     8560.393     3190.667        1.112        0.802       40.919       45.897        1.258      350.575       31.841      863.298
06/29/2013  12:13:00       48.675       19.551       30.672       59.494       97.033       59.289     3539.549     9415.367     3515.218        1.008        0.824       52.455       37.434        0.509      350.458       31.638      863.314
06/29/2013  12:14:00      113.683      108.914       11.101      106.702       87.058       73.763    11385.400     7579.013     5441.036        2.465        1.220      157.436       53.402        0.115      350.710       32.074      863.309
06/29/2013  12:15:00      209.221      166.435       20.246      107.210       85.839       63.514    11493.912     7368.386     4033.994        4.739        1.145      267.347       44.594        0.028      350.680       32.022      863.294
06/29/2013  12:16:00      198.202      134.174        8.844       78.894       60.470       52.108     6224.305     3656.601     2715.232        3.498        0.630      239.347       25.389        0.011      350.752       32.145      863.294
06/29/2013  12:17:00       97.792       86.634       50.269      100.213       58.912       55.640    10042.551     3470.603     3095.849        1.810        0.830      130.647       46.554        0.127      350.880       32.370      863.271
06/29/2013  12:18:00       65.904       50.033       32.171       64.275       45.012       46.139     4131.292     2026.044     2128.766        0.808        0.414       82.744       48.231        0.340      350.963       32.516      863.268
06/29/2013  12:19:00       91.619       53.526       21.233       61.305       40.412       35.654     3758.330     1633.165     1271.182        0.919        0.333      106.109       24.266        0.052      351.099       32.753      863.262
06/29/2013  12:20:00      165.935      105.609       21.581       70.641       52.487       47.570     4990.094     2754.936     2262.900        2.458        0.500      196.692       31.149        0.025      350.719       32.088      863.244
06/29/2013  12:21:00      191.775      132.159        5.006       67.401       50.927       51.787     4542.912     2593.512     2681.880        3.204        0.491      232.903       28.547        0.015      350.812       32.251      863.233
06/29/2013  12:22:00      150.397      120.147        2.585       71.809       74.652       64.029     5156.529     5572.921     4099.727        2.594        0.741      192.496       44.104        0.052      351.057       32.677      863.233
06/29/2013  12:23:00       92.344      124.063        5.078       66.432       58.704       57.187     4413.167     3446.152     3270.310        1.753        0.556      154.657       44.060        0.081      350.742       32.132      863.230
06/29/2013  12:24:00       11.650       26.090       32.816       44.900       25.596       25.988     2016.049      655.167      675.379        0.262        0.167       28.573       17.049        0.356      351.192       32.917      863.216
06/29/2013  12:25:00       43.368       45.027       20.068       39.242       27.291       34.550     1539.959      744.772     1193.681        0.389        0.174       62.516       22.367        0.128      351.172       32.881      863.204
06/29/2013  12:26:00       -7.900       22.108        8.275       40.639       33.606       28.972     1651.557     1129.339      839.356        0.212        0.181       23.477       19.782        0.710      351.588       33.606      863.185
06/29/2013  12:27:00      -96.758       61.411       -5.341       66.049       48.059       36.206     4362.442     2309.622     1310.906        1.057        0.399      114.601       19.061        0.028      351.115       32.781      863.176
06/29/2013  12:28:00      -22.673      229.878      -20.745       66.276       71.242       37.797     4392.550     5075.395     1428.591        3.234        0.545      230.994       37.234        0.026      351.003       32.584      863.180
06/29/2013  12:29:00      -97.496      224.631      -25.557       70.138       62.304       44.440     4919.322     3881.826     1974.880        3.569        0.539      244.876       40.164        0.027      350.857       32.328      863.191
06/29/2013  12:30:00     -127.529      132.681      -12.485       56.111       93.473       47.910     3148.451     8737.258     2295.338        2.410        0.709      184.032       49.554        0.073      350.804       32.238      863.168
06/29/2013  12:31:00      -41.168       78.953       25.350       64.235       58.468       45.872     4126.108     3418.553     2104.212        0.911        0.482       89.041       45.003        0.255      351.243       33.005      863.150
06/29/2013  12:32:00       32.905      122.307       18.675       62.137       95.550       61.450     3860.945     9129.754     3776.049        1.658        0.838      126.656       58.180        0.211      351.385       33.250      863.167
06/29/2013  12:33:00      -70.895      261.625      -22.465       69.195      115.620       51.556     4787.897    13368.020     2658.028        4.739        1.041      271.060       48.671        0.032      350.807       32.243      863.176
06/29/2013  12:34:00      -74.424      142.970       -8.170       63.255       73.923       47.186     4001.180     5464.564     2226.506        1.887        0.585      161.181       45.895        0.081      351.113       32.777      863.179
06/29/2013  12:35:00      103.887       55.390       10.416       88.472       54.312       49.044     7827.340     2949.781     2405.337        1.357        0.659      117.731       28.637        0.059      351.144       32.832      863.156
06/29/2013  12:36:00      135.975       98.169       24.865       74.945       42.514       43.442     5616.709     1807.462     1887.201        1.903        0.466      167.709       34.905        0.043      350.796       32.224      863.144
06/29/2013  12:37:00       87.703      132.047        9.923       92.040       54.148       48.055     8471.363     2932.043     2309.294        1.947        0.686      158.519       32.119        0.041      350.841       32.303      863.133
06/29/2013  12:38:00       43.435       33.720       19.178       42.736       32.627       24.112     1826.340     1064.506      581.410        0.343        0.174       54.988       18.961        0.119      350.913       32.429      863.125
06/29/2013  12:39:00       38.332       29.790       22.387       40.709       22.447       27.233     1657.258      503.883      741.621        0.288        0.145       48.547       22.164        0.208      351.149       32.840      863.109
06/29/2013  12:40:00        7.976       -5.656        8.764       30.946       42.005       27.408      957.651     1764.392      751.221        0.182        0.174        9.778       27.431        7.871      351.133       32.813      863.084
06/29/2013  12:41:00      -55.911       -0.317       18.013       46.722       33.723       20.094     2182.984     1137.224      403.781        0.359        0.186       55.912       21.672        0.150      351.484       33.426      863.060
06/29/2013  12:42:00       -2.485       18.591       30.913       25.002       24.075       18.819      625.087      579.602      354.150        0.143        0.078       18.757       12.376        0.435      351.473       33.405      863.041
06/29/2013  12:43:00       38.371      -29.636        9.118       29.663       35.980       30.245      879.890     1294.558      914.790        0.276        0.154       48.483       20.790        0.184      350.528       31.760      863.011
06/29/2013  12:44:00      -18.408       -0.672       -5.782       24.182       15.877       23.316      584.783      252.073      543.622        0.088        0.069       18.421        8.876        0.232      350.758       32.159      862.998
06/29/2013  12:45:00      -17.905        9.148       27.382       20.718       25.564       24.276      429.238      653.495      589.315        0.141        0.084       20.107       16.223        0.651      351.319       33.137      862.972
06/29/2013  12:46:00       16.329       99.463       10.827       55.668       67.667       42.015     3098.967     4578.845     1765.261        0.986        0.472      100.795       46.562        0.213      351.091       32.740      862.973
06/29/2013  12:47:00       48.651       49.267       14.281       56.352       45.515       34.909     3175.502     2071.636     1218.618        0.573        0.323       69.239       20.785        0.090      351.591       33.613      862.956
06/29/2013  12:48:00       10.081       32.698       18.823       54.100       32.332       20.558     2926.786     1045.352      422.626        0.296        0.220       34.217        5.513        0.026      351.366       33.219      862.944
06/29/2013  12:49:00       -6.180       26.881       20.829       27.326       35.854       28.877      746.718     1285.526      833.856        0.203        0.143       27.582       14.909        0.292      351.916       34.180      862.943
06/29/2013  12:50:00       38.454       19.376       19.693       53.007       26.258       19.927     2809.771      689.507      397.097        0.307        0.195       43.060       10.752        0.062      351.634       33.686      862.934
06/29/2013  12:51:00      -66.968       -9.162       -5.704       43.048       42.044       25.708     1853.147     1767.689      660.913        0.444        0.214       67.592       23.636        0.122      351.244       33.005      862.919
06/29/2013  12:52:00     -103.648        7.062       14.850      107.633       60.317       38.697    11584.771     3638.138     1497.479        1.386        0.836      103.889       58.473        0.317      351.469       33.398      862.901
06/29/2013  12:53:00     -173.548       65.628      -15.426       67.552       50.284       36.288     4563.292     2528.501     1316.794        2.153        0.420      185.543       26.888        0.021      350.985       32.552      862.898
06/29/2013  12:54:00     -111.901       36.018        3.514       65.874       55.732       35.933     4339.445     3106.076     1291.199        1.128        0.437      117.555       35.280        0.090      351.510       33.470      862.886
06/29/2013  12:55:00     -110.884      -12.365       11.433       55.220       36.798       31.250     3049.263     1354.060      976.568        0.898        0.269      111.572       18.118        0.026      351.569       33.573      862.880
06/29/2013  12:56:00       -9.124       -1.107       13.392       32.466       25.729       24.772     1054.022      661.978      613.630        0.130        0.116        9.191       16.448        3.202      351.655       33.724      862.881
06/29/2013  12:57:00      -49.266       57.218        4.976       52.457       42.872       39.712     2751.765     1838.037     1577.017        0.595        0.308       75.505       44.508        0.347      351.396       33.274      862.878
06/29/2013  12:58:00        7.793       44.443        5.951       49.436       26.302       33.040     2443.888      691.799     1091.662        0.315        0.211       45.121       14.328        0.101      351.660       33.734      862.872
06/29/2013  12:59:00      -67.006       49.738      -14.539       74.134       66.764       29.868     5495.868     4457.409      892.107        0.901        0.542       83.449       44.096        0.279      351.334       33.162      862.867
06/29/2013  13:00:00      -32.045      148.110      -11.283       63.114       82.342       44.409     3983.416     6780.274     1972.187        1.791        0.637      151.537       35.905        0.056      351.512       33.474      862.863
06/29/2013  13:01:00      -46.508      179.113        0.958       63.991       96.222       52.640     4094.868     9258.719     2770.967        2.518        0.806      185.052       49.427        0.071      351.713       33.823      862.833
06/29/2013  13:02:00      -54.307      261.233      -13.572      100.099      179.416       63.601    10019.764    32190.104     4045.104        5.881        2.313      266.818       79.555        0.089      351.607       33.636      862.812
06/29/2013  13:03:00     -206.499      341.269      -45.500       90.699      100.895       69.071     8226.246    10179.787     4770.752        9.217        1.159      398.881       64.166        0.026      351.110       32.771      862.816
06/29/2013  13:04:00     -191.036      174.936      -44.736       71.482      141.687       51.149     5109.692    20075.118     2616.230        4.844        1.390      259.031       62.896        0.059      350.899       32.402      862.848
06/29/2013  13:05:00     -140.413      199.803      -30.496       63.164       80.585       44.493     3989.734     6493.930     1979.671        3.651        0.623      244.207       36.839        0.023      351.118       32.782      862.855
06/29/2013  13:06:00     -107.775       87.657      -20.983       46.313       38.303       26.504     2144.901     1467.113      702.473        1.203        0.216      138.922       26.116        0.035      350.895       32.397      862.842
06/29/2013  13:07:00      -39.329      141.187       -1.826       43.474       70.564       47.437     1890.023     4979.307     2250.314        1.530        0.456      146.563       49.767        0.115      351.429       33.328      862.831
06/29/2013  13:08:00      -19.370      246.555      -24.799       42.530       97.011       31.623     1808.820     9411.123     1000.037        3.700        0.611      247.315       42.867        0.030      351.124       32.796      862.824
06/29/2013  13:09:00      -13.045      122.527       -4.584       36.332      110.673       31.977     1320.025    12248.434     1022.518        1.489        0.730      123.219       47.901        0.151      351.243       33.003      862.829
06/29/2013  13:10:00      -13.927       -3.154       30.115       35.015       17.749       25.784     1226.070      315.018      664.832        0.166        0.110       14.279       23.790        2.776      351.788       33.957      862.813
06/29/2013  13:11:00      117.529       54.279        9.764       62.424       43.710       38.188     3896.805     1910.596     1458.288        1.206        0.363      129.457       30.257        0.055      350.968       32.528      862.827
06/29/2013  13:12:00       55.850       53.983        1.986       50.909       72.717       34.699     2591.727     5287.733     1204.014        0.756        0.454       77.674       32.173        0.172      350.575       31.841      862.813
06/29/2013  13:13:00      -86.500      -64.307      -18.186       46.997       39.724       29.999     2208.740     1577.978      899.925        0.832        0.234      107.786       25.575        0.056      350.955       32.502      862.796
06/29/2013  13:14:00     -126.180      -72.602      -15.114       51.938       48.059       23.100     2697.517     2309.634      533.603        1.348        0.277      145.576       12.459        0.007      350.856       32.328      862.775
06/29/2013  13:15:00      -97.185      -40.456       -6.173       49.146       35.009       23.248     2415.281     1225.606      540.451        0.765        0.209      105.269       22.755        0.047      351.036       32.644      862.754
06/29/2013  13:16:00     -101.885      -91.218       -1.735       46.079       32.411       27.669     2123.296     1050.474      765.592        1.132        0.197      136.752       19.762        0.021      351.144       32.832      862.756
06/29/2013  13:17:00      -80.145      -72.622      -16.180       35.766       37.012       19.946     1279.222     1369.924      397.826        0.750        0.152      108.153       12.314        0.013      351.010       32.598      862.743
06/29/2013  13:18:00      -46.353      -42.876       -2.852       35.438       26.941       16.181     1255.845      725.828      261.815        0.312        0.112       63.143       12.357        0.038      351.161       32.862      862.731
06/29/2013  13:19:00      -10.025      -13.721       27.691       38.247       70.125       34.660     1462.803     4917.509     1201.325        0.432        0.379       16.993       35.365        4.331      351.582       33.598      862.734
06/29/2013  13:20:00        8.252       30.245       27.724       19.377       31.020       19.384      375.486      962.269      375.744        0.173        0.086       31.351       14.782        0.222      352.051       34.414      862.752
06/29/2013  13:21:00       38.134       29.991       18.595       31.737       26.897       31.978     1007.248      723.458     1022.566        0.273        0.138       48.515       20.406        0.177      351.736       33.866      862.742
06/29/2013  13:22:00       75.108       87.249       17.833       53.462       56.686       38.911     2858.172     3213.331     1514.081        1.058        0.379      115.124       36.415        0.100      351.368       33.223      862.736
06/29/2013  13:23:00       15.236       90.346        5.168       38.617       61.637       36.646     1491.282     3799.123     1342.921        0.753        0.332       91.621       31.404        0.117      351.692       33.787      862.711
06/29/2013  13:24:00       93.849       60.002       17.743       78.071       51.134       49.908     6095.133     2614.734     2490.794        1.196        0.560      111.391       35.166        0.100      351.622       33.665      862.694
06/29/2013  13:25:00       93.383       37.581       -1.855       67.864       39.376       32.367     4605.579     1550.502     1047.614        0.867        0.360      100.661       11.616        0.013      351.302       33.107      862.689
06/29/2013  13:26:00       -4.141       44.982       -0.403       33.979       24.742       23.081     1154.591      612.149      532.734        0.217        0.115       45.172       10.594        0.055      351.537       33.518      862.675
06/29/2013  13:27:00      -27.654        7.649      -19.400       32.458       29.027       21.461     1053.518      842.593      460.583        0.178        0.118       28.692       16.660        0.337      351.244       33.007      862.659
06/29/2013  13:28:00       59.416      -21.720       17.323       39.262       33.267       34.633     1541.477     1106.710     1199.462        0.407        0.192       63.262       30.113        0.227      351.098       32.753      862.645
06/29/2013  13:29:00       -9.572        3.289       22.312       27.792       31.678       25.387      772.412     1003.492      644.507        0.151        0.121       10.121       24.026        5.635      351.513       33.475      862.621
06/29/2013  13:30:00       41.162       -3.694       29.145       35.464       51.827       34.581     1257.725     2686.057     1195.850        0.385        0.257       41.327       36.226        0.768      350.831       32.287      862.614
06/29/2013  13:31:00       14.030       19.760       21.537       28.566       25.773       27.705      816.043      664.240      767.569        0.165        0.112       24.234       10.471        0.187      351.627       33.675      862.602
06/29/2013  13:32:00       56.692       35.679        9.020       51.335       34.040       31.194     2635.287     1158.707      973.069        0.467        0.238       66.985       18.922        0.080      351.461       33.386      862.598
06/29/2013  13:33:00        8.081      -18.473       30.729       30.758       40.622       20.442      946.084     1650.163      417.861        0.218        0.151       20.163       13.087        0.421      351.590       33.610      862.573
06/29/2013  13:34:00       73.172      -29.156       36.990       40.400       29.152       32.384     1632.182      849.833     1048.745        0.555        0.177       78.767       14.918        0.036      351.624       33.670      862.575
06/29/2013  13:35:00       57.711       29.530       30.293       37.301       38.830       32.441     1391.371     1507.788     1052.396        0.454        0.198       64.828       20.387        0.099      351.716       33.831      862.561
06/29/2013  13:36:00      162.393      100.200       51.221       86.356       74.295       63.539     7457.396     5519.679     4037.251        2.802        0.851      190.818       53.151        0.078      351.406       33.287      862.549
06/29/2013  13:37:00      179.595      122.123       21.131      116.784       78.513       58.524    13638.481     6164.217     3425.013        3.542        1.161      217.183       39.874        0.034      351.512       33.470      862.530
06/29/2013  13:38:00      110.411      196.445      -13.535      155.788      125.836       70.782    24270.013    15834.630     5010.051        4.803        2.256      225.347       60.889        0.073      351.519       33.483      862.515
06/29/2013  13:39:00      -38.873      180.423        8.081       43.480       91.779       52.462     1890.495     8423.365     2752.240        2.359        0.653      184.563       53.355        0.084      351.929       34.201      862.512
06/29/2013  13:40:00     -147.181      164.889      -29.289       78.506       68.092       51.734     6163.267     4636.469     2676.441        3.159        0.674      221.021       53.603        0.059      351.635       33.684      862.501
06/29/2013  13:41:00      -63.971      179.166      -15.222       54.370       61.699       35.319     2956.067     3806.734     1247.454        2.222        0.401      190.244       33.474        0.031      351.471       33.400      862.504
06/29/2013  13:42:00       30.962      123.526       -1.280       44.281       63.055       38.226     1960.763     3975.912     1461.197        1.181        0.370      127.347       32.938        0.067      351.503       33.458      862.485
06/29/2013  13:43:00       24.287      112.931        0.697       63.940       51.266       47.174     4088.338     2628.212     2225.355        1.114        0.447      115.513       33.273        0.083      351.546       33.533      862.459
06/29/2013  13:44:00     -123.346       99.182      -21.560       74.417       71.402       34.413     5537.883     5098.198     1184.242        1.867        0.591      158.276       25.499        0.026      351.456       33.375      862.424
06/29/2013  13:45:00      -99.381        3.956       -3.874       87.806       45.607       34.122     7709.841     2080.036     1164.282        1.043        0.548       99.459       41.730        0.176      351.924       34.193      862.392
06/29/2013  13:46:00      107.891       61.532       19.621       96.313       81.180       41.375     9276.099     6590.112     1711.908        1.669        0.879      124.204       48.169        0.150      351.714       33.824      862.404
06/29/2013  13:47:00      173.128      112.980       16.546       62.767       44.073       47.736     3939.674     1942.438     2278.759        2.558        0.408      206.731       34.266        0.027      351.430       33.327      862.389
06/29/2013  13:48:00       73.257       40.138       28.098       47.077       35.580       30.098     2216.222     1265.966      905.912        0.608        0.219       83.532       29.697        0.126      351.497       33.447      862.382
06/29/2013  13:49:00      146.339       86.030       53.046      100.201       69.262       62.245    10040.248     4797.249     3874.380        2.517        0.936      169.753       41.914        0.061      351.364       33.213      862.347
06/29/2013  13:50:00       32.951       90.352      136.178      112.495       86.280       72.267    12655.200     7444.155     5222.578        2.655        1.266       96.173       79.943        0.691      351.678       33.762      862.325
06/29/2013  13:51:00      249.638      152.009       21.815      101.941       80.645       79.354    10392.008     6503.686     6297.024        5.454        1.160      292.277       56.600        0.038      351.458       33.376      862.331
06/29/2013  13:52:00      160.489      104.635       15.045       86.923       60.865       49.855     7555.609     3704.557     2485.542        2.534        0.687      191.586       39.214        0.042      351.588       33.603      862.349
06/29/2013  13:53:00      148.683       96.484       28.727       96.143       55.763       58.695     9243.477     3109.517     3445.156        2.402        0.790      177.245       60.046        0.115      351.527       33.496      862.345
06/29/2013  13:54:00      -18.256       52.337       -7.009      100.120       75.539       53.204    10024.067     5706.113     2830.667        1.084        0.928       55.430       53.561        0.934      351.479       33.417      862.327
06/29/2013  13:55:00      184.620       95.539       52.032      133.075       87.820       92.768    17709.062     7712.437     8605.898        3.997        1.701      207.876       80.268        0.149      351.336       33.164      862.309
06/29/2013  13:56:00       32.250       55.702       80.040       55.831       59.558       58.734     3117.074     3547.110     3449.680        1.033        0.506       64.364       47.752        0.550      351.453       33.371      862.297
06/29/2013  13:57:00       68.864      -54.160        7.281       54.226       68.837       69.080     2940.409     4738.490     4771.981        1.009        0.623       87.610       58.683        0.449      350.848       32.318      862.283
06/29/2013  13:58:00      109.235      -54.740       27.482       59.258       55.756       38.471     3511.565     3108.777     1480.032        1.189        0.405      122.184       33.972        0.077      351.292       33.091      862.273
06/29/2013  13:59:00       41.263       42.451       82.483       56.774       52.493       35.664     3223.281     2755.522     1271.907        0.878        0.363       59.201       34.984        0.349      351.469       33.400      862.258
06/29/2013  14:00:00       23.559      -15.830       22.392       33.051       55.124       40.517     1092.347     3038.684     1641.629        0.354        0.289       28.383       27.352        0.929      351.155       32.851      862.234
06/29/2013  14:01:00       18.030      -55.552       23.111       30.811       82.099       37.320      949.316     6740.229     1392.773        0.651        0.454       58.404       37.452        0.411      351.710       33.818      862.223
06/29/2013  14:02:00       37.421      -64.487      -11.153       44.704       64.767       41.237     1998.492     4194.746     1700.488        0.679        0.395       74.558       31.155        0.175      351.968       34.270      862.179
06/29/2013  14:03:00       33.560       59.819        1.386       92.122       80.565       44.743     8486.542     6490.778     2001.932        1.084        0.849       68.590       40.866        0.355      352.005       34.333      862.158
06/29/2013  14:04:00       55.552      354.032      -14.145      145.971      243.796       91.916    21307.570    59436.271     8448.498       10.889        4.460      358.364       99.679        0.077      352.269       34.791      862.098
06/29/2013  14:05:00     -165.932      199.098      -33.210      105.012       98.693       53.259    11027.481     9740.334     2836.538        4.594        1.180      259.179       64.107        0.061      352.048       34.407      862.198
06/29/2013  14:06:00      -31.720      291.014      -38.408       59.667       91.513       34.581     3560.178     8374.568     1195.851        5.015        0.657      292.738       40.313        0.019      351.884       34.119      862.217
06/29/2013  14:07:00      -86.234      236.209      -30.632       52.636       86.331       44.255     2770.589     7453.018     1958.540        3.817        0.609      251.458       42.502        0.029      351.790       33.956      862.198
06/29/2013  14:08:00      -35.028      203.666       -9.416       62.725      131.030       50.622     3934.390    17168.797     2562.599        3.323        1.183      206.656       70.614        0.117      351.889       34.130      862.190
06/29/2013  14:09:00       75.633      135.654        6.554       90.948      115.887       66.842     8271.525    13429.773     4467.910        2.516        1.308      155.314       58.519        0.142      352.077       34.458      862.176
06/29/2013  14:10:00       -8.797      220.271      -14.655       62.752      131.697       55.075     3937.777    17344.128     3033.224        3.656        1.216      220.446       66.221        0.090      351.802       33.977      862.198
06/29/2013  14:11:00       48.245       83.321       -3.880       52.331       60.712       34.767     2738.500     3685.889     1208.754        0.846        0.382       96.281       28.868        0.090      351.830       34.028      862.183
06/29/2013  14:12:00       88.620       94.111        7.644       48.701       74.709       39.756     2371.787     5581.439     1580.531        1.315        0.477      129.268       41.830        0.105      351.496       33.445      862.149
06/29/2013  14:13:00       54.891      180.915       -0.201       73.622      164.865       76.901     5420.246    27180.351     5913.804        3.712        1.926      189.059       83.277        0.194      351.973       34.275      862.142
06/29/2013  14:14:00       70.896      172.697       -0.054      103.261      125.117       74.677    10662.758    15654.229     5576.670        3.337        1.595      186.683       73.335        0.154      352.005       34.331      862.117
06/29/2013  14:15:00     -107.292      207.962      -24.704       67.890       97.215       57.140     4609.024     9450.677     3265.016        3.634        0.866      234.008       48.000        0.042      352.249       34.757      862.133
06/29/2013  14:16:00      -85.936      225.952      -17.076       85.574       94.890       55.380     7322.976     9004.136     3066.937        3.906        0.970      241.742       57.019        0.056      352.111       34.517      862.142
06/29/2013  14:17:00     -120.866      214.870      -33.807       64.574       75.800       41.723     4169.806     5745.604     1740.769        3.679        0.583      246.532       37.688        0.023      351.677       33.759      862.135
06/29/2013  14:18:00      -73.231      115.905      -15.948       82.515       73.956       41.564     6808.731     5469.473     1727.527        1.653        0.700      137.102       47.183        0.118      351.917       34.179      862.104
06/29/2013  14:19:00     -152.176      267.588      -48.435      104.627      117.265       60.278    10946.801    13751.166     3633.492        6.271        1.417      307.833       57.520        0.035      351.956       34.246      862.115
06/29/2013  14:20:00     -306.089      214.331      -63.148      138.917      128.039       78.712    19297.934    16394.098     6195.647        9.274        2.094      373.669       77.400        0.043      351.915       34.172      862.111
06/29/2013  14:21:00     -140.528      272.323      -39.310       90.624      141.842       63.109     8212.776    20119.239     3982.732        6.388        1.616      306.444       77.064        0.063      352.085       34.469      862.114
06/29/2013  14:22:00      -48.075      204.566       -8.704       97.825      117.512       66.628     9569.751    13809.157     4439.269        3.602        1.391      210.139       67.416        0.103      352.369       34.966      862.097
06/29/2013  14:23:00       64.642      252.121      -21.979       93.157      126.155       72.970     8678.204    15915.042     5324.611        4.907        1.496      260.276       81.167        0.097      352.038       34.388      862.104
06/29/2013  14:24:00      118.231      184.779       20.613      143.568      152.565      101.623    20611.769    23276.159    10327.241        5.137        2.711      219.367       85.190        0.151      352.043       34.398      862.063
06/29/2013  14:25:00      -13.104      356.074      -45.550      110.207      131.854       64.450    12145.664    17385.515     4153.796        8.135        1.684      356.315       67.654        0.036      351.950       34.233      862.091
06/29/2013  14:26:00        9.752      247.940      -19.703       84.887       95.231       58.674     7205.820     9068.886     3442.591        4.083        0.986      248.132       47.296        0.036      351.978       34.283      862.085
06/29/2013  14:27:00      163.382      185.401       -4.187      125.845      106.576       83.048    15836.925    11358.435     6896.954        4.758        1.705      247.118       64.282        0.068      351.972       34.273      862.052
06/29/2013  14:28:00       55.686      334.187      -37.789       84.249      153.443       66.220     7097.859    23544.891     4385.087        7.561        1.751      338.795       73.734        0.047      351.901       34.149      862.041
06/29/2013  14:29:00       35.420      100.820       -0.165       73.210       79.423       45.088     5359.705     6308.012     2032.962        1.256        0.685      106.861       46.311        0.188      352.144       34.576      862.049
06/29/2013  14:30:00       51.943      230.190       -6.264      120.943      178.508       77.270    14627.203    31864.931     5970.632        5.408        2.623      235.978       94.007        0.159      352.101       34.499      862.032
06/29/2013  14:31:00      -20.205      229.551      -12.495       69.569       77.061       50.126     4839.822     5938.435     2512.652        3.327        0.665      230.438       44.486        0.037      352.128       34.545      862.042
06/29/2013  14:32:00      -76.998       61.773        9.840       85.276       67.218       48.597     7271.962     4518.219     2361.665        1.199        0.708       98.715       52.822        0.286      352.482       35.168      862.033
06/29/2013  14:33:00     -145.277      243.640      -36.599      100.364       91.339       69.153    10072.837     8342.725     4782.203        5.250        1.160      283.665       67.801        0.057      351.935       34.209      862.056
06/29/2013  14:34:00      -87.787      141.446      -19.901       70.338       78.934       52.605     4947.387     6230.639     2767.332        2.102        0.697      166.474       56.075        0.113      352.152       34.590      862.023
06/29/2013  14:35:00      -32.822      259.936      -17.266       52.562       64.860       42.579     2762.768     4206.773     1812.968        3.886        0.439      262.000       38.316        0.021      351.944       34.222      861.977
06/29/2013  14:36:00      -60.706      159.202      -11.765       51.773       72.132       31.757     2680.482     5203.063     1008.497        1.903        0.445      170.383       37.167        0.048      351.930       34.202      861.962
06/29/2013  14:37:00        7.006       42.165       15.962       37.305       29.847       31.180     1391.671      890.815      972.191        0.267        0.163       42.743       26.799        0.393      352.236       34.738      861.950
06/29/2013  14:38:00      -14.941       46.073       10.251       29.413       36.699       25.393      865.139     1346.824      644.793        0.265        0.143       48.435       21.536        0.198      352.465       35.140      861.956
06/29/2013  14:39:00      -14.741       57.690        0.923       19.362       31.219       29.231      374.903      974.616      854.455        0.287        0.110       59.543       20.474        0.118      352.420       35.060      861.957
06/29/2013  14:40:00      -73.108       96.770       -4.059       72.402       51.142       46.157     5241.983     2615.506     2130.483        1.235        0.499      121.281       29.280        0.058      352.084       34.474      861.941
06/29/2013  14:41:00      -17.652       72.595        8.228      108.051       69.020       40.055    11674.993     4763.758     1604.400        1.184        0.902       74.710       39.660        0.282      352.231       34.729      861.920
06/29/2013  14:42:00      192.881      114.308       37.433       93.261       68.262       64.618     8697.583     4659.712     4175.467        3.460        0.877      224.208       31.347        0.020      351.797       33.967      861.855
06/29/2013  14:43:00      -30.067       89.033      -10.809      131.883       85.141       54.069    17393.152     7248.983     2923.403        1.825        1.378       93.973       63.483        0.456      352.088       34.477      861.827
06/29/2013  14:44:00       99.810      123.352       26.764      145.699       80.221       59.375    21228.292     6435.405     3525.422        2.854        1.559      158.675       38.898        0.060      352.510       35.214      861.805
06/29/2013  14:45:00      107.868       53.588       29.886      128.695      105.411       51.648    16562.441    11111.509     2667.566        2.286        1.517      120.446       27.187        0.051      352.417       35.054      861.806
06/29/2013  14:46:00      146.303       91.857       13.288      100.201       77.251       48.738    10040.176     5967.709     2375.354        2.420        0.919      172.749       21.826        0.016      352.288       34.826      861.812
06/29/2013  14:47:00      284.120      177.307       39.729      138.900      108.983       73.483    19293.143    11877.292     5399.765        7.515        1.829      334.906       47.904        0.020      351.972       34.273      861.772
06/29/2013  14:48:00      135.005      154.363        3.140      120.828       89.999       61.429    14599.380     8099.847     3773.507        3.426        1.324      205.072       42.119        0.042      351.953       34.241      861.784
06/29/2013  14:49:00       49.194      235.699      -21.588       78.859      118.028       55.915     6218.695    13930.632     3126.521        4.085        1.164      240.778       64.752        0.072      352.185       34.645      861.788
06/29/2013  14:50:00       19.484      164.407       -0.458       66.411       96.438       57.112     4410.463     9300.305     3261.829        2.219        0.849      165.557       59.485        0.129      352.448       35.106      861.782
06/29/2013  14:51:00       40.158       71.961       -4.871       73.848       78.387       50.285     5453.460     6144.489     2528.575        1.047        0.706       82.408       39.052        0.225      352.415       35.050      861.789
06/29/2013  14:52:00       19.924       90.326       11.556       50.558       64.764       52.074     2556.117     4194.322     2711.711        0.907        0.473       92.497       43.471        0.221      352.392       35.011      861.787
06/29/2013  14:53:00       24.754      173.997      -10.286       44.132       87.604       36.025     1947.675     7674.433     1297.834        2.095        0.546      175.749       38.764        0.049      352.234       34.733      861.786
06/29/2013  14:54:00      114.029      119.914       25.208      102.258       71.417       56.857    10456.620     5100.422     3232.745        2.340        0.939      165.475       45.227        0.075      352.298       34.843      861.774
06/29/2013  14:55:00      157.621       79.157       30.291      104.819       56.993       61.819    10987.007     3248.237     3821.531        2.504        0.903      176.380       60.606        0.118      351.669       33.745      861.776
06/29/2013  14:56:00      104.048       10.209       67.453       68.816       41.488       48.941     4735.665     1721.250     2395.217        1.216        0.443      104.548       29.063        0.077      351.567       33.570      861.747
06/29/2013  14:57:00      118.802       76.309       39.864       55.728       39.036       37.841     3105.649     1523.828     1431.912        1.379        0.303      141.199       30.097        0.045      351.376       33.237      861.728
06/29/2013  14:58:00       85.095      233.456      -11.242      144.762      158.447       72.053    20955.980    25105.403     5191.648        5.655        2.563      248.481       88.957        0.128      352.370       34.969      861.748
06/29/2013  14:59:00     -124.231      207.514      -25.325       75.315      105.256       61.701     5672.366    11078.761     3807.017        3.984        1.028      241.858       51.621        0.046      352.357       34.946      861.773
06/29/2013  15:00:00       -0.418      138.593        2.582       49.310       80.116       46.345     2431.456     6418.632     2147.822        1.510        0.550      138.594       44.356        0.102      352.368       34.968      861.742
06/29/2013  15:01:00       33.237      173.495      -17.550       65.807      131.694       46.339     4330.514    17343.228     2147.328        2.766        1.191      176.650       57.763        0.107      352.327       34.895      861.707
06/29/2013  15:02:00       -9.981      343.626      -41.435       80.175       79.095       50.052     6428.103     6256.014     2505.179        6.754        0.759      343.771       44.210        0.017      352.000       34.321      861.705
06/29/2013  15:03:00       -7.661       80.483      -13.938       46.808       90.383       36.504     2191.035     8169.016     1332.554        0.921        0.585       80.846       35.456        0.192      352.111       34.519      861.706
06/29/2013  15:04:00       39.856       86.161        9.818       47.911       81.700       51.639     2295.486     6674.837     2666.629        1.037        0.582       94.933       54.389        0.328      352.290       34.833      861.694
06/29/2013  15:05:00       77.749       86.060        9.025       52.410       43.884       35.391     2746.815     1925.780     1252.532        0.973        0.296      115.979       27.550        0.056      352.067       34.443      861.690
06/29/2013  15:06:00       50.530      132.596        3.272       51.934      101.683       53.251     2697.177    10339.343     2835.690        1.801        0.794      141.898       57.619        0.165      352.375       34.979      861.662
06/29/2013  15:07:00       32.616       58.922       -6.697       43.726       46.322       22.755     1911.964     2145.753      517.813        0.458        0.229       67.347       13.262        0.039      352.429       35.075      861.642
06/29/2013  15:08:00        4.774      191.034      -14.550       50.325      128.584       47.790     2532.637    16533.851     2283.858        2.904        1.068      191.094       67.793        0.126      352.302       34.849      861.626
06/29/2013  15:09:00      162.229       74.844       22.347      106.567       70.504       55.333    11356.543     4970.791     3061.741        2.590        0.969      178.661       42.212        0.056      352.291       34.832      861.614
06/29/2013  15:10:00      189.500       89.293       32.785       86.024       74.381       55.571     7400.209     5532.481     3088.109        3.049        0.801      209.484       39.577        0.036      352.103       34.502      861.597
06/29/2013  15:11:00      123.546      104.420       69.448       75.186       48.322       59.689     5652.968     2335.052     3562.764        2.127        0.578      161.763       54.757        0.115      352.055       34.419      861.581
06/29/2013  15:12:00      143.228       76.197       20.928       97.297       69.660       50.335     9466.620     4852.513     2533.606        2.180        0.843      162.235       45.504        0.079      352.086       34.473      861.547
06/29/2013  15:13:00      195.464      122.501       10.864       83.181       74.039       54.840     6919.107     5481.845     3007.386        3.437        0.770      230.679       41.293        0.032      352.214       34.695      861.538
06/29/2013  15:14:00       36.966       31.147       22.753       51.137       43.328       28.181     2615.003     1877.331      794.150        0.407        0.264       48.339       23.370        0.234      352.219       34.708      861.517
06/29/2013  15:15:00       65.226       13.269       17.531       77.802       68.437       38.887     6053.216     4683.564     1512.216        0.849        0.612       66.562       27.750        0.174      351.720       33.836      861.479
06/29/2013  15:16:00       31.959      -17.012       13.402       43.048       52.183       47.332     1853.139     2723.034     2240.352        0.415        0.341       36.205       21.984        0.369      351.808       33.991      861.459
06/29/2013  15:17:00       17.628       -0.134       32.666       32.828       45.312       28.142     1077.695     2053.165      791.983        0.265        0.196       17.628        9.777        0.308      352.307       34.862      861.460
06/29/2013  15:18:00       12.157       32.158       56.471       57.943       98.640       75.301     3357.403     9729.780     5670.287        1.156        0.938       34.379       76.579        4.962      351.981       34.293      861.455
06/29/2013  15:19:00       25.443      -40.587       22.627       57.098       69.712       46.643     3260.161     4859.733     2175.600        0.655        0.515       47.902       46.933        0.960      352.239       34.743      861.464
06/29/2013  15:20:00       37.072       21.966       23.389       51.903       55.497       34.150     2693.940     3079.883     1166.239        0.467        0.347       43.091       28.040        0.423      352.071       34.450      861.463
06/29/2013  15:21:00       42.731      -31.176       14.242       39.192       26.799       22.383     1535.985      718.161      500.987        0.288        0.138       52.895       14.812        0.078      352.153       34.592      861.449
06/29/2013  15:22:00       29.361       10.095        9.710       17.762       50.879       22.088      315.476     2588.666      487.867        0.222        0.170       31.048       19.020        0.375      352.200       34.675      861.437
06/29/2013  15:23:00      -29.634       28.548       15.000       66.351       40.111       26.972     4402.447     1608.919      727.509        0.433        0.337       41.148       21.914        0.284      352.647       35.457      861.438
06/29/2013  15:24:00      -30.480      -46.793       12.506       79.161       70.108       35.671     6266.434     4915.183     1272.407        0.786        0.623       55.844       23.642        0.179      352.367       34.967      861.411
06/29/2013  15:25:00     -172.977      -31.936       -3.711       86.867       63.124       35.529     7545.953     3984.654     1262.343        2.187        0.640      175.900       38.073        0.047      352.449       35.108      861.410
06/29/2013  15:26:00      -26.157      150.264      -12.845       50.344      107.768       35.170     2534.497    11614.002     1236.949        1.940        0.769      152.523       40.333        0.070      352.528       35.247      861.440
06/29/2013  15:27:00      -51.971      257.658      -44.925       84.644      109.961       40.790     7164.689    12091.489     1663.809        4.601        1.046      262.847       45.680        0.030      352.395       35.011      861.411
06/29/2013  15:28:00      -70.799      230.186      -22.401       90.428      110.306       50.539     8177.244    12167.366     2554.142        4.069        1.145      240.828       53.183        0.049      352.494       35.186      861.396
06/29/2013  15:29:00      -56.494      201.769      -21.783       77.576       76.873       34.601     6017.974     5909.420     1197.221        2.875        0.656      209.529       23.572        0.013      352.413       35.043      861.391
06/29/2013  15:30:00      -81.022       89.811      -14.652       67.749       93.443       55.139     4589.914     8731.596     3040.331        1.560        0.818      120.957       31.175        0.066      352.766       35.665      861.401
06/29/2013  15:31:00     -242.278      255.361      -59.593       99.470       85.592       59.838     9894.199     7325.940     3580.536        7.413        1.040      352.006       63.323        0.032      352.386       34.996      861.453
06/29/2013  15:32:00     -190.320      219.443      -35.768       87.149       81.631       56.713     7594.925     6663.562     3216.317        5.156        0.874      290.477       54.712        0.035      352.296       34.839      861.464
06/29/2013  15:33:00     -140.087      100.678      -23.353       85.799       68.909       36.623     7361.409     4748.501     1341.217        2.188        0.673      172.512       30.045        0.030      352.231       34.726      861.453
06/29/2013  15:34:00     -147.485      -47.388       -2.389       95.557       54.152       32.115     9131.100     2932.397     1031.366        1.855        0.655      154.911       34.134        0.049      352.306       34.859      861.422
06/29/2013  15:35:00      -49.577      -80.734       11.019       67.533       31.040       30.880     4560.653      963.488      953.550        0.779        0.324       94.741       32.159        0.115      352.279       34.812      861.372
06/29/2013  15:36:00       11.942       28.283       11.784       30.228       55.090       25.673      913.747     3034.888      659.125        0.284        0.230       30.701       21.147        0.474      352.081       34.469      861.352
06/29/2013  15:37:00      -47.898       18.891        6.270       79.403       50.889       30.859     6304.810     2589.732      952.297        0.627        0.492       51.489       34.442        0.447      352.342       34.924      861.351
06/29/2013  15:38:00        8.212      108.209      -12.606       67.308       70.902       35.745     4530.368     5027.098     1277.725        1.138        0.542      108.520       28.984        0.071      352.482       35.167      861.349
06/29/2013  15:39:00       37.508      102.164       29.494       85.503       95.763       55.140     7310.693     9170.631     3040.442        1.611        0.976      108.832       47.449        0.190      352.487       35.175      861.323
06/29/2013  15:40:00      117.001       73.269       50.178      109.497       77.070       56.424    11989.532     5939.773     3183.645        2.134        1.056      138.049       42.573        0.095      352.500       35.199      861.308
06/29/2013  15:41:00       36.054      167.582      -32.787       69.981       92.291       29.464     4897.408     8517.543      868.107        2.237        0.714      171.417       32.428        0.036      352.298       34.845      861.309
06/29/2013  15:42:00       22.633      187.833      -11.499       58.207      101.531       51.093     3388.060    10308.586     2610.459        2.611        0.815      189.192       53.762        0.081      352.471       35.148      861.290
06/29/2013  15:43:00      159.795      106.557       19.674      103.921       68.477       57.179    10799.587     4689.127     3269.435        2.801        0.938      192.065       39.938        0.043      352.694       35.537      861.283
06/29/2013  15:44:00      248.375      141.995       15.629       89.217       69.609       46.904     7959.586     4845.354     2200.002        4.855        0.750      286.099       34.184        0.014      352.343       34.919      861.262
06/29/2013  15:45:00      102.866      119.155       17.758      126.333       82.187       54.058    15959.958     6754.688     2922.310        2.536        1.282      157.414       45.138        0.082      352.529       35.248      861.228
06/29/2013  15:46:00      -23.484      236.961      -20.708       75.402       94.413       53.202     5685.524     8913.767     2830.409        3.728        0.871      238.122       53.157        0.050      352.792       35.707      861.233
06/29/2013  15:47:00       69.143      252.702      -15.554      104.865      159.455       89.605    10996.567    25425.970     8028.989        5.666        2.223      261.990       94.691        0.131      352.697       35.541      861.233
06/29/2013  15:48:00       83.769      207.913      -22.027       84.378      113.977       71.041     7119.699    12990.644     5046.815        3.794        1.258      224.154       67.551        0.091      352.505       35.206      861.249
06/29/2013  15:49:00      104.250      154.635       -1.525       98.554       94.829       63.320     9712.889     8992.514     4009.387        2.874        1.136      186.494       51.694        0.077      352.341       34.920      861.220
06/29/2013  15:50:00       52.881      180.232       -7.498       80.132      107.901       69.593     6421.099    11642.634     4843.200        2.912        1.145      187.830       66.216        0.124      352.457       35.122      861.198
06/29/2013  15:51:00       89.788       97.591       11.233       94.181       99.839       57.360     8870.074     9967.879     3290.180        1.992        1.106      132.612       54.394        0.168      352.437       35.087      861.174
06/29/2013  15:52:00      101.893      107.705        8.071       77.380       55.411       49.236     5987.684     3070.389     2424.214        1.676        0.574      148.265       38.675        0.068      352.489       35.178      861.160
06/29/2013  15:53:00      135.302      149.301        9.522      122.108      101.215       89.275    14910.398    10244.393     7970.043        3.690        1.656      201.488       51.537        0.065      352.455       35.116      861.154
06/29/2013  15:54:00       40.995      143.366       10.566      114.193       84.544       71.368    13039.961     7147.607     5093.416        2.381        1.264      149.112       67.354        0.204      352.557       35.297      861.122
06/29/2013  15:55:00     -171.537       90.233      -13.612       84.137       94.982       52.121     7079.071     9021.614     2716.644        2.828        0.941      193.821       48.000        0.061      352.546       35.278      861.109
06/29/2013  15:56:00      -12.445      389.289      -44.848       77.983      158.170       63.293     6081.314    25017.867     4005.962        9.440        1.755      389.488       81.704        0.044      352.533       35.254      861.134
06/29/2013  15:57:00      -38.066      192.827      -18.034       40.763       86.673       40.058     1661.616     7512.157     1604.645        2.487        0.539      196.548       44.188        0.051      352.268       34.790      861.140
06/29/2013  15:58:00      -31.891      213.584      -31.309       72.456       81.066       35.509     5249.912     6571.646     1260.863        3.035        0.654      215.952       30.421        0.020      352.237       34.737      861.124
06/29/2013  15:59:00       40.054       32.484       23.483       43.556       53.181       36.498     1897.082     2828.250     1332.072        0.463        0.303       51.570       36.125        0.491      352.161       34.607      861.069
06/29/2013  16:00:00       31.525       17.331       16.964       44.093       58.062       35.289     1944.188     3371.218     1245.331        0.407        0.328       35.975       30.745        0.730      352.098       34.498      861.043
06/29/2013  16:01:00       22.922        0.208       21.180       31.275       34.150       34.925      978.116     1166.229     1219.721        0.217        0.168       22.923       26.224        1.309      351.793       33.965      861.076
06/29/2013  16:02:00       69.104       76.704       77.129       62.782       58.176       36.959     3941.581     3384.465     1365.975        1.265        0.435      103.241       25.788        0.062      352.248       34.758      861.081
06/29/2013  16:03:00      169.918      133.462       11.914      106.822       92.907       81.859    11411.012     8631.660     6700.879        3.678        1.337      216.065       58.482        0.073      352.478       35.156      861.066
06/29/2013  16:04:00      114.581      109.829       38.967       97.232      109.288       74.023     9454.065    11943.852     5479.400        2.679        1.344      158.717       56.742        0.128      352.530       35.249      861.020
06/29/2013  16:05:00       54.325       14.413       -0.285       66.152       75.834       38.329     4376.051     5750.741     1469.081        0.738        0.580       56.204       31.266        0.309      351.955       34.248      860.988
06/29/2013  16:06:00       43.571      128.030        6.829       65.483       92.527       58.766     4287.981     8561.217     3453.453        1.732        0.815      135.241       52.030        0.148      352.601       35.375      861.042
06/29/2013  16:07:00       96.628      103.261       10.537      144.676      122.416       79.368    20931.127    14985.659     6299.278        3.115        2.111      141.421       69.145        0.239      352.695       35.539      861.010
06/29/2013  16:08:00     -104.555      197.288      -20.622      119.877      105.110       67.339    14370.534    11048.026     4534.596        4.011        1.498      223.281       74.833        0.112      352.734       35.607      861.048
06/29/2013  16:09:00       30.349       82.234       15.646       78.973      105.183       76.794     6236.770    11063.449     5897.341        1.556        1.160       87.656       66.836        0.581      352.812       35.746      861.036
06/29/2013  16:10:00      -96.328      214.928      -12.291      151.088      161.042       82.879    22827.488    25934.581     6868.963        5.562        2.782      235.527      104.576        0.197      352.561       35.304      860.998
06/29/2013  16:11:00     -147.346      221.663      -38.330       96.561      108.739       53.642     9323.986    11824.102     2877.469        4.817        1.201      266.168       49.545        0.035      352.483       35.167      860.943
06/29/2013  16:12:00       19.621      177.916       -4.612       65.409      109.752       56.367     4278.403    12045.417     3177.285        2.578        0.975      178.994       56.831        0.101      352.763       35.657      860.884
06/29/2013  16:13:00      175.151       74.214       34.627      141.174       91.365       76.961    19930.041     8347.538     5923.003        3.579        1.710      190.225       46.578        0.060      352.695       35.538      860.833
06/29/2013  16:14:00      145.337       85.635       27.516       74.592       57.340       55.413     5563.900     3287.880     3070.550        2.057        0.596      168.690       29.008        0.030      352.515       35.225      860.773
06/29/2013  16:15:00      132.018       87.095       19.767       85.696       68.905       58.514     7343.740     4747.958     3423.940        2.046        0.776      158.159       38.880        0.060      352.653       35.464      860.686
06/29/2013  16:16:00      151.747      111.983       15.216      117.327      110.996       82.731    13765.555    12320.127     6844.494        3.436        1.647      188.593       58.389        0.096      352.927       35.944      860.592
06/29/2013  16:17:00     -192.930      244.340       -8.722      189.921      181.197      110.901    36070.092    32832.238    12298.943        8.908        4.060      311.326      119.167        0.147      352.690       35.530      860.529
06/29/2013  16:18:00     -103.022      101.574      -15.013       98.124      127.152       44.849     9628.255    16167.527     2011.460        2.448        1.390      144.675       35.505        0.060      352.973       36.026      860.579
06/29/2013  16:19:00     -206.355      315.852      -25.984      113.048      154.299       72.069    12779.893    23808.297     5193.920        9.239        2.089      377.286       65.437        0.030      352.904       35.902      860.636
06/29/2013  16:20:00     -134.479       30.946       -0.811      130.092      136.196       62.818    16923.866    18549.333     3946.113        2.922        1.971      137.994       64.144        0.216      352.991       36.057      860.683
06/29/2013  16:21:00     -185.450      -53.650       -6.375      109.864       80.116       46.659    12070.003     6418.605     2177.100        2.898        1.033      193.054       51.719        0.072      352.970       36.019      860.739
06/29/2013  16:22:00      -77.377      -87.486       21.055      172.822       95.286       54.030    29867.450     9079.509     2919.189        2.797        2.093      116.794       66.094        0.320      352.857       35.822      860.796
06/29/2013  16:23:00     -149.468     -133.655        6.323      145.469       96.096       49.502    21161.179     9234.395     2450.420        3.654        1.642      200.511       60.196        0.090      352.810       35.739      860.800
06/29/2013  16:24:00     -159.152      -67.854       15.833      118.872       66.845       43.069    14130.639     4468.236     1854.952        2.531        1.023      173.013       49.643        0.082      353.010       36.090      860.807
06/29/2013  16:25:00     -162.137      -27.326        7.808      116.862       82.735       57.935    13656.624     6845.068     3356.431        2.547        1.193      164.424       69.960        0.181      352.920       35.932      860.802
06/29/2013  16:26:00     -225.694      -54.980       -7.058       63.983       57.518       29.210     4093.785     3308.302      853.213        3.113        0.413      232.295       24.638        0.011      352.780       35.684      860.801
06/29/2013  16:27:00     -177.728      -58.631        1.092       95.176       89.293       53.062     9058.417     7973.250     2815.533        2.743        0.992      187.149       48.537        0.067      352.854       35.815      860.797
06/29/2013  16:28:00     -207.598        4.543      -14.632      106.104       91.834       53.835    11258.117     8433.433     2898.241        3.296        1.129      207.647       44.372        0.046      352.878       35.859      860.786
06/29/2013  16:29:00     -337.583      -24.759      -14.205      155.200      115.078       62.459    24086.925    13243.044     3901.092        7.800        2.062      338.489       64.116        0.036      352.848       35.805      860.771
06/29/2013  16:30:00     -204.213      -82.650        3.579      109.302       90.061       57.582    11946.873     8111.064     3315.658        3.596        1.169      220.304       63.701        0.084      352.750       35.634      860.785
06/29/2013  16:31:00      -63.745       43.993        0.508       49.005       60.347       38.564     2401.532     3641.792     1487.154        0.676        0.377       77.451       35.317        0.208      352.596       35.368      860.780
06/29/2013  16:32:00      -77.497       43.882        5.097       45.113       69.783       34.073     2035.203     4869.727     1160.962        0.801        0.403       89.059       27.580        0.096      352.891       35.884      860.745
06/29/2013  16:33:00     -234.649        1.067      -17.398       83.309       71.052       43.671     6940.359     5048.395     1907.127        3.463        0.695      234.651       41.899        0.032      352.828       35.770      860.732
06/29/2013  16:34:00     -190.003       32.489      -21.522       67.465       55.608       28.498     4551.474     3092.255      812.158        2.304        0.423      192.761       31.450        0.027      352.612       35.395      860.725
06/29/2013  16:35:00      -80.694        8.691       10.887       48.949       36.446       35.705     2395.999     1328.326     1274.831        0.585        0.250       81.161       30.507        0.141      352.888       35.879      860.714
06/29/2013  16:36:00      -41.967       15.752       17.607       71.788       58.643       33.140     5153.587     3438.992     1098.283        0.600        0.485       44.826       32.229        0.517      352.622       35.414      860.732
06/29/2013  16:37:00     -225.725      -25.892      -12.894      114.903       86.181       49.108    13202.648     7427.122     2411.549        3.741        1.152      227.205       56.619        0.062      352.947       35.977      860.728
06/29/2013  16:38:00     -449.144     -112.550      -33.481       92.434      146.309       65.885     8544.019    21406.250     4340.870       12.490        1.715      463.031       49.302        0.011      352.831       35.775      860.717
06/29/2013  16:39:00     -225.682      -58.100        3.291      211.945      110.647       65.675    44920.850    12242.778     4313.206        5.789        3.074      233.041       92.412        0.157      352.844       35.798      860.709
06/29/2013  16:40:00     -371.334      -10.832      -35.563      138.795      124.654       59.392    19264.041    15538.513     3527.446        8.879        1.917      371.492       59.562        0.026      352.885       35.869      860.687
06/29/2013  16:41:00     -243.083     -100.590        5.896      147.394      153.797       82.405    21725.041    23653.642     6790.561        6.070        2.608      263.074       86.080        0.107      352.993       36.058      860.685
06/29/2013  16:42:00     -239.669     -141.232       17.551      178.086      145.272       96.223    31714.642    21104.029     9258.918        6.987        3.104      278.186       89.079        0.103      353.000       36.071      860.683
06/29/2013  16:43:00     -203.003      -96.612       17.238      150.210      148.540       81.171    22562.943    22064.038     6588.732        5.102        2.561      224.820       78.059        0.121      353.028       36.121      860.690
06/29/2013  16:44:00     -409.994      -74.096      -26.942      213.077      129.225       73.815    45401.649    16699.110     5448.591       12.092        3.377      416.636       93.755        0.051      352.984       36.042      860.724
06/29/2013  16:45:00     -372.696      -89.279      -20.531      173.066      140.254       72.169    29951.815    19671.225     5208.424       10.105        2.742      383.240       79.196        0.043      352.976       36.027      860.714
06/29/2013  16:46:00     -290.456      -15.936      -37.785       93.044       96.604       50.166     8657.233     9332.388     2516.602        5.327        1.025      290.892       41.877        0.021      352.796       35.711      860.710
06/29/2013  16:47:00     -209.369      -48.310        3.122      130.695       81.706       48.901    17081.207     6675.800     2391.318        3.616        1.307      214.870       60.481        0.079      352.888       35.877      860.697
06/29/2013  16:48:00     -231.874     -106.416      -10.398      118.592       81.567       53.714    14064.020     6653.125     2885.206        4.440        1.180      255.127       54.550        0.046      352.897       35.891      860.693
06/29/2013  16:49:00     -152.374     -116.427       -6.453      103.817      117.207       53.925    10777.993    13737.551     2907.931        3.211        1.371      191.764       54.985        0.082      352.805       35.731      860.682
06/29/2013  16:50:00     -125.853      -16.227        0.776       67.602       91.557       31.136     4570.065     8382.677      969.434        1.501        0.696      126.895       31.761        0.063      352.859       35.827      860.686
06/29/2013  16:51:00     -153.865       45.383       -6.630       79.943       53.609       39.580     6390.843     2873.872     1566.597        1.830        0.542      160.418       41.124        0.066      352.734       35.607      860.679
06/29/2013  16:52:00     -259.250       39.725      -22.639       82.353       83.576       43.415     6782.081     6984.942     1884.871        4.247        0.783      262.276       37.780        0.021      352.775       35.678      860.699
06/29/2013  16:53:00     -216.412       57.986      -36.096      123.106       75.149       68.793    15155.131     5647.387     4732.540        3.851        1.277      224.046       67.621        0.091      352.740       35.617      860.711
06/29/2013  16:54:00     -180.487       48.237       -3.910      114.173      122.957       74.977    13035.467    15118.546     5621.597        3.434        1.689      186.822       75.050        0.161      352.850       35.809      860.702
06/29/2013  16:55:00      -61.613       34.667        2.564       95.086       97.718       62.074     9041.257     9548.795     3853.182        1.372        1.122       70.696       53.796        0.579      352.835       35.785      860.678
06/29/2013  16:56:00     -310.467      -80.091       -6.569      125.638       96.203       66.350    15784.837     9255.057     4402.319        6.614        1.472      320.632       54.830        0.029      352.939       35.963      860.655
06/29/2013  16:57:00     -299.416      -36.737      -19.727      124.726       95.210       51.531    15556.517     9064.927     2655.429        5.933        1.364      301.661       49.534        0.027      352.929       35.946      860.678
06/29/2013  16:58:00     -246.288      101.587      -27.614      134.591       98.318       43.898    18114.740     9666.386     1927.070        5.072        1.485      266.416       43.244        0.026      352.716       35.574      860.677
06/29/2013  16:59:00      -43.850       81.827        3.263       75.222       91.801       54.401     5658.348     8427.388     2959.507        1.283        0.852       92.836       36.586        0.155      352.885       35.871      860.675
06/29/2013  17:00:00     -138.046       94.145      -23.306       70.923      113.451       48.779     5030.072    12871.110     2379.435        2.437        1.014      167.092       43.254        0.067      352.878       35.860      860.641
06/29/2013  17:01:00     -189.425       56.688      -45.139       84.045      102.252       48.490     7063.628    10455.522     2351.255        3.050        0.994      197.725       55.611        0.079      352.839       35.791      860.628
06/29/2013  17:02:00       -9.991       47.281        6.752       64.389       59.865       50.283     4145.984     3583.864     2528.418        0.632        0.513       48.325       48.367        1.002      352.771       35.674      860.615
06/29/2013  17:03:00     -172.072      -32.366      -20.404      113.865       61.897       43.551    12965.186     3831.185     1896.729        2.488        0.935      175.089       49.224        0.079      352.922       35.936      860.563
06/29/2013  17:04:00     -198.667     -130.314       -5.496      143.200      105.123       60.141    20506.372    11050.827     3616.953        4.582        1.759      237.593       44.897        0.036      352.718       35.579      860.523
06/29/2013  17:05:00     -286.855     -209.939       -7.904      117.825      102.861       57.322    13882.726    10580.392     3285.824        7.708        1.387      355.472       49.404        0.019      352.583       35.340      860.507
06/29/2013  17:06:00     -286.959     -142.000       -0.276      128.780      102.258       56.369    16584.314    10456.722     3177.462        6.636        1.511      320.171       56.678        0.031      352.687       35.523      860.501
06/29/2013  17:07:00     -452.495     -217.821      -13.237      159.338      117.829       70.924    25388.567    13883.627     5030.143       14.833        2.215      502.193       70.281        0.020      352.692       35.532      860.483
06/29/2013  17:08:00     -303.937     -272.471       13.703      235.211      215.945      112.646    55324.027    46632.329    12689.212       14.070        5.732      408.189      136.350        0.112      352.720       35.581      860.465
06/29/2013  17:09:00     -156.099      -63.233        9.840      146.282      126.811       83.808    21398.431    16080.993     7023.735        3.647        2.225      168.419       81.341        0.233      352.851       35.811      860.494
06/29/2013  17:10:00     -283.855      -29.459      -15.251      132.921      104.859       57.898    17667.992    10995.512     3352.128        5.684        1.601      285.379       57.859        0.041      352.986       36.046      860.522
06/29/2013  17:11:00     -450.154     -105.095      -21.053      175.512      160.597       72.561    30804.327    25791.339     5265.115       13.798        3.093      462.259       64.673        0.020      352.769       35.665      860.528
06/29/2013  17:12:00     -507.760      -35.052      -43.303      165.469      167.532       71.485    27379.950    28066.922     5110.049       16.073        3.028      508.969       78.428        0.024      352.550       35.282      860.516
06/29/2013  17:13:00     -331.150     -101.777      -29.507      152.400      129.047       68.064    23225.698    16653.172     4632.655        8.269        2.226      346.438       66.386        0.037      352.570       35.317      860.531
06/29/2013  17:14:00     -270.881      -32.803      -21.122      145.845      138.798       58.261    21270.689    19264.819     3394.329        5.941        2.196      272.860       57.662        0.045      352.668       35.489      860.509
06/29/2013  17:15:00     -224.280      149.730      -36.087      171.414      128.798       73.700    29382.833    16588.887     5431.730        6.270        2.570      269.667       86.225        0.102      352.517       35.225      860.483
06/29/2013  17:16:00       11.436       74.396       14.739      217.445      131.814       99.289    47282.156    17375.002     9858.386        4.018        3.726       75.270       96.314        1.637      352.584       35.344      860.255
06/29/2013  17:17:00     -278.608     -114.279      -13.596      165.719      156.216       82.715    27462.709    24403.310     6841.821        7.478        2.935      301.135       90.057        0.089      352.695       35.538      860.413
06/29/2013  17:18:00     -304.324       -9.696      -12.260      142.853       91.752       60.214    20407.085     8418.349     3625.682        6.265        1.623      304.478       64.444        0.045      352.889       35.877      860.477
06/29/2013  17:19:00     -530.895       -9.970      -61.664      148.037      114.169       74.725    21914.901    13034.451     5583.774       16.313        2.027      530.989       72.110        0.018      352.636       35.433      860.497
06/29/2013  17:20:00     -374.522      -44.722      -33.623      113.138      116.487       63.677    12800.189    13569.290     4054.731        8.690        1.521      377.182       59.026        0.024      352.637       35.434      860.505
06/29/2013  17:21:00     -257.475      -34.875      -26.149      122.670      104.523       48.986    15048.009    10925.050     2399.605        4.828        1.419      259.827       53.498        0.042      352.715       35.573      860.515
06/29/2013  17:22:00      -53.363       58.008       -3.298       73.660       50.943       52.173     5425.767     2595.204     2721.976        0.848        0.537       78.820       51.406        0.425      352.804       35.732      860.508
06/29/2013  17:23:00     -107.463       37.811      -13.509       88.523       88.408       46.983     7836.351     7816.037     2207.377        1.551        0.893      113.921       54.932        0.233      352.715       35.575      860.513
06/29/2013  17:24:00     -173.600       -2.807        0.326      159.542       87.613       55.357    25453.750     7676.121     3064.382        3.316        1.810      173.623       47.120        0.074      352.786       35.697      860.481
06/29/2013  17:25:00      -79.076      164.405       -9.357       88.027      114.339       45.826     7748.760    13073.300     2100.017        2.814        1.146      182.433       55.852        0.094      352.656       35.469      860.490
06/29/2013  17:26:00     -187.694       18.760      -18.217      174.317      115.436       53.662    30386.521    13325.503     2879.658        4.124        2.330      188.630       66.736        0.125      352.794       35.712      860.505
06/29/2013  17:27:00     -394.316     -111.126      -24.327      237.252      119.140       73.330    56288.335    14194.408     5377.223       12.213        3.793      409.675       74.738        0.033      352.495       35.186      860.458
06/29/2013  17:28:00      -98.856      -23.664        4.016      117.764       68.841       51.855    13868.415     4739.040     2688.918        1.582        1.065      101.649       56.059        0.304      352.613       35.396      860.483
06/29/2013  17:29:00     -202.191       64.125      -19.199      126.585      140.874       77.298    16023.684    19845.501     5974.992        4.359        2.092      212.116       69.868        0.108      352.562       35.306      860.485
06/29/2013  17:30:00     -285.319      239.911      -42.784      154.545      139.274       85.579    23884.264    19397.208     7323.842        9.569        2.530      372.780       92.132        0.061      352.377       34.980      860.458
06/29/2013  17:31:00     -167.758      175.922      -26.831      120.752      135.457       59.960    14580.959    18348.483     3595.186        4.816        1.826      243.086       60.675        0.062      352.431       35.075      860.447
06/29/2013  17:32:00     -302.394      125.003      -49.668      163.328      123.717       78.539    26675.883    15306.012     6168.391        7.883        2.408      327.213       80.407        0.060      352.579       35.336      860.461
06/29/2013  17:33:00     -186.448       92.161       12.990      203.062      152.962       98.457    41234.287    23397.495     9693.784        5.886        3.716      207.982      120.229        0.334      352.462       35.131      860.455
06/29/2013  17:34:00     -222.614       51.605      -18.955      185.970      158.369       92.158    34584.708    25080.615     8493.180        6.036        3.408      228.517       90.893        0.158      352.441       35.094      860.466
06/29/2013  17:35:00     -228.471      181.591      -37.287      176.157      119.731       94.483    31031.228    14335.428     8927.065        7.042        2.715      291.847       92.529        0.101      352.346       34.927      860.471
06/29/2013  17:36:00     -172.109       68.358      -20.503       83.816       98.251       63.699     7025.195     9653.305     4057.618        2.772        1.037      185.187       45.702        0.061      352.486       35.171      860.495
06/29/2013  17:37:00     -179.751       -7.122      -11.809       96.634       80.409       57.317     9338.142     6465.612     3285.191        2.579        0.954      179.893       48.894        0.074      352.650       35.459      860.508
06/29/2013  17:38:00     -241.059      -52.208       -2.555      197.468      141.489       72.033    38993.677    20019.014     5188.777        6.251        3.210      246.648      102.170        0.172      352.442       35.094      860.497
06/29/2013  17:39:00     -159.846      174.023      -33.816       83.324       96.844       42.707     6942.928     9378.673     1823.880        3.756        0.907      236.294       37.349        0.025      352.376       34.978      860.498
06/29/2013  17:40:00     -143.665      183.684      -13.758      107.122      139.905       60.042    11475.056    19573.389     3605.078        4.460        1.733      233.194       57.570        0.061      352.386       34.996      860.486
06/29/2013  17:41:00     -266.218       59.057      -31.439      180.373       91.092       60.026    32534.268     8297.800     3603.120        5.988        2.222      272.689       78.384        0.083      352.330       34.900      860.444
06/29/2013  17:42:00     -119.967      124.309       10.380      133.710      130.895       81.386    17878.255    17133.441     6623.602        3.579        2.082      172.757       65.532        0.144      352.412       35.042      860.433
06/29/2013  17:43:00     -396.355      -83.170      -24.665      203.554      185.124       87.925    41434.195    34271.050     7730.727       12.401        4.172      404.987       96.767        0.057      352.492       35.181      860.442
06/29/2013  17:44:00     -343.070      -19.973      -20.999      171.562      147.908       69.795    29433.506    21876.636     4871.350        8.735        2.809      343.651       73.921        0.046      352.431       35.075      860.461
06/29/2013  17:45:00     -258.152      -33.109      -17.736      130.469      104.961       71.915    17022.130    11016.803     5171.803        5.063        1.661      260.266       50.944        0.038      352.534       35.254      860.472
06/29/2013  17:46:00     -288.528      -83.887      -34.278      114.464      119.562       62.899    13101.955    14295.150     3956.267        6.140        1.568      300.475       32.196        0.011      352.479       35.159      860.469
06/29/2013  17:47:00     -228.774       30.623      -29.305      138.043      127.841       67.314    19055.750    16343.398     4531.115        4.702        1.997      230.815       56.040        0.059      352.507       35.207      860.434
06/29/2013  17:48:00     -265.413       82.487      -30.944      119.546      116.966       61.139    14291.147    13681.075     3737.930        5.495        1.586      277.936       65.177        0.055      352.486       35.172      860.449
06/29/2013  17:49:00     -365.177     -107.642      -30.591      210.072      150.590       80.253    44130.280    22677.219     6440.508       10.955        3.662      380.711       90.653        0.057      352.461       35.127      860.426
06/29/2013  17:50:00     -267.760      -29.237      -37.744      125.432      127.061       57.566    15733.310    16144.470     3313.790        5.458        1.760      269.351       51.166        0.036      352.509       35.210      860.450
06/29/2013  17:51:00     -289.715      -60.215       -9.575      138.220      137.879       55.978    19104.665    19010.593     3133.572        6.444        2.062      295.906       55.530        0.035      352.501       35.198      860.479
06/29/2013  17:52:00     -345.682      -59.391      -10.350      178.821      114.967       67.950    31976.782    13217.518     4617.220        8.646        2.491      350.747       64.811        0.034      352.474       35.149      860.464
06/29/2013  17:53:00     -431.626      -26.234      -30.713      198.679      112.941       70.246    39473.348    12755.696     4934.470       12.254        2.858      432.422       67.649        0.024      352.267       34.786      860.468
06/29/2013  17:54:00     -190.854      -36.631       -5.886      206.673      110.394       75.708    42713.682    12186.929     5731.637        4.920        3.032      194.337       81.994        0.178      352.415       35.047      860.416
06/29/2013  17:55:00     -100.947      100.738      -16.849       75.614       98.706       52.192     5717.458     9742.953     2724.001        1.940        0.909      142.613       38.002        0.071      352.434       35.083      860.422
06/29/2013  17:56:00     -142.725       97.857      -10.179       82.251       72.717       66.491     6765.309     5287.714     4421.106        2.326        0.824      173.050       54.290        0.098      352.476       35.155      860.421
06/29/2013  17:57:00     -242.687       69.722      -30.034      149.700      155.837       73.109    22410.188    24285.182     5344.988        5.834        2.602      252.504       91.791        0.132      352.469       35.142      860.426
06/29/2013  17:58:00     -254.507        8.029      -54.984      105.083      167.771       74.113    11042.353    28147.004     5492.747        5.626        2.234      254.634       66.180        0.068      352.434       35.080      860.408
06/29/2013  17:59:00     -340.502      -53.767      -35.826      146.106      141.376       64.721    21346.944    19987.185     4188.771        8.281        2.276      344.721       62.248        0.033      352.297       34.840      860.389
06/29/2013  18:00:00     -150.028       45.459       -7.209      103.184      134.800       63.156    10646.846    18171.000     3988.643        2.871        1.640      156.764       51.950        0.110      352.388       35.001      860.415
06/29/2013  18:01:00      -95.388      131.961      -17.028       67.234       95.150       49.776     4520.368     9053.448     2477.675        2.142        0.803      162.826       35.286        0.047      352.329       34.900      860.410
06/29/2013  18:02:00     -167.229      343.438      -57.496       93.290      174.635       64.889     8702.973    30497.407     4210.545        9.631        2.171      381.988       71.617        0.035      352.171       34.619      860.409
06/29/2013  18:03:00     -162.905      181.319      -18.779      116.608      106.987       53.195    13597.313    11446.143     2829.702        4.381        1.394      243.751       41.631        0.029      352.275       34.800      860.354
06/29/2013  18:04:00     -213.182      261.428      -39.676       99.071      161.362       62.088     9815.001    26037.767     3854.866        7.753        1.985      337.330       61.190        0.033      352.312       34.866      860.355
06/29/2013  18:05:00     -274.194      128.455      -30.741      117.876      179.802       85.024    13894.828    32328.690     7229.156        7.303        2.673      302.792       71.268        0.055      352.318       34.876      860.428
06/29/2013  18:06:00     -301.287      -83.973      -16.491      113.652      108.786       61.374    12916.794    11834.319     3766.707        6.330        1.426      312.771       35.112        0.013      352.417       35.051      860.458
06/29/2013  18:07:00     -345.786     -145.547      -30.607      117.736      111.565       71.981    13861.828    12446.839     5181.312        8.658        1.574      375.169       62.676        0.028      352.396       35.013      860.455
06/29/2013  18:08:00     -302.464      -70.634      -15.112      167.239      118.340       65.352    27968.785    14004.375     4270.840        7.146        2.312      310.602       79.298        0.065      352.462       35.131      860.479
06/29/2013  18:09:00     -222.263      -25.046       -7.046      110.365       95.400       45.581    12180.508     9101.122     2077.662        3.671        1.168      223.669       45.571        0.042      352.433       35.079      860.496
06/29/2013  18:10:00     -282.333     -133.565        0.861      144.284      125.693       65.206    20817.945    15798.661     4251.790        6.920        2.043      312.332       59.425        0.036      352.426       35.066      860.511
06/29/2013  18:11:00     -106.845      -37.821        3.151      128.548       76.227       59.471    16524.484     5810.517     3536.845        1.936        1.294      113.342       58.733        0.269      352.519       35.232      860.529
06/29/2013  18:12:00     -151.854      -92.002       -7.825      110.829       89.353       59.062    12283.020     7983.972     3488.371        2.767        1.188      177.550       48.996        0.076      352.378       34.984      860.533
06/29/2013  18:13:00      -92.261       85.107       -3.063       95.938       98.656       54.279     9204.168     9732.980     2946.249        1.882        1.094      125.520       41.118        0.107      352.263       34.784      860.543
06/29/2013  18:14:00     -107.141       29.599        2.141       73.880       76.169       45.403     5458.325     5801.660     2061.397        1.284        0.666      111.154       36.738        0.109      352.216       34.701      860.522
06/29/2013  18:15:00     -189.813      -16.273       -7.776      101.925       84.145       52.749    10388.616     7080.324     2782.490        2.830        1.013      190.509       47.133        0.061      352.349       34.933      860.534
06/29/2013  18:16:00      -85.093      -74.580        1.405      110.629      124.600       55.078    12238.666    15525.179     3033.602        2.179        1.540      113.150       56.362        0.248      352.412       35.045      860.550
06/29/2013  18:17:00     -203.528       -3.119       -9.468       93.770       83.960       42.606     8792.803     7049.294     1815.258        2.959        0.883      203.552       45.952        0.051      352.475       35.153      860.573
06/29/2013  18:18:00     -295.377      -75.821       -4.253      126.703       95.104       63.574    16053.551     9044.863     4041.670        6.107        1.457      304.953       66.986        0.048      352.394       35.011      860.558
06/29/2013  18:19:00     -307.895      -85.297      -19.082      102.560       88.140       52.620    10518.456     7768.713     2768.829        6.174        1.053      319.492       47.135        0.022      352.374       34.975      860.577
06/29/2013  18:20:00     -300.452      -24.086       -6.615      137.966       90.485       56.467    19034.630     8187.445     3188.471        6.065        1.521      301.416       60.459        0.040      352.457       35.119      860.568
06/29/2013  18:21:00     -353.510     -106.856       -9.351      126.864      111.089       57.192    16094.464    12340.765     3270.922        8.408        1.585      369.307       54.901        0.022      352.321       34.881      860.591
06/29/2013  18:22:00     -418.376       69.967      -38.675      118.326      105.342       57.547    14000.931    11096.877     3311.601       10.491        1.420      424.186       49.955        0.014      352.393       35.008      860.601
06/29/2013  18:23:00     -238.118      -73.927       -3.104       99.296       80.706       49.794     9859.639     6513.507     2479.450        4.051        0.943      249.330       36.232        0.021      352.488       35.174      860.609
06/29/2013  18:24:00     -223.925      -43.801       -6.336      136.451      107.773       63.643    18618.819    11614.934     4050.375        4.319        1.714      228.168       67.059        0.086      352.441       35.092      860.636
06/29/2013  18:25:00     -338.506     -108.535      -23.773      104.031      122.073       45.601    10822.400    14901.906     2079.467        7.736        1.390      355.480       37.050        0.011      352.360       34.949      860.651
06/29/2013  18:26:00     -346.115      -52.706      -30.323      129.295      121.765       60.558    16717.217    14826.797     3667.278        7.934        1.761      350.105       60.043        0.029      352.177       34.631      860.671
06/29/2013  18:27:00     -231.803     -109.060        3.799      131.328      101.837       57.428    17247.152    10370.733     3297.928        4.827        1.546      256.177       62.612        0.060      352.219       34.704      860.677
06/29/2013  18:28:00     -173.747       27.346      -13.535      102.153       73.710       44.011    10435.177     5433.145     1936.997        2.446        0.890      175.886       47.038        0.072      352.241       34.744      860.697
06/29/2013  18:29:00     -298.577      -17.864      -28.296       87.613       80.705       39.187     7676.096     6513.348     1535.582        5.299        0.786      299.111       37.100        0.015      352.188       34.650      860.698
06/29/2013  18:30:00     -204.341      -14.722       -9.078      174.340       92.382       45.490    30394.325     8534.429     2069.361        4.152        2.050      204.871       46.410        0.051      352.147       34.579      860.700
06/29/2013  18:31:00      -66.942      106.869       -9.182       94.370      103.265       61.690     8905.745    10663.584     3805.598        1.968        1.169      126.104       51.561        0.167      352.186       34.648      860.706
06/29/2013  18:32:00      -91.823      146.034      -12.292       82.964      108.735       49.173     6882.981    11823.330     2417.990        2.551        1.056      172.503       45.913        0.071      352.098       34.495      860.718
06/29/2013  18:33:00     -185.162       69.000      -18.698      104.261       61.357       44.457    10870.395     3764.741     1976.464        2.800        0.831      197.601       50.222        0.065      352.146       34.578      860.667
06/29/2013  18:34:00     -147.652      -98.219       -5.304      115.118       59.215       32.752    13252.039     3506.371     1072.695        2.465        0.892      177.336       28.099        0.025      352.263       34.783      860.656
06/29/2013  18:35:00     -336.967      -64.393       -7.406      100.019       91.131       57.172    10003.714     8304.946     3268.607        6.966        1.079      343.064       56.373        0.027      352.242       34.744      860.659
06/29/2013  18:36:00     -317.042      -88.961      -17.825      114.227      101.773       55.412    13047.831    10357.683     3070.446        6.761        1.324      329.287       54.321        0.027      352.303       34.849      860.665
06/29/2013  18:37:00     -446.643     -114.558      -24.717      145.398      107.295       62.290    21140.484    11512.124     3880.070       12.487        1.827      461.100       73.664        0.026      352.243       34.744      860.695
06/29/2013  18:38:00     -330.288      -91.527      -16.611      148.355      140.583       69.663    22009.311    19763.548     4852.987        8.218        2.331      342.735       71.858        0.044      352.266       34.785      860.733
06/29/2013  18:39:00     -338.656       43.745      -33.494      125.852      103.593       54.508    15838.694    10731.509     2971.167        7.363        1.477      341.469       59.875        0.031      352.312       34.865      860.772
06/29/2013  18:40:00     -261.675      -46.748       -6.523      142.310      113.099       64.338    20252.272    12791.337     4139.421        5.393        1.859      265.818       79.464        0.089      352.347       34.928      860.769
06/29/2013  18:41:00     -239.784      -96.128      -12.400       96.091       72.906       49.310     9233.472     5315.315     2431.498        4.193        0.849      258.336       39.263        0.023      352.198       34.668      860.766
06/29/2013  18:42:00     -192.524      -65.558      -18.532      106.192       77.661       49.371    11276.820     6031.226     2437.494        3.072        0.987      203.380       35.605        0.031      352.172       34.625      860.757
06/29/2013  18:43:00      -52.324      149.672       -7.211       95.120      126.618       60.391     9047.756    16032.094     3647.075        2.695        1.436      158.555       78.073        0.242      352.067       34.441      860.718
06/29/2013  18:44:00     -139.630      400.334      -46.949      184.089      263.800       87.154    33888.848    69590.216     7595.739       14.650        5.554      423.986       70.718        0.028      352.042       34.392      860.642
06/29/2013  18:45:00     -557.696      -40.221      -49.727      287.022      168.334       86.113    82381.637    28336.328     7415.417       21.660        5.907      559.144      122.949        0.048      352.151       34.585      860.610
06/29/2013  18:46:00     -194.957       15.828      -10.143      104.271       82.480       51.085    10872.511     6802.978     2609.661        2.932        1.014      195.598       47.290        0.058      352.303       34.851      860.752
06/29/2013  18:47:00     -205.136       -4.064      -35.258       62.942       88.415       42.087     3961.686     7817.195     1771.315        2.844        0.678      205.177       31.172        0.023      352.255       34.768      860.799
06/29/2013  18:48:00     -185.235       58.621      -26.687       71.572       81.469       37.120     5122.591     6637.270     1377.929        2.580        0.657      194.289       38.228        0.039      352.101       34.501      860.792
06/29/2013  18:49:00     -249.903      -36.535      -29.219      129.352       94.755       55.924    16731.851     8978.559     3127.479        4.673        1.442      252.559       66.735        0.070      352.176       34.627      860.780
06/29/2013  18:50:00     -220.735      -53.088       -6.198      118.224       79.267       41.074    13976.887     6283.262     1687.069        3.676        1.097      227.029       37.011        0.027      352.071       34.445      860.763
06/29/2013  18:51:00     -176.678       69.779      -22.719       98.848       93.321       43.310     9770.950     8708.832     1875.786        2.847        1.018      189.958       46.081        0.059      352.076       34.453      860.762
06/29/2013  18:52:00     -153.599      -17.629      -11.638       59.778       79.584       36.464     3573.395     6333.570     1329.618        1.764        0.562      154.608       29.397        0.036      352.178       34.635      860.753
06/29/2013  18:53:00     -159.704      -32.990       -8.299       72.927       68.867       32.015     5318.408     4742.729     1024.941        1.887        0.554      163.075       28.125        0.030      352.165       34.612      860.745
06/29/2013  18:54:00     -190.905      -28.920      -23.062       49.708       53.630       36.769     2470.925     2876.216     1351.929        2.225        0.335      193.084       28.518        0.022      352.186       34.648      860.738
06/29/2013  18:55:00     -221.988       -9.109      -22.143       65.260       87.843       40.398     4258.907     7716.464     1632.024        3.173        0.680      222.174       24.728        0.012      352.204       34.677      860.750
06/29/2013  18:56:00     -154.446      -24.669       -7.042       61.109       60.405       43.724     3734.273     3648.721     1911.770        1.690        0.465      156.403       35.611        0.052      352.219       34.706      860.773
06/29/2013  18:57:00     -125.551       70.628       -6.607       95.358      110.306       51.562     9093.116    12167.492     2658.657        2.235        1.196      144.054       54.051        0.141      352.138       34.564      860.785
06/29/2013  18:58:00      -61.511       83.219       -7.520       49.703       77.522       34.181     2470.365     6009.666     1168.315        1.020        0.482      103.484       36.529        0.125      352.099       34.497      860.780
06/29/2013  18:59:00     -157.556       27.965       -7.445       69.933       94.791       46.143     4890.620     8985.339     2129.161        2.083        0.800      160.018       49.732        0.097      352.206       34.684      860.772
06/29/2013  19:00:00     -213.680      -38.307      -17.237       68.443       68.863       32.279     4684.385     4742.046     1041.957        2.894        0.523      217.086       30.082        0.019      352.031       34.374      860.777
06/29/2013  19:01:00     -220.753       42.681      -11.932      130.918       72.862       37.322    17139.491     5308.931     1392.959        3.726        1.192      224.841       43.091        0.037      351.924       34.189      860.762
06/29/2013  19:02:00     -136.603      119.134      -43.287       68.462       99.442       37.686     4687.017     9888.758     1420.201        2.536        0.800      181.255       34.497        0.036      351.933       34.205      860.745
06/29/2013  19:03:00      -92.615      -22.415       -4.078       55.243       54.283       22.715     3051.822     2946.603      515.956        0.780        0.326       95.289       10.785        0.013      352.187       34.652      860.722
06/29/2013  19:04:00     -217.553        3.598      -26.193       95.676       95.744       40.919     9153.975     9166.856     1674.396        3.401        1.000      217.583       35.824        0.027      351.877       34.107      860.750
06/29/2013  19:05:00     -138.400       15.721      -25.729       79.930       80.945       54.808     6388.775     6552.108     3003.909        1.800        0.797      139.290       42.878        0.095      351.913       34.172      860.765
06/29/2013  19:06:00     -169.838      138.320      -32.430       98.067       87.772       50.233     9617.105     7703.943     2523.390        3.443        0.992      219.037       58.151        0.070      351.827       34.020      860.760
06/29/2013  19:07:00     -194.323      140.479      -28.626       90.671      123.908       55.964     8221.161    15353.120     3131.948        4.251        1.335      239.783       60.054        0.063      351.768       33.916      860.750
06/29/2013  19:08:00     -161.400       25.951      -20.505       51.269       89.251       42.802     2628.501     7965.735     1831.975        1.978        0.621      163.473       23.923        0.021      351.887       34.125      860.771
06/29/2013  19:09:00     -182.872      -15.691      -21.235       79.587       81.681       39.428     6334.086     6671.805     1554.565        2.435        0.728      183.544       33.918        0.034      351.867       34.090      860.789
06/29/2013  19:10:00      -98.903       52.148       -0.949       71.134       61.647       43.221     5060.110     3800.304     1868.058        1.161        0.536      111.809       29.788        0.071      351.899       34.147      860.789
06/29/2013  19:11:00     -154.811       40.079      -28.609       47.120       81.530       45.930     2220.321     6647.144     2109.539        1.868        0.549      159.915       16.863        0.011      351.872       34.100      860.785
06/29/2013  19:12:00      -46.668       42.978       10.071       53.332       48.754       37.824     2844.311     2376.970     1430.640        0.539        0.333       63.443       30.555        0.232      351.885       34.124      860.779
06/29/2013  19:13:00     -128.019       55.632      -17.430       76.479       96.164       51.947     5849.065     9247.519     2698.503        1.879        0.890      139.585       44.406        0.101      351.849       34.061      860.770
06/29/2013  19:14:00     -189.071      -34.273       -9.522      114.286       57.567       41.412    13061.357     3313.922     1714.992        2.755        0.905      192.152       32.941        0.029      351.900       34.150      860.770
06/29/2013  19:15:00     -215.652        2.414      -24.118       68.031       67.104       32.141     4628.187     4502.955     1033.045        2.863        0.508      215.666       20.983        0.009      351.853       34.065      860.762
06/29/2013  19:16:00     -185.147      -38.534       -5.343       90.915       62.959       44.193     8265.483     3963.811     1953.065        2.498        0.709      189.114       46.117        0.059      351.853       34.064      860.759
06/29/2013  19:17:00     -129.105      -20.459        7.522      117.882       83.491       30.484    13896.155     6970.797      929.301        1.947        1.090      130.716       33.091        0.064      351.778       33.936      860.772
06/29/2013  19:18:00     -116.087      114.550      -29.665       58.865       69.433       32.664     3465.054     4820.931     1066.945        1.841        0.468      163.088       28.972        0.032      351.738       33.865      860.780
06/29/2013  19:19:00      -81.442       62.422      -15.132       34.603       49.631       30.379     1197.392     2463.252      922.903        0.767        0.229      102.612       30.914        0.091      351.844       34.050      860.775
06/29/2013  19:20:00     -167.947      112.126      -20.047       69.452       56.134       38.099     4823.533     3151.061     1451.505        2.530        0.471      201.937       36.703        0.033      351.773       33.926      860.764
06/29/2013  19:21:00     -148.267      111.222      -31.672       80.422       60.683       40.254     6467.732     3682.413     1620.416        2.356        0.589      185.347       43.071        0.054      351.834       34.032      860.762
06/29/2013  19:22:00     -117.131       95.576      -23.989       95.397       68.977       50.183     9100.617     4757.780     2518.284        1.990        0.819      151.176       46.760        0.096      351.864       34.085      860.776
06/29/2013  19:23:00     -147.117       36.354      -30.792       85.288      123.952       38.207     7273.972    15364.135     1459.786        2.400        1.205      151.543       29.085        0.037      351.867       34.089      860.770
06/29/2013  19:24:00     -180.558      -26.593      -14.818       85.387       74.729       45.299     7291.011     5584.407     2051.983        2.422        0.746      182.506       45.789        0.063      351.818       34.004      860.784
06/29/2013  19:25:00     -273.846      -82.175      -17.763       96.033       85.793       55.569     9222.370     7360.384     3087.870        5.086        0.984      285.910       37.633        0.017      351.694       33.790      860.794
06/29/2013  19:26:00     -212.845      -38.814      -24.061       72.025       81.529       44.010     5187.608     6647.023     1936.917        3.058        0.689      216.355       16.264        0.006      351.674       33.753      860.802
06/29/2013  19:27:00     -168.375      -70.998      -11.308       72.467       51.711       36.205     5251.427     2674.078     1310.810        2.138        0.462      182.732       33.470        0.034      351.553       33.543      860.820
06/29/2013  19:28:00      -73.527      -53.482        4.011       77.572       55.882       41.610     6017.346     3122.804     1731.400        0.957        0.544       90.920       37.750        0.172      351.652       33.717      860.833
06/29/2013  19:29:00     -174.601      -66.590       -7.378       90.595       53.548       38.750     8207.513     2867.368     1501.571        2.377        0.629      186.868       31.544        0.028      351.589       33.604      860.836
06/29/2013  19:30:00     -171.467      -14.799       -5.390      101.749       86.520       49.373    10352.952     7485.751     2437.707        2.496        1.014      172.105       55.629        0.104      351.564       33.562      860.865
06/29/2013  19:31:00     -135.627       43.749      -14.427       86.026       88.991       49.419     7400.542     7919.456     2442.256        1.914        0.888      142.509       53.684        0.142      351.594       33.616      860.873
06/29/2013  19:32:00     -208.805       19.150      -26.911      119.436      110.461       51.778    14264.932    12201.618     2680.927        3.691        1.457      209.681       40.337        0.037      351.612       33.646      860.877
06/29/2013  19:33:00     -116.365      144.033       -9.593       78.739      136.580       48.632     6199.848    18654.089     2365.110        3.079        1.361      185.165       53.749        0.084      351.606       33.637      860.897
06/29/2013  19:34:00     -134.441      127.621      -13.482       78.492       93.753       40.960     6161.025     8789.601     1677.762        2.558        0.831      185.368       39.526        0.045      351.591       33.610      860.900
06/29/2013  19:35:00     -142.607      115.961      -25.187       71.067       79.517       38.089     5050.562     6322.972     1450.787        2.362        0.641      183.803       45.209        0.060      351.684       33.771      860.903
06/29/2013  19:36:00     -168.556       11.472       -2.052       96.648       69.006       58.844     9340.864     4761.782     3462.607        2.305        0.878      168.946       32.663        0.037      351.729       33.851      860.917
06/29/2013  19:37:00     -199.684       25.803      -32.727       68.419       98.061       51.249     4681.098     9616.037     2626.509        2.926        0.846      201.344       31.729        0.025      351.630       33.677      860.925
06/29/2013  19:38:00     -185.644       94.217      -38.985      123.278       68.288       48.980    15197.428     4663.246     2399.002        3.356        1.113      208.184       42.762        0.042      351.595       33.617      860.926
06/29/2013  19:39:00     -199.005      115.084      -27.436       97.516      112.315       58.298     9509.348    12614.710     3398.638        3.956        1.276      229.885       52.791        0.053      351.569       33.570      860.927
06/29/2013  19:40:00      -94.620      144.427      -20.779       49.971       81.186       40.489     2497.121     6591.194     1639.321        2.048        0.536      172.662       28.793        0.028      351.554       33.544      860.924
06/29/2013  19:41:00     -115.991       85.649      -12.633       67.686       74.353       42.632     4581.390     5528.393     1817.448        1.644        0.596      144.186       30.798        0.046      351.542       33.527      860.929
06/29/2013  19:42:00     -194.354      123.278      -35.111      114.275      109.822       71.592    13058.767    12060.882     5125.370        4.222        1.512      230.154       58.680        0.065      351.520       33.484      860.942
06/29/2013  19:43:00     -163.890       55.420      -20.887       91.976       52.823       46.144     8459.565     2790.312     2129.271        2.187        0.669      173.006       51.069        0.087      351.525       33.495      860.944
06/29/2013  19:44:00     -185.889       65.005       -5.458       72.699       92.972       52.100     5285.195     8643.859     2714.392        2.772        0.832      196.927       37.067        0.035      351.492       33.435      860.956
06/29/2013  19:45:00     -125.435      148.955      -17.990       62.152      125.654       55.329     3862.826    15788.978     3061.250        3.047        1.136      194.735       34.124        0.031      351.445       33.353      860.951
06/29/2013  19:46:00     -151.224       38.594      -14.071       76.432       98.554       51.578     5841.811     9712.795     2660.240        2.138        0.911      156.072       51.980        0.111      351.424       33.317      860.954
06/29/2013  19:47:00     -219.734       93.648      -32.454       93.192      129.409       54.491     8684.830    16746.597     2969.249        4.325        1.420      238.857       57.371        0.058      351.419       33.310      860.949
06/29/2013  19:48:00     -114.408       29.986       -7.879       70.640       98.900       56.198     4989.994     9781.304     3158.261        1.599        0.896      118.272       45.069        0.145      351.403       33.283      860.955
06/29/2013  19:49:00     -123.611      124.126      -23.586       74.659       92.890       51.283     5573.897     8628.620     2629.934        2.403        0.842      175.176       50.906        0.084      351.337       33.166      860.964
06/29/2013  19:50:00     -194.768      118.521      -47.209       85.143       82.672       45.311     7249.335     6834.649     2053.110        3.517        0.807      227.996       39.763        0.030      351.347       33.182      860.973
06/29/2013  19:51:00     -155.715       80.751      -21.590       90.284       72.016       51.308     8151.250     5186.245     2632.494        2.360        0.798      175.408       45.866        0.068      351.264       33.038      860.974
06/29/2013  19:52:00     -211.628       62.748      -23.492      107.009       97.687       57.633    11450.840     9542.740     3321.560        3.679        1.216      220.735       60.902        0.076      351.315       33.127      860.976
06/29/2013  19:53:00     -100.214       57.586       -2.349       61.503       71.458       47.099     3782.609     5106.260     2218.272        1.223        0.555      115.581       31.144        0.073      351.245       33.008      860.972
06/29/2013  19:54:00     -124.916       84.330      -12.578       60.426       80.957       39.335     3651.329     6553.966     1547.223        1.731        0.588      150.717       29.364        0.038      351.218       32.959      860.978
06/29/2013  19:55:00     -195.245      -18.304      -11.952       69.809      103.567       48.330     4873.289    10726.086     2335.792        2.826        0.897      196.101       30.524        0.024      351.043       32.651      860.988
06/29/2013  19:56:00     -237.261       -1.270      -17.678       72.812       73.262       41.278     5301.558     5367.376     1703.899        3.449        0.619      237.265       41.723        0.031      351.010       32.594      860.986
06/29/2013  19:57:00     -167.358      -19.520      -13.388       68.867       48.382       34.831     4742.671     2340.781     1213.191        1.843        0.415      168.493       28.430        0.028      350.980       32.543      860.983
06/29/2013  19:58:00     -157.258      -45.011       -4.652       55.415       56.315       31.372     3070.829     3171.407      984.233        1.700        0.361      163.573       30.335        0.034      350.863       32.341      860.991
06/29/2013  19:59:00     -171.410      -27.392      -20.221       64.273       61.242       32.106     4130.968     3750.588     1030.766        1.972        0.446      173.585       22.029        0.016      350.784       32.203      860.997
06/29/2013  20:00:00     -127.979      -17.619      -17.479       75.886       43.719       40.758     5758.667     1911.327     1661.212        1.316        0.467      129.186       40.326        0.097      350.784       32.204      860.996
06/29/2013  20:01:00      -99.459       53.457       -5.723       52.755       65.787       38.602     2783.122     4327.952     1490.104        1.069        0.430      112.914       29.537        0.068      350.712       32.077      860.992
06/29/2013  20:02:00      -60.051        2.212        5.916       41.606       56.012       29.043     1731.059     3137.358      843.520        0.468        0.286       60.092       22.616        0.142      350.629       31.935      860.999
06/29/2013  20:03:00     -106.899       10.873      -13.776       44.106       39.642       27.923     1945.337     1571.528      779.677        0.802        0.215      107.451       28.008        0.068      350.588       31.865      860.999
06/29/2013  20:04:00     -126.803      -14.026      -14.542       57.978       53.836       34.048     3361.453     2898.337     1159.239        1.195        0.371      127.576       20.210        0.025      350.589       31.864      860.985
06/29/2013  20:05:00     -139.453      -31.459       -7.768       81.163       48.728       31.431     6587.494     2374.388      987.899        1.522        0.497      142.957       35.583        0.062      350.525       31.752      860.985
06/29/2013  20:06:00     -128.251      -11.984      -13.902       49.284       51.533       30.390     2428.923     2655.669      923.535        1.140        0.300      128.809       27.180        0.045      350.535       31.771      860.986
06/29/2013  20:07:00     -114.579      -43.380      -16.587       64.707       55.101       37.756     4186.948     3036.159     1425.545        1.197        0.432      122.516       24.145        0.039      350.565       31.824      860.977
06/29/2013  20:08:00     -147.708      -23.488      -23.035       64.189       54.731       42.370     4120.172     2995.487     1795.248        1.590        0.446      149.564       27.744        0.034      350.584       31.856      860.984
06/29/2013  20:09:00     -117.246      -14.032      -15.222       58.946       60.334       38.299     3474.586     3640.186     1466.784        1.138        0.429      118.083       35.639        0.091      350.511       31.730      860.984
06/29/2013  20:10:00      -99.759      -13.293      -11.682       53.292       46.256       28.266     2839.994     2139.650      798.974        0.802        0.289      100.641       24.621        0.060      350.536       31.774      860.989
06/29/2013  20:11:00     -112.018       -1.173      -22.154       32.785       52.467       23.003     1074.889     2752.809      529.156        0.870        0.218      112.024        7.722        0.005      350.564       31.820      861.006
06/29/2013  20:12:00      -57.431       25.435        4.126       38.208       45.303       26.647     1459.850     2052.385      710.047        0.409        0.211       62.811       13.986        0.050      350.521       31.746      861.017
06/29/2013  20:13:00     -109.790       20.175       -8.291       52.377       38.230       32.481     2743.348     1461.531     1054.988        0.889        0.263      111.628       30.650        0.075      350.473       31.663      861.035
06/29/2013  20:14:00     -104.308       21.306      -25.815       48.554       58.006       30.810     2357.480     3364.704      949.265        0.933        0.334      106.461        6.398        0.004      350.536       31.773      861.041
06/29/2013  20:15:00      -88.852       54.184      -21.229       44.789       75.615       43.705     2006.046     5717.557     1910.137        1.046        0.482      104.070       35.151        0.114      350.525       31.753      861.050
06/29/2013  20:16:00      -95.988      -18.303      -13.649       37.788       48.328       27.677     1427.905     2335.631      766.035        0.713        0.226       97.717       16.976        0.030      350.466       31.649      861.057
06/29/2013  20:17:00     -103.036       51.759      -15.278       44.314       44.513       30.245     1963.753     1981.390      914.765        0.919        0.243      115.306       25.513        0.049      350.493       31.698      861.065
06/29/2013  20:18:00      -96.460      -29.454      -22.576       34.684       35.605       21.211     1202.969     1267.734      449.922        0.680        0.146      100.857       20.721        0.042      350.442       31.611      861.077
06/29/2013  20:19:00      -58.948      -15.007        0.175       41.798       47.232       29.327     1747.047     2230.864      860.097        0.427        0.242       60.829       19.525        0.103      350.341       31.435      861.082
06/29/2013  20:20:00      -70.297        4.698       -1.834       37.645       33.396       24.230     1417.118     1115.317      587.069        0.404        0.156       70.454       22.402        0.101      350.343       31.438      861.097
06/29/2013  20:21:00      -54.706       30.948      -10.768       58.821       52.590       33.014     3459.951     2765.740     1089.918        0.569        0.366       62.854       44.131        0.493      350.382       31.505      861.104
06/29/2013  20:22:00      -10.088       -2.865        6.344       28.103       33.480       16.772      789.783     1120.925      281.314        0.117        0.110       10.487       12.265        1.368      350.217       31.218      861.122
06/29/2013  20:23:00      -45.807       17.536      -12.214       29.293       32.190       19.380      858.088     1036.202      375.599        0.241        0.113       49.049        6.139        0.016      350.321       31.399      861.129
06/29/2013  20:24:00      -77.385       46.553      -12.494       28.736       60.324       23.862      825.779     3638.994      569.409        0.667        0.252       90.308       18.985        0.044      350.301       31.365      861.149
06/29/2013  20:25:00      -89.925       72.608      -15.863       41.566       51.413       27.298     1727.768     2643.321      745.190        0.936        0.256      115.578       28.337        0.060      350.383       31.508      861.150
06/29/2013  20:26:00      -71.204        2.386       -8.959       22.853       36.281       23.757      522.254     1316.313      564.414        0.378        0.120       71.244       18.669        0.069      350.370       31.485      861.162
06/29/2013  20:27:00      -78.164        0.543      -12.844       27.591       39.439       18.051      761.273     1555.470      325.830        0.446        0.132       78.166       11.936        0.023      350.312       31.383      861.162
06/29/2013  20:28:00      -58.023      -18.492       -8.955       25.454       15.900       16.208      647.912      252.819      262.701        0.248        0.058       60.898       13.593        0.050      350.290       31.345      861.166
06/29/2013  20:29:00      -71.029      -23.870       -3.083       38.226       20.781       14.535     1461.243      431.848      211.273        0.386        0.105       74.933       16.459        0.048      350.225       31.232      861.169
06/29/2013  20:30:00      -99.788       20.852      -13.632       38.821       62.282       26.651     1507.089     3879.008      710.287        0.834        0.305      101.943       18.775        0.034      350.187       31.167      861.178
06/29/2013  20:31:00     -111.533      -22.934      -13.773       33.280       33.955       18.219     1107.536     1152.942      331.936        0.787        0.130      113.867       14.089        0.015      350.153       31.108      861.186
06/29/2013  20:32:00      -98.024      -39.523       -5.500       37.691       34.474       23.926     1420.610     1188.472      572.455        0.719        0.159      105.691       21.414        0.041      350.117       31.043      861.195
06/29/2013  20:33:00     -106.772      -31.825       -6.356       49.506       32.034       25.547     2450.837     1026.171      652.640        0.829        0.206      111.414       23.674        0.045      350.039       30.909      861.206
06/29/2013  20:34:00     -134.422        2.025       -8.537       43.237       45.822       19.850     1869.400     2099.639      394.035        1.125        0.218      134.437       19.006        0.020      350.013       30.864      861.213
06/29/2013  20:35:00     -127.091       12.402      -14.197       43.834       43.705       25.751     1921.453     1910.159      663.133        1.050        0.225      127.695       20.083        0.025      349.995       30.832      861.230
06/29/2013  20:36:00     -139.326      -35.094      -11.981       32.276       39.421       24.713     1041.725     1554.023      610.724        1.200        0.160      143.678       13.913        0.009      349.976       30.801      861.230
06/29/2013  20:37:00     -129.611      -46.156       -8.609       41.176       33.731       24.306     1695.449     1137.791      590.801        1.121        0.171      137.585        8.430        0.004      349.946       30.747      861.239
06/29/2013  20:38:00     -133.923       -6.633       -5.606       52.639       31.142       23.990     2770.840      969.814      575.502        1.116        0.216      134.087       22.189        0.027      349.979       30.804      861.249
06/29/2013  20:39:00     -108.064      -26.783      -12.055       41.542       40.947       24.040     1725.732     1676.652      577.932        0.826        0.199      111.334       22.083        0.039      349.867       30.610      861.258
06/29/2013  20:40:00     -103.638      -58.046        1.364       44.510       43.637       27.926     1981.178     1904.178      779.869        0.939        0.233      118.786       25.821        0.047      349.841       30.565      861.255
06/29/2013  20:41:00      -79.764      -40.225        4.152       61.299       37.311       22.606     3757.590     1392.077      511.031        0.683        0.283       89.333       26.778        0.090      349.810       30.510      861.250
06/29/2013  20:42:00      -47.782      -37.891        7.718       56.691       33.957       27.356     3213.879     1153.048      748.378        0.445        0.256       60.983       28.592        0.220      349.802       30.497      861.256
06/29/2013  20:43:00     -124.160      -33.810       -3.299       81.961       41.336       29.626     6717.662     1708.633      877.690        1.293        0.465      128.681       38.731        0.091      349.775       30.449      861.252
06/29/2013  20:44:00     -141.701      -84.474        6.712       70.704       65.880       36.405     4999.054     4340.228     1325.329        1.896        0.533      164.970       41.612        0.064      349.768       30.437      861.256
06/29/2013  20:45:00     -132.109      -76.119        4.740       71.660       52.293       37.175     5135.107     2734.591     1381.954        1.626        0.463      152.470       42.367        0.077      349.732       30.374      861.259
06/29/2013  20:46:00     -164.982     -121.873       -0.916       77.199       60.761       43.444     5959.661     3691.843     1887.366        2.680        0.577      205.115       44.742        0.048      349.724       30.359      861.258
06/29/2013  20:47:00     -149.407     -117.497        1.905       89.283       62.780       54.654     7971.450     3941.303     2987.059        2.551        0.745      190.074       48.658        0.066      349.771       30.442      861.266
06/29/2013  20:48:00     -106.091     -103.486        3.376       69.748       72.876       46.339     4864.763     5310.844     2147.302        1.715        0.616      148.204       46.183        0.097      349.769       30.440      861.266
06/29/2013  20:49:00     -171.124      -90.414        0.253       71.877       54.299       37.266     5166.362     2948.401     1388.741        2.348        0.475      193.541       40.834        0.045      349.774       30.445      861.262
06/29/2013  20:50:00     -191.190      -85.012       -9.262       59.476       57.400       39.332     3537.449     3294.764     1547.041        2.612        0.419      209.239       34.113        0.027      349.817       30.520      861.268
06/29/2013  20:51:00     -175.009      -60.567       -3.401       71.580       53.685       38.020     5123.657     2882.049     1445.544        2.188        0.473      185.193       36.613        0.039      349.888       30.644      861.276
06/29/2013  20:52:00     -179.855      -28.712        6.831       82.164       60.107       41.274     6750.876     3612.867     1703.507        2.264        0.603      182.133       38.215        0.044      349.986       30.814      861.264
06/29/2013  20:53:00     -188.090      -54.931       -7.649       65.651       58.129       32.365     4310.105     3378.978     1047.480        2.359        0.437      195.947       31.977        0.027      349.918       30.697      861.269
06/29/2013  20:54:00     -243.852      -65.111      -11.270       66.540       50.823       34.723     4427.608     2582.993     1205.654        3.602        0.411      252.395       34.600        0.019      349.921       30.700      861.281
06/29/2013  20:55:00     -168.417      -69.255       -6.917       68.139       58.459       32.721     4642.895     3417.396     1070.669        2.117        0.457      182.100       26.759        0.022      349.867       30.608      861.281
06/29/2013  20:56:00     -134.989      -75.857       -1.957       69.491       45.865       29.598     4829.002     2103.631      876.071        1.589        0.390      154.843       36.774        0.056      349.806       30.502      861.284
06/29/2013  20:57:00     -138.151      -75.916       12.147       87.444       48.413       45.113     7646.371     2343.812     2035.166        1.851        0.601      157.635       50.368        0.102      349.783       30.463      861.285
06/29/2013  20:58:00     -145.026      -76.388       10.123       82.489       74.182       45.157     6804.388     5503.012     2039.171        2.066        0.717      163.913       40.990        0.063      349.815       30.520      861.283
06/29/2013  20:59:00     -155.624      -66.715       -6.900       78.230       60.342       35.294     6119.994     3641.204     1245.672        1.986        0.550      169.321       27.606        0.027      349.947       30.747      861.279
06/29/2013  21:00:00     -204.201      -66.128        5.763       85.730       59.268       36.930     7349.567     3512.686     1363.837        2.916        0.611      214.641       37.967        0.031      349.858       30.593      861.296
06/29/2013  21:01:00     -238.746      -75.667       -6.241       55.302       58.530       33.588     3058.281     3425.741     1128.144        3.519        0.381      250.450       27.373        0.012      349.879       30.626      861.313
06/29/2013  21:02:00     -141.099      -55.630        1.239       78.248       61.338       33.208     6122.690     3762.341     1102.762        1.699        0.549      151.670       38.873        0.066      349.778       30.453      861.316
06/29/2013  21:03:00     -163.758      -54.834      -11.152       68.993       57.155       34.149     4760.031     3266.705     1166.147        1.957        0.460      172.695       33.829        0.038      349.791       30.476      861.310
06/29/2013  21:04:00     -190.043      -12.545       -3.555       96.715       71.350       40.168     9353.717     5090.763     1613.489        2.617        0.803      190.457       40.229        0.045      349.741       30.390      861.309
06/29/2013  21:05:00     -240.857       -5.374      -15.733       88.466       62.698       40.514     7826.182     3931.002     1641.384        3.584        0.670      240.917       39.159        0.026      349.810       30.507      861.319
06/29/2013  21:06:00     -271.482      -28.189      -16.027       71.712       73.982       38.046     5142.542     5473.363     1447.484        4.341        0.603      272.942       30.945        0.013      349.825       30.533      861.321
06/29/2013  21:07:00     -213.748      -34.923      -11.891       99.151       72.411       46.932     9830.971     5243.295     2202.594        3.216        0.864      216.582       52.106        0.058      349.728       30.365      861.310
06/29/2013  21:08:00     -173.821      -52.356        4.734       94.616       69.236       40.023     8952.262     4793.579     1601.830        2.416        0.767      181.535       45.967        0.064      349.718       30.347      861.319
06/29/2013  21:09:00     -203.681      -75.768      -13.847       88.044       75.843       47.958     7751.728     5752.139     2299.955        3.161        0.790      217.318       50.224        0.053      349.768       30.434      861.319
06/29/2013  21:10:00     -156.298      -32.611       -4.959       59.430       76.223       37.139     3531.875     5809.979     1379.328        1.812        0.536      159.664       31.257        0.038      349.695       30.312      861.316
06/29/2013  21:11:00     -177.643        6.773      -11.557       44.219       44.489       31.655     1955.356     1979.244     1002.048        1.834        0.247      177.772       24.687        0.019      349.688       30.298      861.327
06/29/2013  21:12:00     -171.409       14.820      -10.554       54.450       50.988       41.194     2964.761     2599.748     1696.965        1.849        0.363      172.048       30.010        0.030      349.743       30.394      861.344
06/29/2013  21:13:00     -229.408      -14.436      -16.551       86.765       63.321       32.137     7528.115     4009.515     1032.756        3.284        0.629      229.862       35.770        0.024      349.770       30.437      861.347
06/29/2013  21:14:00     -227.475      -71.085      -12.111       54.299       52.285       29.774     2948.411     2733.728      886.496        3.176        0.328      238.324       27.466        0.013      349.693       30.303      861.357
06/29/2013  21:15:00     -225.215      -31.221       -4.200       95.030       65.265       41.213     9030.784     4259.523     1698.480        3.335        0.749      227.368       49.478        0.047      349.720       30.351      861.369
06/29/2013  21:16:00     -234.988      -59.463      -16.664      118.639       72.810       45.292    14075.272     5301.354     2051.381        4.023        1.071      242.394       54.642        0.051      349.725       30.360      861.397
06/29/2013  21:17:00     -141.321      -72.498        4.784      103.092       74.591       45.780    10628.055     5563.818     2095.784        2.177        0.914      158.832       53.050        0.112      349.623       30.184      861.426
06/29/2013  21:18:00     -202.821      -82.650       -1.706       92.771       62.098       36.122     8606.397     3856.127     1304.811        3.087        0.688      219.015       42.369        0.037      349.651       30.233      861.445
06/29/2013  21:19:00     -242.648      -83.752       -7.810      126.552       87.599       55.993    16015.316     7673.541     3135.179        4.638        1.341      256.696       59.291        0.053      349.744       30.395      861.460
06/29/2013  21:20:00     -242.883      -71.412      -14.812       96.950       73.629       44.306     9399.394     5421.297     1963.060        4.054        0.839      253.163       49.198        0.038      349.794       30.478      861.460
06/29/2013  21:21:00     -176.722      -47.847       -1.123      116.592       71.529       41.766    13593.720     5116.381     1744.398        2.698        1.023      183.084       50.639        0.077      349.801       30.493      861.469
06/29/2013  21:22:00     -186.499      -65.000        1.121      102.754       82.978       45.645    10558.335     6885.400     2083.455        2.926        0.976      197.502       49.465        0.063      349.781       30.458      861.484
06/29/2013  21:23:00     -241.321      -93.638      -13.152       78.569       65.346       38.690     6173.069     4270.067     1496.928        3.956        0.597      258.851       38.751        0.022      349.790       30.473      861.513
06/29/2013  21:24:00     -232.972      -89.902      -20.130       78.898       57.264       33.999     6224.964     3279.172     1155.911        3.671        0.533      249.717       26.041        0.011      349.787       30.466      861.528
06/29/2013  21:25:00     -183.129      -88.325       -1.563      108.479       58.221       42.681    11767.687     3389.645     1821.643        2.916        0.849      203.316       46.835        0.053      349.777       30.451      861.541
06/29/2013  21:26:00     -220.885     -131.586      -10.031       92.478       64.860       36.841     8552.225     4206.822     1357.250        4.016        0.706      257.109       35.170        0.019      349.824       30.531      861.542
06/29/2013  21:27:00     -215.409     -105.698       -4.127       77.482       62.234       39.453     6003.518     3873.069     1556.565        3.451        0.572      239.944       36.946        0.024      349.764       30.428      861.556
06/29/2013  21:28:00     -214.037      -88.195       -3.112       87.772       63.794       36.479     7703.859     4069.667     1330.731        3.335        0.655      231.495       40.778        0.031      349.728       30.366      861.566
06/29/2013  21:29:00     -232.314      -86.573       -7.216       94.555       86.018       48.193     8940.630     7399.028     2322.567        4.009        0.933      247.921       44.421        0.032      349.735       30.378      861.584
06/29/2013  21:30:00     -177.605      -91.493        1.221      102.018       70.449       41.995    10407.677     4963.124     1763.616        2.852        0.857      199.786       41.259        0.043      349.700       30.318      861.589
06/29/2013  21:31:00     -196.659      -80.362       -0.980       92.651       62.303       38.459     8584.136     3881.694     1479.091        2.954        0.697      212.445       43.499        0.042      349.729       30.368      861.598
06/29/2013  21:32:00     -148.076      -86.762        2.803      101.296       65.525       54.269    10260.847     4293.532     2945.086        2.348        0.875      171.622       48.378        0.079      349.685       30.293      861.600
06/29/2013  21:33:00     -209.582     -100.256      -17.633      134.531      109.026       55.885    18098.491    11886.587     3123.169        4.369        1.655      232.327       56.176        0.058      349.775       30.448      861.599
06/29/2013  21:34:00     -264.251     -127.050       -3.632      134.787       99.211       56.056    18167.529     9842.858     3142.232        5.856        1.558      293.207       66.518        0.051      349.788       30.470      861.599
06/29/2013  21:35:00     -223.499     -136.108       -8.309      136.207      111.678       58.529    18552.482    12471.927     3425.662        5.149        1.723      261.682       62.196        0.056      349.741       30.388      861.606
06/29/2013  21:36:00     -211.520     -145.294       -6.926      110.361       82.175       54.242    12179.561     6752.727     2942.214        4.388        1.094      256.615       61.015        0.057      349.707       30.329      861.612
06/29/2013  21:37:00     -201.919      -55.649      -13.739       84.197       60.985       38.717     7089.193     3719.190     1498.994        2.818        0.615      209.447       38.737        0.034      349.655       30.237      861.615
06/29/2013  21:38:00     -192.511      -31.037        7.357       82.352       62.323       38.982     6781.800     3884.129     1519.621        2.513        0.609      194.997       44.845        0.053      349.633       30.202      861.624
06/29/2013  21:39:00     -230.509     -103.766       -4.341       85.771       95.696       45.914     7356.607     9157.679     2108.115        4.127        0.931      252.788       47.926        0.036      349.708       30.330      861.628
06/29/2013  21:40:00     -209.255      -48.261        1.375       98.791       83.534       41.971     9759.638     6977.923     1761.582        3.231        0.925      214.748       47.359        0.049      349.630       30.194      861.627
06/29/2013  21:41:00     -198.980      -67.296        7.015      118.162       78.633       49.555    13962.340     6183.226     2455.706        3.338        1.130      210.052       65.813        0.098      349.621       30.183      861.639
06/29/2013  21:42:00     -234.109     -129.162       -4.245       86.305       83.427       53.519     7448.567     6960.138     2864.247        4.439        0.864      267.375       54.012        0.041      349.718       30.347      861.642
06/29/2013  21:43:00     -175.305      -65.541        2.014      140.977       77.603       59.793    19874.627     6022.200     3575.208        3.225        1.474      187.156       76.218        0.166      349.710       30.334      861.647
06/29/2013  21:44:00     -175.810      -82.714      -12.515       64.719       60.997       37.321     4188.595     3720.605     1392.886        2.360        0.465      194.296       28.756        0.022      349.685       30.292      861.647
06/29/2013  21:45:00     -143.492     -108.678        6.046      144.902       96.908       61.652    20996.496     9391.131     3800.919        3.331        1.709      180.003       72.251        0.161      349.654       30.239      861.648
06/29/2013  21:46:00     -181.859      -67.043       -7.999       75.088       82.662       44.699     5638.256     6832.969     1998.000        2.605        0.723      193.824       39.012        0.041      349.663       30.252      861.664
06/29/2013  21:47:00     -172.182      -72.487        1.623       99.039       87.008       52.285     9808.818     7570.444     2733.703        2.750        1.006      186.818       61.902        0.110      349.616       30.173      861.677
06/29/2013  21:48:00     -145.301      -73.390       18.493      128.048       80.754       61.010    16396.165     6521.179     3722.164        2.673        1.332      162.783       72.602        0.199      349.616       30.171      861.689
06/29/2013  21:49:00     -205.173     -148.633       -3.469      108.684      103.814       45.977    11812.168    10777.447     2113.878        4.445        1.235      253.353       58.810        0.054      349.653       30.236      861.703
06/29/2013  21:50:00     -147.679      -90.575       -7.902       70.452       78.875       40.095     4963.500     6221.222     1607.649        2.143        0.640      173.242       38.328        0.049      349.559       30.073      861.718
06/29/2013  21:51:00     -203.027      -29.125       -8.988       93.215       44.559       38.910     8689.020     1985.473     1513.957        2.717        0.609      205.105       42.282        0.042      349.599       30.141      861.740
06/29/2013  21:52:00     -187.038      -69.530      -10.786       90.284       77.357       41.811     8151.291     5984.055     1748.197        2.791        0.794      199.544       40.330        0.041      349.574       30.100      861.751
06/29/2013  21:53:00     -208.793      -30.230      -13.845       87.571       66.209       45.022     7668.617     4383.647     2027.003        2.939        0.704      210.970       48.823        0.054      349.508       29.984      861.770
06/29/2013  21:54:00     -148.835      -49.334        1.935       89.588       55.061       43.155     8025.972     3031.707     1862.363        1.875        0.646      156.798       49.116        0.098      349.442       29.871      861.783
06/29/2013  21:55:00     -173.470       -2.924      -12.700       77.316       47.905       37.611     5977.710     2294.913     1414.600        1.997        0.484      173.495       39.487        0.052      349.441       29.868      861.814
06/29/2013  21:56:00      -96.505       12.073      -10.178       44.172       36.128       21.128     1951.192     1305.207      446.373        0.663        0.185       97.257       19.496        0.040      349.380       29.765      861.835
06/29/2013  21:57:00      -54.895       71.880       -4.321       53.570       50.657       20.247     2869.738     2566.110      409.945        0.702        0.292       90.444       19.801        0.048      349.212       29.474      861.844
06/29/2013  21:58:00      -31.860      121.105      -12.752       26.493       40.643       24.583      701.877     1651.892      604.344        0.940        0.148      125.226       22.524        0.032      349.185       29.428      861.873
06/29/2013  21:59:00      -44.784      155.578      -30.588       34.863       55.056       19.988     1215.402     3031.123      399.535        1.589        0.232      161.895       18.865        0.014      349.116       29.307      861.869
06/29/2013  22:00:00      -66.491      134.070      -21.976       28.848       46.208       15.793      832.212     2135.213      249.417        1.305        0.161      149.653       11.004        0.005      349.163       29.388      861.886
06/29/2013  22:01:00      -67.681       64.097       -4.934       25.705       52.586       26.039      660.725     2765.289      678.038        0.641        0.205       93.216       22.895        0.060      349.061       29.212      861.887
06/29/2013  22:02:00      -59.393       22.845      -11.650       19.935       33.307       16.655      397.413     1109.365      277.386        0.298        0.089       63.635       11.523        0.033      349.066       29.222      861.886
06/29/2013  22:03:00     -113.791       44.729      -13.817       39.920       20.879       20.499     1593.572      435.948      420.206        0.879        0.122      122.266       16.889        0.019      349.084       29.252      861.902
06/29/2013  22:04:00     -122.753      106.154      -18.883       49.420       58.741       31.772     2442.355     3450.451     1009.477        1.680        0.345      162.287       29.142        0.032      349.106       29.289      861.909
06/29/2013  22:05:00      -81.259      110.313      -17.063       43.095       55.562       36.053     1857.208     3087.178     1299.837        1.265        0.312      137.011       28.108        0.042      349.204       29.460      861.904
06/29/2013  22:06:00      -91.375      104.483      -20.633       49.700       54.120       26.825     2470.138     2928.999      719.590        1.290        0.306      138.802       21.256        0.023      349.166       29.395      861.886
06/29/2013  22:07:00      -91.869       53.693      -12.701       60.372       33.644       29.346     3644.742     1131.924      861.206        0.856        0.282      106.408       28.006        0.069      349.210       29.471      861.904
06/29/2013  22:08:00     -117.755       20.752      -24.052       44.614       23.242       20.663     1990.373      540.213      426.963        0.892        0.148      119.569       21.454        0.032      349.178       29.414      861.929
06/29/2013  22:09:00     -119.022       24.126      -17.212       55.770       62.283       34.299     3110.257     3879.227     1176.404        1.160        0.408      121.442       28.730        0.056      349.226       29.496      861.932
06/29/2013  22:10:00     -101.139       78.171      -17.109       51.815       41.412       28.011     2684.758     1714.915      784.640        1.091        0.259      127.827       26.195        0.042      349.315       29.652      861.950
06/29/2013  22:11:00     -141.263      110.463      -22.834       59.043       44.661       27.490     3486.053     1994.603      755.687        1.946        0.312      179.325       22.958        0.016      349.462       29.908      861.951
06/29/2013  22:12:00     -153.249      131.648      -42.208       46.124       70.264       31.988     2127.419     4936.984     1023.209        2.534        0.404      202.031       24.702        0.015      349.375       29.755      861.963
06/29/2013  22:13:00     -147.354      144.302      -36.320       47.219       57.058       25.809     2229.620     3255.605      666.094        2.500        0.308      206.243       24.827        0.014      349.382       29.766      861.974
06/29/2013  22:14:00     -121.578      150.719      -34.954       58.557       51.770       29.834     3428.882     2680.088      890.051        2.286        0.350      193.643       32.343        0.028      349.313       29.647      861.974
06/29/2013  22:15:00     -131.194      123.816      -32.240       43.819       65.755       32.498     1920.124     4323.767     1056.144        2.044        0.365      180.395       29.867        0.027      349.236       29.513      861.991
06/29/2013  22:16:00     -117.494      112.931      -19.527       59.387       53.338       38.022     3526.853     2844.917     1445.706        1.738        0.391      162.967       33.335        0.042      349.163       29.389      861.993
06/29/2013  22:17:00      -60.912      134.912      -20.939       31.492       60.239       25.343      991.724     3628.743      642.257        1.381        0.263      148.026       29.257        0.039      349.091       29.264      861.997
06/29/2013  22:18:00      -94.801      212.888      -28.216       39.903       84.493       29.046     1592.288     7139.022      843.691        3.234        0.479      233.042       23.399        0.010      349.100       29.278      861.997
06/29/2013  22:19:00      -78.385      121.574      -20.294       62.277       63.624       26.492     3878.461     4048.008      701.843        1.498        0.431      144.653       23.059        0.025      349.086       29.254      862.007
06/29/2013  22:20:00      -72.178      119.870       -8.933       50.679       63.767       30.268     2568.364     4066.281      916.124        1.360        0.378      139.923       25.467        0.033      349.101       29.283      862.004
06/29/2013  22:21:00      -71.693       75.246      -13.413       34.680       38.262       25.160     1202.724     1463.966      633.000        0.714        0.165      103.932       22.735        0.048      349.243       29.528      862.004
06/29/2013  22:22:00      -74.049       -0.031      -12.653       24.559       38.424       16.187      603.123     1476.421      262.031        0.399        0.117       74.049       13.174        0.032      349.153       29.372      862.025
06/29/2013  22:23:00     -108.579      -31.577      -16.824       23.075       18.514       12.849      532.449      342.782      165.091        0.705        0.052      113.077        9.553        0.007      348.964       29.043      862.025
06/29/2013  22:24:00     -116.198      -26.594       -8.999       25.351       33.385       20.363      642.673     1114.548      414.651        0.823        0.109      119.202       14.049        0.014      348.926       28.979      862.039
06/29/2013  22:25:00     -103.295      -26.073      -13.050       30.820       38.144       20.747      949.867     1454.998      430.419        0.718        0.142      106.535       17.400        0.027      349.016       29.133      862.044
06/29/2013  22:26:00     -137.942       -7.620      -10.808       39.277       53.795       19.115     1542.659     2893.943      365.373        1.200        0.240      138.152       16.226        0.014      348.821       28.796      862.060
06/29/2013  22:27:00     -168.529      -18.150      -13.488       49.972       59.228       24.568     2497.202     3507.908      603.565        1.776        0.330      169.504       29.501        0.030      349.042       29.178      862.070
06/29/2013  22:28:00     -188.192       50.723      -27.238       41.232       46.175       20.578     1700.044     2132.138      423.455        2.149        0.213      194.908       12.252        0.004      349.171       29.401      862.067
06/29/2013  22:29:00      -91.346      -20.635      -13.055       68.528       33.376       33.515     4696.132     1113.975     1123.263        0.794        0.347       93.648       32.043        0.117      348.903       28.938      862.077
06/29/2013  22:30:00     -114.918       -0.393      -17.635       41.429       51.678       23.243     1716.393     2670.660      540.214        0.922        0.246      114.919       22.921        0.040      349.023       29.147      862.080
06/29/2013  22:31:00     -100.322       48.741      -12.104       55.130       60.275       24.657     3039.314     3633.067      607.973        0.993        0.364      111.535       23.002        0.043      348.987       29.086      862.099
06/29/2013  22:32:00     -125.963      -20.295       -8.502       38.702       24.365       18.593     1497.840      593.630      345.692        0.939        0.122      127.588       19.959        0.024      348.795       28.751      862.110
06/29/2013  22:33:00     -142.371       49.035      -19.007       37.963       35.736       21.606     1441.220     1277.051      466.832        1.311        0.159      150.579       19.905        0.017      348.855       28.855      862.129
06/29/2013  22:34:00     -110.935       73.741      -15.963       45.948       29.738       21.807     2111.207      884.376      475.528        1.073        0.174      133.208       12.081        0.008      349.008       29.120      862.140
06/29/2013  22:35:00      -94.778       90.091      -17.560       28.485       38.590       21.265      811.422     1489.192      452.191        1.008        0.138      130.764       15.047        0.013      348.978       29.069      862.139
06/29/2013  22:36:00      -95.343       92.683      -18.159       52.495       37.480       24.571     2755.704     1404.719      603.728        1.139        0.238      132.968       21.561        0.026      348.903       28.938      862.159
06/29/2013  22:37:00      -50.602       38.889       -9.213       30.615       49.855       16.716      937.302     2485.545      279.413        0.393        0.185       63.819       12.168        0.036      348.705       28.596      862.176
06/29/2013  22:38:00      -83.410        1.827      -13.675       19.241       20.188       10.344      370.227      407.548      106.998        0.402        0.044       83.430        4.837        0.003      348.538       28.307      862.189
06/29/2013  22:39:00      -45.089       64.191      -11.274       45.553       54.299       25.228     2075.068     2948.434      636.471        0.597        0.283       78.445       29.646        0.143      348.753       28.679      862.202
06/29/2013  22:40:00      -70.080        7.871      -10.949       30.477       38.374       17.616      928.867     1472.556      310.311        0.390        0.136       70.521       13.672        0.038      348.708       28.601      862.194
06/29/2013  22:41:00     -115.196      -30.818       -9.160       41.111       32.688       18.942     1690.105     1068.532      358.800        0.871        0.156      119.247       11.400        0.009      348.578       28.377      862.200
06/29/2013  22:42:00      -89.819       53.049       -6.957       33.953       71.051       22.381     1152.830     5048.188      500.903        0.881        0.335      104.315       22.243        0.045      348.620       28.449      862.198
06/29/2013  22:43:00     -106.671      170.516      -28.117       56.364       45.698       31.749     3176.854     2088.330     1008.009        2.376        0.314      201.133       30.241        0.023      348.933       28.988      862.193
06/29/2013  22:44:00      -98.587      154.868      -27.605       30.436       30.135       17.581      926.366      908.101      309.095        1.830        0.107      183.585       14.730        0.006      348.792       28.745      862.197
06/29/2013  22:45:00      -93.825      123.450      -18.853       51.378       53.232       26.440     2639.690     2833.611      699.087        1.528        0.309      155.058       28.752        0.034      348.702       28.592      862.180
06/29/2013  22:46:00      -66.436      112.241      -15.782       33.431       36.045       25.503     1117.617     1299.220      650.379        1.016        0.153      130.430       25.764        0.039      348.662       28.522      862.177
06/29/2013  22:47:00     -132.852       98.651      -24.811       46.644       38.636       25.187     2175.684     1492.718      634.385        1.615        0.215      165.474       21.005        0.016      348.538       28.307      862.160
06/29/2013  22:48:00     -155.844      -24.565      -25.872       28.620       40.241       20.209      819.113     1619.369      408.415        1.420        0.142      157.768       14.005        0.008      348.552       28.330      862.165
06/29/2013  22:49:00     -166.879      -40.654      -10.279       44.302       32.831       22.831     1962.626     1077.844      521.238        1.658        0.178      171.759       23.023        0.018      348.524       28.282      862.151
06/29/2013  22:50:00     -166.800      -59.812       -7.040       36.062       30.707       20.242     1300.485      942.905      409.759        1.705        0.133      177.199       19.053        0.012      348.578       28.375      862.136
06/29/2013  22:51:00     -162.878      -33.195       -6.376       43.297       32.874       23.393     1874.645     1080.714      547.243        1.559        0.175      166.226       20.513        0.015      348.541       28.312      862.141
06/29/2013  22:52:00     -244.745       -2.238      -22.211       66.559       62.060       28.951     4430.077     3851.497      838.146        3.476        0.456      244.755       31.696        0.017      349.193       29.436      862.114
06/29/2013  22:53:00     -264.208      -38.335      -18.547       61.561       91.733       40.047     3789.759     8414.883     1603.732        4.271        0.690      266.975       34.044        0.016      349.033       29.159      862.103
06/29/2013  22:54:00     -202.366      -68.515       -3.454       77.824       42.259       27.186     6056.505     1785.797      739.075        2.712        0.429      213.650       24.107        0.013      348.515       28.266      862.096
06/29/2013  22:55:00     -173.260      -41.852       -8.081       62.004       48.228       29.404     3844.527     2325.968      864.572        1.943        0.352      178.243       31.243        0.031      348.524       28.281      862.097
06/29/2013  22:56:00     -132.915      -21.807      -11.122       57.442       37.912       26.603     3299.534     1437.285      707.715        1.185        0.272      134.692       29.887        0.049      348.359       27.997      862.102
06/29/2013  22:57:00     -156.532      -25.643      -10.930       45.855       38.938       25.527     2102.709     1516.166      651.639        1.477        0.214      158.619       24.075        0.023      348.346       27.975      862.082
06/29/2013  22:58:00     -108.211      -56.856       10.269       64.989       53.689       32.946     4223.527     2882.552     1085.444        1.162        0.410      122.239       34.797        0.081      348.390       28.050      862.071
06/29/2013  22:59:00     -150.678      -91.393       -9.647       61.079       55.316       33.599     3730.673     3059.866     1128.895        1.953        0.396      176.229       29.511        0.028      348.706       28.596      862.053
06/29/2013  23:00:00     -189.865     -126.307      -19.813       60.675       51.787       37.936     3681.444     2681.869     1439.146        3.010        0.390      228.040       22.115        0.009      348.666       28.524      862.044
06/29/2013  23:01:00     -185.482      -83.247        0.523       76.083       51.923       36.953     5788.581     2696.032     1365.544        2.559        0.493      203.307       35.881        0.031      348.640       28.482      862.051
06/29/2013  23:02:00     -250.087      -50.942        3.565       80.321       58.412       40.593     6451.450     3411.925     1647.816        3.833        0.576      255.223       39.822        0.024      348.741       28.654      862.061
06/29/2013  23:03:00     -209.006      -59.955       -7.266       65.818       62.905       31.045     4332.012     3957.077      963.801        2.829        0.463      217.436       25.909        0.014      348.696       28.577      862.065
06/29/2013  23:04:00     -176.490      -53.678       -2.330       66.781       58.506       34.254     4459.668     3422.917     1173.317        2.154        0.453      184.472       33.137        0.032      348.697       28.581      862.054
06/29/2013  23:05:00     -283.330      -93.872      -11.191       76.098       79.555       37.600     5790.878     6329.055     1413.731        5.137        0.677      298.476       33.381        0.013      348.732       28.639      862.058
06/29/2013  23:06:00     -245.468      -65.243       -5.591      104.077       62.080       53.770    10832.124     3853.961     2891.227        4.106        0.879      253.991       61.239        0.058      348.774       28.713      862.064
06/29/2013  23:07:00     -196.580      -51.703        3.163       88.839       66.737       40.096     7892.336     4453.869     1607.672        2.764        0.698      203.265       43.649        0.046      348.687       28.562      862.068
06/29/2013  23:08:00     -229.703      -70.124        2.348       81.839       74.700       42.195     6697.596     5580.109     1780.390        3.587        0.703      240.168       42.458        0.031      348.655       28.506      862.079
06/29/2013  23:09:00     -229.879      -61.247       -2.920       87.236       60.307       45.464     7610.189     3636.878     2066.991        3.496        0.666      237.898       46.540        0.038      348.699       28.582      862.085
06/29/2013  23:10:00     -169.752      -63.970        0.085       78.004       53.598       35.823     6084.575     2872.784     1283.282        2.157        0.512      181.406       35.620        0.039      348.632       28.467      862.093
06/29/2013  23:11:00     -199.657      -66.586       -1.907       60.137       53.810       35.462     3616.435     2895.553     1257.539        2.603        0.388      210.468       33.738        0.026      348.658       28.512      862.081
06/29/2013  23:12:00     -212.570     -103.936        1.893       81.337       64.343       51.635     6615.743     4140.019     2666.217        3.470        0.671      236.619       50.025        0.045      348.675       28.541      862.093
06/29/2013  23:13:00     -182.642      -91.026       -1.353       60.268       50.291       32.971     3632.253     2529.222     1087.112        2.445        0.362      204.068       24.210        0.014      348.614       28.437      862.089
06/29/2013  23:14:00     -191.570      -73.538        0.402       89.265       67.499       42.756     7968.300     4556.177     1828.089        2.823        0.718      205.199       43.567        0.045      348.656       28.509      862.095
06/29/2013  23:15:00     -219.315      -65.500       -5.462       73.662       71.009       37.074     5426.017     5042.260     1374.500        3.213        0.592      228.887       33.030        0.021      348.598       28.406      862.098
06/29/2013  23:16:00     -205.629      -70.376        4.672      101.399       58.135       40.589    10281.748     3379.680     1647.442        3.128        0.765      217.339       44.710        0.042      348.622       28.450      862.078
06/29/2013  23:17:00     -168.697      -57.348        5.125      104.203       61.007       33.842    10858.278     3721.869     1145.261        2.375        0.786      178.178       46.502        0.068      348.546       28.318      862.067
06/29/2013  23:18:00     -174.342      -72.157        3.362       82.254       71.497       45.095     6765.758     5111.830     2033.571        2.476        0.696      188.684       47.019        0.062      348.541       28.310      862.066
06/29/2013  23:19:00     -250.467      -77.060       -9.448       74.305       68.282       41.540     5521.186     4662.384     1725.589        4.033        0.595      262.054       32.932        0.016      348.703       28.588      862.055
06/29/2013  23:20:00     -183.644      -48.894       -4.217       68.312       49.857       36.299     4666.573     2485.741     1317.620        2.230        0.423      190.042       34.510        0.033      348.483       28.209      862.046
06/29/2013  23:21:00     -159.200      -44.585        1.996       70.666       50.169       34.222     4993.615     2516.904     1171.121        1.801        0.434      165.325       36.834        0.050      348.412       28.089      862.063
06/29/2013  23:22:00     -223.552      -49.627       -5.903       85.754       69.569       48.250     7353.679     4839.800     2328.054        3.349        0.726      228.994       49.593        0.047      348.507       28.249      862.070
06/29/2013  23:23:00     -149.101      -35.509       -2.564       66.894       43.739       34.422     4474.814     1913.072     1184.876        1.553        0.379      153.271       34.728        0.051      348.435       28.128      862.080
06/29/2013  23:24:00     -194.821        8.893       -2.923       96.141       59.129       34.160     9243.066     3496.239     1166.924        2.597        0.695      195.024       37.723        0.037      348.454       28.157      862.099
06/29/2013  23:25:00     -179.945      -18.519      -16.792       71.602       56.345       32.032     5126.840     3174.765     1026.019        2.116        0.466      180.895       31.972        0.031      348.460       28.171      862.127
06/29/2013  23:26:00     -108.658      128.432      -22.427       43.005       52.342       26.852     1849.454     2739.655      721.022        1.706        0.266      168.230       27.020        0.026      348.228       27.770      862.165
06/29/2013  23:27:00     -135.712      124.012      -28.680       44.998       54.072       29.049     2024.834     2923.791      843.846        2.020        0.290      183.839       28.656        0.024      348.399       28.065      862.208
06/29/2013  23:28:00     -121.523      121.756      -24.513       48.773       73.582       38.849     2378.813     5414.371     1509.268        1.975        0.465      172.024       39.601        0.053      348.330       27.944      862.254
06/29/2013  23:29:00     -151.380      115.276      -32.551       72.496       48.850       33.663     5255.681     2386.339     1133.230        2.302        0.439      190.275       17.628        0.009      348.494       28.228      862.280
06/29/2013  23:30:00      -82.332       27.564      -15.906       30.657       25.463       26.048      939.870      648.342      678.497        0.503        0.113       86.824       15.474        0.032      348.343       27.970      862.290
06/29/2013  23:31:00      -80.523       53.469      -12.460       55.444       49.386       24.218     3073.995     2439.001      586.499        0.780        0.305       96.658       26.891        0.077      348.346       27.975      862.301
06/29/2013  23:32:00      -46.394       -9.061       -6.878       31.270       30.880       19.111      977.804      953.563      365.222        0.229        0.115       47.271       19.408        0.169      348.275       27.852      862.291
06/29/2013  23:33:00      -10.739       23.275       -1.198       23.706       36.622       19.968      561.988     1341.170      398.721        0.148        0.115       25.633       18.669        0.530      348.322       27.933      862.283
06/29/2013  23:34:00      -44.103      -40.214        0.400       39.967       29.965       16.563     1597.397      897.892      274.335        0.317        0.138       59.684       16.629        0.078      348.315       27.922      862.270
06/29/2013  23:35:00      -55.117      -35.606        2.064       67.247       24.184       17.125     4522.179      584.864      293.257        0.485        0.270       65.618       18.066        0.076      348.116       27.577      862.286
06/29/2013  23:36:00      -28.027      -33.149        5.860       46.008       40.100       20.339     2116.721     1607.996      413.681        0.303        0.207       43.409       20.013        0.213      348.274       27.850      862.293
06/29/2013  23:37:00      -40.260       29.794        3.715       36.248       41.269       16.025     1313.934     1703.160      256.801        0.290        0.164       50.085       18.331        0.134      348.320       27.930      862.288
06/29/2013  23:38:00      -69.538      -15.415       -8.354       24.040       30.147       13.785      577.931      908.845      190.026        0.341        0.084       71.227       11.855        0.028      348.480       28.206      862.291
06/29/2013  23:39:00      -36.499      -29.235        1.508       25.908       17.119       11.961      671.242      293.072      143.059        0.165        0.055       46.764       11.163        0.057      348.470       28.189      862.296
06/29/2013  23:40:00        8.880      -25.692        5.429       17.971       12.461       11.439      322.955      155.278      130.862        0.069        0.030       27.183       10.803        0.158      348.411       28.088      862.287
06/29/2013  23:41:00      -35.166      -18.723       -1.175       29.209       20.976       11.498      853.190      439.992      132.211        0.151        0.071       39.840       11.269        0.080      348.427       28.115      862.303
06/29/2013  23:42:00     -110.798      -24.988        7.801       62.420       57.140       29.787     3896.229     3264.973      887.278        1.050        0.402      113.581       31.398        0.076      348.488       28.221      862.319
06/29/2013  23:43:00     -181.542      -13.393       -8.707       81.661       61.740       31.332     6668.478     3811.868      981.692        2.234        0.573      182.035       22.268        0.015      348.898       28.928      862.324
06/29/2013  23:44:00     -138.549      -80.888       -1.270       57.987       48.320       32.082     3362.440     2334.795     1029.263        1.623        0.336      160.433       29.766        0.034      348.978       29.067      862.323
06/29/2013  23:45:00     -126.362      -21.071        1.407       76.866       39.998       27.247     5908.430     1599.875      742.405        1.233        0.413      128.107       30.338        0.056      348.669       28.533      862.329
06/29/2013  23:46:00     -200.143      -64.667       -6.582       45.927       36.935       20.128     2109.310     1364.182      405.130        2.408        0.194      210.330       12.462        0.004      348.992       29.090      862.304
06/29/2013  23:47:00     -138.195      -16.312      -14.311       37.684       18.070       18.703     1420.069      326.508      349.820        1.083        0.105      139.154       15.741        0.013      348.967       29.048      862.294
06/29/2013  23:48:00      -84.456      -19.517       -4.762       34.157       23.935       15.121     1166.680      572.888      228.638        0.475        0.098       86.682       14.092        0.026      348.731       28.641      862.301
06/29/2013  23:49:00      -94.693      -21.335        0.612       52.027       44.889       23.478     2706.832     2015.065      551.224        0.735        0.264       97.067       24.122        0.062      348.751       28.675      862.301
06/29/2013  23:50:00     -136.784       37.216      -19.805       59.085       47.920       27.147     3491.066     2296.373      736.939        1.350        0.326      141.756       31.019        0.048      348.907       28.945      862.306
06/29/2013  23:51:00      -75.158        9.998       -2.085       60.215       23.416       25.738     3625.871      548.320      662.419        0.529        0.242       75.821       30.292        0.160      348.772       28.711      862.299
06/29/2013  23:52:00      -82.592       70.971      -21.315       45.376       43.186       24.301     2058.971     1865.039      590.539        0.841        0.226      108.896       23.122        0.045      348.840       28.829      862.314
06/29/2013  23:53:00      -64.037       67.573       -6.022       46.280       37.788       26.337     2141.850     1427.941      693.639        0.648        0.213       93.095       28.175        0.092      348.800       28.762      862.332
06/29/2013  23:54:00      -53.757      -18.728        0.977       41.127       25.990       17.805     1691.436      675.459      317.016        0.296        0.134       56.926       20.490        0.130      348.387       28.045      862.320
06/29/2013  23:55:00      -22.877      -12.025        3.783       28.345       13.799       10.699      803.451      190.402      114.469        0.090        0.055       25.845       12.010        0.216      348.426       28.115      862.311
06/29/2013  23:56:00      -55.341       33.922       -8.388       24.183       20.902       15.044      584.822      436.895      226.324        0.277        0.062       64.910       15.195        0.055      348.849       28.844      862.320
06/29/2013  23:57:00      -58.622       95.428      -13.008       18.682       22.393       10.443      349.032      501.440      109.059        0.684        0.048      111.996        6.922        0.004      348.669       28.534      862.321
06/29/2013  23:58:00      -52.985      113.812      -17.936       19.964       26.351       12.177      398.553      694.382      148.268        0.866        0.062      125.542        9.248        0.005      348.669       28.534      862.314
06/29/2013  23:59:00      -55.340       84.709      -23.571       16.520       18.243        9.909      272.909      332.798       98.184        0.575        0.035      101.184        7.050        0.005      348.481       28.208      862.298
